Time,TemperatureF,DewpointF,PressureIn,WindDirection,WindDirectionDegrees,WindSpeedMPH,WindSpeedGustMPH,Humidity,HourlyPrecipIn,Conditions,Clouds,dailyrainin,SoftwareType,DateUTC
2013-07-22 00:00:00,74.4,71.0,29.66,SSE,158,0.0,0.0,89,0.00,,,0.03,WUHU216HW,2013-07-22 04:00:00,
2013-07-22 00:01:00,87.4,71.9,29.69,ENE,68,0.0,0.0,60,0.00,,,0.00,WUHU216HW,2013-07-22 04:01:00,
2013-07-22 00:02:00,87.4,71.9,29.69,ENE,68,0.0,0.0,62,0.00,,,0.00,WUHU216HW,2013-07-22 04:02:00,
2013-07-22 00:03:00,87.4,71.9,29.69,ENE,68,0.0,0.0,62,0.00,,,0.00,WUHU216HW,2013-07-22 04:03:00,
2013-07-22 00:04:00,87.0,72.0,29.69,ENE,68,0.0,0.0,61,0.00,,,0.00,WUHU216HW,2013-07-22 04:04:00,
2013-07-22 00:05:00,87.0,72.0,29.69,ENE,68,0.0,0.0,61,0.00,,,0.00,WUHU216HW,2013-07-22 04:05:00,
2013-07-22 00:06:00,87.0,72.0,29.69,ENE,68,0.0,0.0,62,0.00,,,0.00,WUHU216HW,2013-07-22 04:06:00,
2013-07-22 00:07:00,87.0,72.0,29.69,ENE,68,0.0,0.0,62,0.00,,,0.00,WUHU216HW,2013-07-22 04:07:00,
2013-07-22 00:08:00,87.0,72.0,29.69,ENE,68,0.0,0.0,62,0.00,,,0.00,WUHU216HW,2013-07-22 04:08:00,
2013-07-22 00:09:00,87.0,72.0,29.69,ENE,68,0.0,0.0,62,0.00,,,0.00,WUHU216HW,2013-07-22 04:09:00,
2013-07-22 00:10:00,87.0,72.0,29.69,ENE,68,0.0,0.0,62,0.00,,,0.00,WUHU216HW,2013-07-22 04:10:00,
2013-07-22 00:11:00,87.0,72.0,29.69,ENE,68,0.0,0.0,62,0.00,,,0.00,WUHU216HW,2013-07-22 04:11:00,
2013-07-22 00:12:00,87.0,72.0,29.69,ENE,68,0.0,0.0,62,0.00,,,0.00,WUHU216HW,2013-07-22 04:12:00,
2013-07-22 00:13:00,87.2,72.6,29.69,ENE,68,0.0,0.0,62,0.00,,,0.00,WUHU216HW,2013-07-22 04:13:00,
2013-07-22 00:14:00,74.4,71.0,29.67,SSE,158,0.0,0.0,89,0.00,,,0.03,WUHU216HW,2013-07-22 04:14:00,
2013-07-22 00:15:00,87.2,72.6,29.69,ENE,68,0.0,0.0,61,0.00,,,0.00,WUHU216HW,2013-07-22 04:15:00,
2013-07-22 00:16:00,87.0,72.0,29.69,ENE,68,0.0,0.0,61,0.00,,,0.00,WUHU216HW,2013-07-22 04:16:00,
2013-07-22 00:18:00,87.0,72.0,29.69,ENE,68,0.0,0.0,61,0.00,,,0.00,WUHU216HW,2013-07-22 04:18:00,
2013-07-22 00:19:00,74.4,71.0,29.67,SSE,158,0.0,0.0,89,0.00,,,0.03,WUHU216HW,2013-07-22 04:19:00,
2013-07-22 00:20:00,87.0,72.0,29.69,ENE,68,0.0,0.0,62,0.00,,,0.00,WUHU216HW,2013-07-22 04:20:00,
2013-07-22 00:22:00,87.0,72.0,29.69,ENE,68,0.0,0.0,62,0.00,,,0.00,WUHU216HW,2013-07-22 04:22:00,
2013-07-22 00:24:00,74.4,71.0,29.67,SSE,158,0.0,0.0,89,0.00,,,0.03,WUHU216HW,2013-07-22 04:24:00,
2013-07-22 00:25:00,86.7,71.7,29.69,ENE,68,0.0,0.0,61,0.00,,,0.00,WUHU216HW,2013-07-22 04:25:00,
2013-07-22 00:26:00,86.7,71.7,29.69,ENE,68,0.0,0.0,61,0.00,,,0.00,WUHU216HW,2013-07-22 04:26:00,
2013-07-22 00:27:00,86.7,71.7,29.69,ENE,68,0.0,0.0,61,0.00,,,0.00,WUHU216HW,2013-07-22 04:27:00,
2013-07-22 00:28:00,86.7,71.7,29.69,ENE,68,0.0,0.0,61,0.00,,,0.00,WUHU216HW,2013-07-22 04:28:00,
2013-07-22 00:29:00,74.4,71.0,29.67,SSE,158,0.0,0.0,89,0.00,,,0.03,WUHU216HW,2013-07-22 04:29:00,
2013-07-22 00:30:00,86.7,71.7,29.69,ENE,68,0.0,0.0,61,0.00,,,0.00,WUHU216HW,2013-07-22 04:30:00,
2013-07-22 00:31:00,86.7,71.7,29.69,ENE,68,0.0,0.0,61,0.00,,,0.00,WUHU216HW,2013-07-22 04:31:00,
2013-07-22 00:32:00,86.7,71.7,29.69,ENE,68,0.0,0.0,61,0.00,,,0.00,WUHU216HW,2013-07-22 04:32:00,
2013-07-22 00:33:00,86.7,71.7,29.69,ENE,68,0.0,0.0,61,0.00,,,0.00,WUHU216HW,2013-07-22 04:33:00,
2013-07-22 00:34:00,74.4,71.0,29.68,SSE,158,0.0,0.0,89,0.00,,,0.03,WUHU216HW,2013-07-22 04:34:00,
2013-07-22 00:35:00,86.5,71.5,29.69,ENE,68,0.0,0.0,61,0.00,,,0.00,WUHU216HW,2013-07-22 04:35:00,
2013-07-22 00:36:00,86.5,71.5,29.69,ENE,68,0.0,0.0,61,0.00,,,0.00,WUHU216HW,2013-07-22 04:36:00,
2013-07-22 00:37:00,86.5,71.5,29.69,ENE,68,0.0,0.0,61,0.00,,,0.00,WUHU216HW,2013-07-22 04:37:00,
2013-07-22 00:38:00,86.7,72.1,29.69,ENE,68,0.0,0.0,62,0.00,,,0.00,WUHU216HW,2013-07-22 04:38:00,
2013-07-22 00:39:00,74.4,71.0,29.68,SSE,158,0.0,0.0,89,0.00,,,0.03,WUHU216HW,2013-07-22 04:39:00,
2013-07-22 00:40:00,86.7,72.1,29.69,ENE,68,0.0,0.0,62,0.00,,,0.00,WUHU216HW,2013-07-22 04:40:00,
2013-07-22 00:41:00,86.5,71.5,29.69,ENE,68,0.0,0.0,61,0.00,,,0.00,WUHU216HW,2013-07-22 04:41:00,
2013-07-22 00:42:00,86.5,71.5,29.69,ENE,68,0.0,0.0,61,0.00,,,0.00,WUHU216HW,2013-07-22 04:42:00,
2013-07-22 00:43:00,86.5,71.5,29.69,ENE,68,0.0,0.0,60,0.00,,,0.00,WUHU216HW,2013-07-22 04:43:00,
2013-07-22 00:44:00,74.4,71.0,29.68,SSE,158,0.0,0.0,89,0.00,,,0.03,WUHU216HW,2013-07-22 04:44:00,
2013-07-22 00:45:00,86.5,71.5,29.69,ENE,68,0.0,0.0,60,0.00,,,0.00,WUHU216HW,2013-07-22 04:45:00,
2013-07-22 00:46:00,86.5,71.5,29.69,ENE,68,0.0,0.0,60,0.00,,,0.00,WUHU216HW,2013-07-22 04:46:00,
2013-07-22 00:49:00,74.3,70.9,29.67,SSE,158,0.0,0.0,89,0.00,,,0.03,WUHU216HW,2013-07-22 04:49:00,
2013-07-22 00:51:00,86.5,71.5,29.68,ENE,68,0.0,0.0,59,0.00,,,0.00,WUHU216HW,2013-07-22 04:51:00,
2013-07-22 00:52:00,86.5,71.5,29.68,ENE,68,0.0,0.0,59,0.00,,,0.00,WUHU216HW,2013-07-22 04:52:00,
2013-07-22 00:54:00,74.4,71.0,29.67,SSE,158,0.0,0.0,89,0.00,,,0.03,WUHU216HW,2013-07-22 04:54:00,
2013-07-22 00:55:00,86.5,71.5,29.68,ENE,68,0.0,0.0,58,0.00,,,0.00,WUHU216HW,2013-07-22 04:55:00,
2013-07-22 00:56:00,86.5,71.5,29.69,ENE,68,0.0,0.0,59,0.00,,,0.00,WUHU216HW,2013-07-22 04:56:00,
2013-07-22 00:57:00,86.5,71.5,29.69,ENE,68,0.0,0.0,59,0.00,,,0.00,WUHU216HW,2013-07-22 04:57:00,
2013-07-22 00:58:00,86.5,71.5,29.69,ENE,68,0.0,0.0,59,0.00,,,0.00,WUHU216HW,2013-07-22 04:58:00,
2013-07-22 00:59:00,74.3,70.9,29.67,SSE,158,0.0,0.0,89,0.00,,,0.03,WUHU216HW,2013-07-22 04:59:00,
2013-07-22 01:00:00,86.5,71.5,29.69,ENE,68,0.0,0.0,59,0.00,,,0.00,WUHU216HW,2013-07-22 05:00:00,
2013-07-22 01:02:00,86.5,71.5,29.69,ENE,68,0.0,0.0,59,0.00,,,0.00,WUHU216HW,2013-07-22 05:02:00,
2013-07-22 01:03:00,86.5,71.5,29.68,ENE,68,0.0,0.0,59,0.00,,,0.00,WUHU216HW,2013-07-22 05:03:00,
2013-07-22 01:04:00,74.3,70.9,29.67,SSE,158,0.0,0.0,89,0.00,,,0.03,WUHU216HW,2013-07-22 05:04:00,
2013-07-22 01:05:00,86.5,71.5,29.69,ENE,68,0.0,0.0,59,0.00,,,0.00,WUHU216HW,2013-07-22 05:05:00,
2013-07-22 01:07:00,86.5,71.5,29.69,ENE,68,0.0,0.0,59,0.00,,,0.00,WUHU216HW,2013-07-22 05:07:00,
2013-07-22 01:08:00,86.5,71.5,29.69,ENE,68,0.0,0.0,59,0.00,,,0.00,WUHU216HW,2013-07-22 05:08:00,
2013-07-22 01:09:00,74.3,70.9,29.67,SSE,158,0.0,0.0,89,0.00,,,0.03,WUHU216HW,2013-07-22 05:09:00,
2013-07-22 01:10:00,86.5,71.5,29.69,ENE,68,0.0,0.0,60,0.00,,,0.00,WUHU216HW,2013-07-22 05:10:00,
2013-07-22 01:11:00,86.3,70.8,29.69,ENE,68,0.0,0.0,60,0.00,,,0.00,WUHU216HW,2013-07-22 05:11:00,
2013-07-22 01:12:00,86.3,70.8,29.69,ENE,68,0.0,0.0,60,0.00,,,0.00,WUHU216HW,2013-07-22 05:12:00,
2013-07-22 01:13:00,86.3,70.8,29.69,ENE,68,0.0,0.0,59,0.00,,,0.00,WUHU216HW,2013-07-22 05:13:00,
2013-07-22 01:14:00,74.3,70.9,29.67,SSE,158,0.0,0.0,90,0.00,,,0.03,WUHU216HW,2013-07-22 05:14:00,
2013-07-22 01:15:00,86.1,70.1,29.69,North,0,0.0,0.0,59,0.00,,,0.00,WUHU216HW,2013-07-22 05:15:00,
2013-07-22 01:17:00,86.1,70.1,29.69,North,0,0.0,0.0,59,0.00,,,0.00,WUHU216HW,2013-07-22 05:17:00,
2013-07-22 01:18:00,86.1,70.1,29.69,NNE,23,0.0,0.0,59,0.00,,,0.00,WUHU216HW,2013-07-22 05:18:00,
2013-07-22 01:19:00,86.1,70.1,29.69,NNE,23,0.0,0.0,59,0.00,,,0.00,WUHU216HW,2013-07-22 05:19:00,
2013-07-22 01:20:00,74.3,70.9,29.67,SSE,158,0.0,0.0,89,0.00,,,0.03,WUHU216HW,2013-07-22 05:20:00,
2013-07-22 01:21:00,86.1,70.1,29.69,NNE,23,0.0,0.0,59,0.00,,,0.00,WUHU216HW,2013-07-22 05:21:00,
2013-07-22 01:22:00,86.1,70.1,29.69,NNE,23,0.0,0.0,60,0.00,,,0.00,WUHU216HW,2013-07-22 05:22:00,
2013-07-22 01:23:00,86.1,70.1,29.69,NNE,23,0.0,0.0,60,0.00,,,0.00,WUHU216HW,2013-07-22 05:23:00,
2013-07-22 01:24:00,86.1,70.1,29.69,NNE,23,0.0,0.0,59,0.00,,,0.00,WUHU216HW,2013-07-22 05:24:00,
2013-07-22 01:25:00,74.3,70.9,29.66,SSE,158,0.0,0.0,90,0.00,,,0.03,WUHU216HW,2013-07-22 05:25:00,
2013-07-22 01:26:00,86.1,70.1,29.69,NNE,23,0.0,0.0,59,0.00,,,0.00,WUHU216HW,2013-07-22 05:26:00,
2013-07-22 01:27:00,86.1,70.1,29.69,NNE,23,0.0,0.0,59,0.00,,,0.00,WUHU216HW,2013-07-22 05:27:00,
2013-07-22 01:28:00,86.1,70.1,29.69,NNE,23,0.0,0.0,59,0.00,,,0.00,WUHU216HW,2013-07-22 05:28:00,
2013-07-22 01:29:00,86.1,70.1,29.69,NNE,23,0.0,0.0,59,0.00,,,0.00,WUHU216HW,2013-07-22 05:29:00,
2013-07-22 01:30:00,74.3,70.9,29.66,SSE,158,0.0,0.0,90,0.00,,,0.03,WUHU216HW,2013-07-22 05:30:00,
2013-07-22 01:31:00,86.1,70.1,29.69,NNE,23,0.0,0.0,61,0.00,,,0.00,WUHU216HW,2013-07-22 05:31:00,
2013-07-22 01:32:00,86.1,70.1,29.69,NNE,23,0.0,0.0,61,0.00,,,0.00,WUHU216HW,2013-07-22 05:32:00,
2013-07-22 01:33:00,86.1,70.1,29.69,North,0,0.0,0.0,60,0.00,,,0.00,WUHU216HW,2013-07-22 05:33:00,
2013-07-22 01:34:00,86.1,70.1,29.69,North,0,0.0,0.0,60,0.00,,,0.00,WUHU216HW,2013-07-22 05:34:00,
2013-07-22 01:35:00,74.3,70.9,29.66,SSE,158,0.0,0.0,90,0.00,,,0.03,WUHU216HW,2013-07-22 05:35:00,
2013-07-22 01:37:00,86.1,70.1,29.69,NW,315,0.0,0.0,60,0.00,,,0.00,WUHU216HW,2013-07-22 05:37:00,
2013-07-22 01:38:00,86.1,70.1,29.69,NW,315,0.0,0.0,60,0.00,,,0.00,WUHU216HW,2013-07-22 05:38:00,
2013-07-22 01:39:00,86.1,70.1,29.69,NW,315,0.0,0.0,60,0.00,,,0.00,WUHU216HW,2013-07-22 05:39:00,
2013-07-22 01:40:00,74.3,70.9,29.66,SSE,158,0.0,0.0,90,0.00,,,0.03,WUHU216HW,2013-07-22 05:40:00,
2013-07-22 01:41:00,86.1,70.1,29.69,NW,315,0.0,0.0,61,0.00,,,0.00,WUHU216HW,2013-07-22 05:41:00,
2013-07-22 01:42:00,86.1,70.1,29.69,NW,315,0.0,0.0,61,0.00,,,0.00,WUHU216HW,2013-07-22 05:42:00,
2013-07-22 01:43:00,86.1,70.1,29.69,NW,315,0.0,0.0,62,0.00,,,0.00,WUHU216HW,2013-07-22 05:43:00,
2013-07-22 01:44:00,86.1,70.1,29.69,NW,315,0.0,0.0,62,0.00,,,0.00,WUHU216HW,2013-07-22 05:44:00,
2013-07-22 01:45:00,74.3,70.9,29.66,SSE,158,0.0,0.0,90,0.00,,,0.03,WUHU216HW,2013-07-22 05:45:00,
2013-07-22 01:46:00,86.0,70.9,29.69,NW,315,0.0,0.0,61,0.00,,,0.00,WUHU216HW,2013-07-22 05:46:00,
2013-07-22 01:47:00,86.0,70.9,29.69,NW,315,0.0,0.0,61,0.00,,,0.00,WUHU216HW,2013-07-22 05:47:00,
2013-07-22 01:48:00,86.0,70.9,29.69,NW,315,0.0,0.0,62,0.00,,,0.00,WUHU216HW,2013-07-22 05:48:00,
2013-07-22 01:49:00,85.8,71.7,29.69,NW,315,0.0,0.0,63,0.00,,,0.00,WUHU216HW,2013-07-22 05:49:00,
2013-07-22 01:50:00,74.3,70.9,29.66,SSE,158,0.0,0.0,90,0.00,,,0.03,WUHU216HW,2013-07-22 05:50:00,
2013-07-22 01:51:00,85.8,71.7,29.69,NW,315,0.0,0.0,62,0.00,,,0.00,WUHU216HW,2013-07-22 05:51:00,
2013-07-22 01:52:00,85.8,71.7,29.69,NW,315,0.0,0.0,62,0.00,,,0.00,WUHU216HW,2013-07-22 05:52:00,
2013-07-22 01:53:00,85.8,71.7,29.69,NW,315,0.0,0.0,62,0.00,,,0.00,WUHU216HW,2013-07-22 05:53:00,
2013-07-22 01:54:00,85.8,71.7,29.69,NW,315,0.0,0.0,62,0.00,,,0.00,WUHU216HW,2013-07-22 05:54:00,
2013-07-22 01:55:00,74.3,70.9,29.66,SSE,158,0.0,0.0,90,0.00,,,0.03,WUHU216HW,2013-07-22 05:55:00,
2013-07-22 01:56:00,85.6,71.1,29.69,NW,315,0.0,0.0,62,0.00,,,0.00,WUHU216HW,2013-07-22 05:56:00,
2013-07-22 01:57:00,85.6,71.1,29.69,NW,315,0.0,0.0,62,0.00,,,0.00,WUHU216HW,2013-07-22 05:57:00,
2013-07-22 01:58:00,85.6,71.1,29.69,NW,315,0.0,0.0,62,0.00,,,0.00,WUHU216HW,2013-07-22 05:58:00,
2013-07-22 01:59:00,85.6,71.1,29.69,NW,315,0.0,0.0,62,0.00,,,0.00,WUHU216HW,2013-07-22 05:59:00,
2013-07-22 02:00:00,74.1,71.0,29.66,SSE,158,0.0,0.0,90,0.00,,,0.03,WUHU216HW,2013-07-22 06:00:00,
2013-07-22 02:01:00,85.6,71.1,29.69,NW,315,0.0,0.0,62,0.00,,,0.00,WUHU216HW,2013-07-22 06:01:00,
2013-07-22 02:02:00,85.4,70.9,29.69,NW,315,0.0,0.0,62,0.00,,,0.00,WUHU216HW,2013-07-22 06:02:00,
2013-07-22 02:03:00,85.4,70.9,29.69,NW,315,0.0,0.0,62,0.00,,,0.00,WUHU216HW,2013-07-22 06:03:00,
2013-07-22 02:04:00,85.4,70.9,29.69,NW,315,0.0,0.0,62,0.00,,,0.00,WUHU216HW,2013-07-22 06:04:00,
2013-07-22 02:05:00,74.1,71.0,29.66,SSE,158,0.0,0.0,90,0.00,,,0.03,WUHU216HW,2013-07-22 06:05:00,
2013-07-22 02:06:00,85.4,70.9,29.69,NW,315,0.0,0.0,63,0.00,,,0.00,WUHU216HW,2013-07-22 06:06:00,
2013-07-22 02:07:00,85.2,71.2,29.69,NW,315,0.0,0.0,63,0.00,,,0.00,WUHU216HW,2013-07-22 06:07:00,
2013-07-22 02:08:00,85.2,71.2,29.69,NW,315,0.0,0.0,63,0.00,,,0.00,WUHU216HW,2013-07-22 06:08:00,
2013-07-22 02:09:00,85.1,71.0,29.69,NW,315,0.0,0.0,63,0.00,,,0.00,WUHU216HW,2013-07-22 06:09:00,
2013-07-22 02:10:00,73.9,70.8,29.66,SSE,158,0.0,0.0,90,0.00,,,0.03,WUHU216HW,2013-07-22 06:10:00,
2013-07-22 02:12:00,85.1,71.0,29.69,NW,315,0.0,0.0,63,0.00,,,0.00,WUHU216HW,2013-07-22 06:12:00,
2013-07-22 02:13:00,85.1,71.0,29.68,NW,315,0.0,0.0,63,0.00,,,0.00,WUHU216HW,2013-07-22 06:13:00,
2013-07-22 02:14:00,85.1,71.0,29.68,NW,315,0.0,0.0,63,0.00,,,0.00,WUHU216HW,2013-07-22 06:14:00,
2013-07-22 02:15:00,74.1,71.0,29.65,SSE,158,0.0,0.0,90,0.00,,,0.03,WUHU216HW,2013-07-22 06:15:00,
2013-07-22 02:16:00,85.1,71.0,29.69,NE,45,0.0,0.0,63,0.00,,,0.00,WUHU216HW,2013-07-22 06:16:00,
2013-07-22 02:17:00,85.1,71.0,29.69,NE,45,0.0,0.0,63,0.00,,,0.00,WUHU216HW,2013-07-22 06:17:00,
2013-07-22 02:18:00,85.1,71.0,29.69,NE,45,0.0,0.0,63,0.00,,,0.00,WUHU216HW,2013-07-22 06:18:00,
2013-07-22 02:19:00,85.1,71.0,29.68,NE,45,0.0,0.0,63,0.00,,,0.00,WUHU216HW,2013-07-22 06:19:00,
2013-07-22 02:20:00,73.9,70.8,29.65,SSE,158,0.0,0.0,90,0.00,,,0.03,WUHU216HW,2013-07-22 06:20:00,
2013-07-22 02:21:00,84.9,71.3,29.69,NE,45,0.0,0.0,64,0.00,,,0.00,WUHU216HW,2013-07-22 06:21:00,
2013-07-22 02:22:00,84.9,71.3,29.69,NE,45,0.0,0.0,64,0.00,,,0.00,WUHU216HW,2013-07-22 06:22:00,
2013-07-22 02:23:00,84.9,71.3,29.68,NE,45,0.0,0.0,64,0.00,,,0.00,WUHU216HW,2013-07-22 06:23:00,
2013-07-22 02:24:00,84.9,71.3,29.68,NE,45,0.0,0.0,63,0.00,,,0.00,WUHU216HW,2013-07-22 06:24:00,
2013-07-22 02:25:00,73.9,70.8,29.65,SSE,158,0.0,0.0,90,0.00,,,0.03,WUHU216HW,2013-07-22 06:25:00,
2013-07-22 02:26:00,84.7,71.2,29.69,NE,45,0.0,0.0,64,0.00,,,0.00,WUHU216HW,2013-07-22 06:26:00,
2013-07-22 02:27:00,84.7,71.2,29.69,NE,45,0.0,0.0,64,0.00,,,0.00,WUHU216HW,2013-07-22 06:27:00,
2013-07-22 02:28:00,84.7,71.2,29.69,NE,45,0.0,0.0,64,0.00,,,0.00,WUHU216HW,2013-07-22 06:28:00,
2013-07-22 02:29:00,84.7,71.2,29.69,NE,45,0.0,0.0,64,0.00,,,0.00,WUHU216HW,2013-07-22 06:29:00,
2013-07-22 02:30:00,73.7,70.7,29.65,SSE,158,0.0,0.0,90,0.00,,,0.03,WUHU216HW,2013-07-22 06:30:00,
2013-07-22 02:31:00,84.7,71.2,29.69,NE,45,0.0,0.0,64,0.00,,,0.00,WUHU216HW,2013-07-22 06:31:00,
2013-07-22 02:32:00,84.7,71.2,29.69,NE,45,0.0,0.0,64,0.00,,,0.00,WUHU216HW,2013-07-22 06:32:00,
2013-07-22 02:33:00,84.7,71.2,29.69,NE,45,0.0,0.0,65,0.00,,,0.00,WUHU216HW,2013-07-22 06:33:00,
2013-07-22 02:34:00,84.7,71.2,29.69,NE,45,0.0,0.0,65,0.00,,,0.00,WUHU216HW,2013-07-22 06:34:00,
2013-07-22 02:35:00,73.7,70.7,29.65,SSE,158,0.0,0.0,90,0.00,,,0.03,WUHU216HW,2013-07-22 06:35:00,
2013-07-22 02:36:00,84.5,71.4,29.68,NE,45,0.0,0.0,65,0.00,,,0.00,WUHU216HW,2013-07-22 06:36:00,
2013-07-22 02:37:00,84.5,71.4,29.68,NE,45,0.0,0.0,65,0.00,,,0.00,WUHU216HW,2013-07-22 06:37:00,
2013-07-22 02:38:00,84.5,71.4,29.68,NE,45,0.0,0.0,65,0.00,,,0.00,WUHU216HW,2013-07-22 06:38:00,
2013-07-22 02:39:00,84.5,71.4,29.69,NE,45,0.0,0.0,65,0.00,,,0.00,WUHU216HW,2013-07-22 06:39:00,
2013-07-22 02:40:00,73.5,70.5,29.65,SSE,158,0.0,0.0,90,0.00,,,0.03,WUHU216HW,2013-07-22 06:40:00,
2013-07-22 02:42:00,84.3,71.3,29.68,NE,45,0.0,0.0,65,0.00,,,0.00,WUHU216HW,2013-07-22 06:42:00,
2013-07-22 02:43:00,84.3,71.3,29.69,NE,45,0.0,0.0,66,0.00,,,0.00,WUHU216HW,2013-07-22 06:43:00,
2013-07-22 02:44:00,84.3,71.3,29.69,NE,45,0.0,0.0,66,0.00,,,0.00,WUHU216HW,2013-07-22 06:44:00,
2013-07-22 02:45:00,73.5,70.5,29.64,SSE,158,0.0,0.0,90,0.00,,,0.03,WUHU216HW,2013-07-22 06:45:00,
2013-07-22 02:47:00,84.3,71.3,29.69,NE,45,0.0,0.0,65,0.00,,,0.00,WUHU216HW,2013-07-22 06:47:00,
2013-07-22 02:48:00,84.3,71.3,29.68,NE,45,0.0,0.0,65,0.00,,,0.00,WUHU216HW,2013-07-22 06:48:00,
2013-07-22 02:49:00,84.3,71.3,29.68,NE,45,0.0,0.0,65,0.00,,,0.00,WUHU216HW,2013-07-22 06:49:00,
2013-07-22 02:50:00,73.5,70.5,29.64,SSE,158,0.0,0.0,90,0.00,,,0.03,WUHU216HW,2013-07-22 06:50:00,
2013-07-22 02:51:00,84.0,71.4,29.69,NE,45,0.0,0.0,66,0.00,,,0.00,WUHU216HW,2013-07-22 06:51:00,
2013-07-22 02:52:00,84.0,71.4,29.69,NE,45,0.0,0.0,66,0.00,,,0.00,WUHU216HW,2013-07-22 06:52:00,
2013-07-22 02:53:00,84.0,71.4,29.69,NE,45,0.0,0.0,66,0.00,,,0.00,WUHU216HW,2013-07-22 06:53:00,
2013-07-22 02:55:00,73.5,70.5,29.64,SSE,158,0.0,0.0,90,0.00,,,0.03,WUHU216HW,2013-07-22 06:55:00,
2013-07-22 02:57:00,83.8,71.6,29.68,NE,45,0.0,0.0,67,0.00,,,0.00,WUHU216HW,2013-07-22 06:57:00,
2013-07-22 02:58:00,83.8,71.6,29.69,NE,45,0.0,0.0,67,0.00,,,0.00,WUHU216HW,2013-07-22 06:58:00,
2013-07-22 03:00:00,73.2,70.1,29.64,SSE,158,0.0,0.0,90,0.00,,,0.03,WUHU216HW,2013-07-22 07:00:00,
2013-07-22 03:01:00,83.8,71.6,29.69,NE,45,0.0,0.0,67,0.00,,,0.00,WUHU216HW,2013-07-22 07:01:00,
2013-07-22 03:02:00,83.8,71.6,29.69,NE,45,0.0,0.0,67,0.00,,,0.00,WUHU216HW,2013-07-22 07:02:00,
2013-07-22 03:03:00,83.8,71.6,29.68,NE,45,0.0,0.0,68,0.00,,,0.00,WUHU216HW,2013-07-22 07:03:00,
2013-07-22 03:04:00,83.8,71.6,29.68,NE,45,0.0,0.0,68,0.00,,,0.00,WUHU216HW,2013-07-22 07:04:00,
2013-07-22 03:05:00,73.2,70.1,29.64,SSE,158,0.0,0.0,90,0.00,,,0.03,WUHU216HW,2013-07-22 07:05:00,
2013-07-22 03:06:00,83.8,71.6,29.69,NE,45,0.0,0.0,68,0.00,,,0.00,WUHU216HW,2013-07-22 07:06:00,
2013-07-22 03:07:00,83.8,71.6,29.69,NE,45,0.0,0.0,68,0.00,,,0.00,WUHU216HW,2013-07-22 07:07:00,
2013-07-22 03:08:00,83.8,71.6,29.68,NE,45,0.0,0.0,68,0.00,,,0.00,WUHU216HW,2013-07-22 07:08:00,
2013-07-22 03:09:00,83.4,71.7,29.69,NE,45,0.0,0.0,68,0.00,,,0.00,WUHU216HW,2013-07-22 07:09:00,
2013-07-22 03:10:00,73.2,70.1,29.64,SSE,158,0.0,0.0,90,0.00,,,0.03,WUHU216HW,2013-07-22 07:10:00,
2013-07-22 03:11:00,83.6,71.9,29.68,NE,45,0.0,0.0,68,0.00,,,0.00,WUHU216HW,2013-07-22 07:11:00,
2013-07-22 03:12:00,83.6,71.9,29.69,NE,45,0.0,0.0,68,0.00,,,0.00,WUHU216HW,2013-07-22 07:12:00,
2013-07-22 03:13:00,83.6,71.9,29.69,NE,45,0.0,0.0,68,0.00,,,0.00,WUHU216HW,2013-07-22 07:13:00,
2013-07-22 03:14:00,83.4,71.7,29.68,NE,45,0.0,0.0,68,0.00,,,0.00,WUHU216HW,2013-07-22 07:14:00,
2013-07-22 03:15:00,73.2,70.1,29.63,SSE,158,0.0,0.0,90,0.00,,,0.03,WUHU216HW,2013-07-22 07:15:00,
2013-07-22 03:16:00,83.4,71.7,29.68,NE,45,0.0,0.0,68,0.00,,,0.00,WUHU216HW,2013-07-22 07:16:00,
2013-07-22 03:17:00,83.4,71.7,29.68,NE,45,0.0,0.0,68,0.00,,,0.00,WUHU216HW,2013-07-22 07:17:00,
2013-07-22 03:18:00,83.4,71.7,29.68,NE,45,0.0,0.0,68,0.00,,,0.00,WUHU216HW,2013-07-22 07:18:00,
2013-07-22 03:19:00,83.4,71.7,29.68,NE,45,0.0,0.0,68,0.00,,,0.00,WUHU216HW,2013-07-22 07:19:00,
2013-07-22 03:20:00,73.0,69.9,29.63,SSE,158,0.0,0.0,90,0.00,,,0.03,WUHU216HW,2013-07-22 07:20:00,
2013-07-22 03:21:00,83.4,71.7,29.68,NE,45,0.0,0.0,68,0.00,,,0.00,WUHU216HW,2013-07-22 07:21:00,
2013-07-22 03:22:00,83.4,71.7,29.68,NE,45,0.0,0.0,68,0.00,,,0.00,WUHU216HW,2013-07-22 07:22:00,
2013-07-22 03:23:00,83.4,71.7,29.69,NE,45,0.0,0.0,68,0.00,,,0.00,WUHU216HW,2013-07-22 07:23:00,
2013-07-22 03:24:00,83.3,72.0,29.69,NE,45,0.0,0.0,69,0.00,,,0.00,WUHU216HW,2013-07-22 07:24:00,
2013-07-22 03:25:00,73.0,69.9,29.62,SSE,158,0.0,0.0,90,0.00,,,0.03,WUHU216HW,2013-07-22 07:25:00,
2013-07-22 03:26:00,83.3,72.0,29.68,NE,45,0.0,0.0,69,0.00,,,0.00,WUHU216HW,2013-07-22 07:26:00,
2013-07-22 03:27:00,83.3,72.0,29.68,NE,45,0.0,0.0,69,0.00,,,0.00,WUHU216HW,2013-07-22 07:27:00,
2013-07-22 03:30:00,73.0,69.9,29.62,SSE,158,0.0,0.0,90,0.00,,,0.03,WUHU216HW,2013-07-22 07:30:00,
2013-07-22 03:35:00,73.0,69.9,29.62,SSE,158,0.0,0.0,90,0.00,,,0.03,WUHU216HW,2013-07-22 07:35:00,
2013-07-22 03:37:00,82.7,71.5,29.69,NE,45,0.0,0.0,69,0.00,,,0.00,WUHU216HW,2013-07-22 07:37:00,
2013-07-22 03:38:00,82.7,71.5,29.69,NE,45,0.0,0.0,69,0.00,,,0.00,WUHU216HW,2013-07-22 07:38:00,
2013-07-22 03:39:00,82.7,71.5,29.69,NE,45,0.0,0.0,69,0.00,,,0.00,WUHU216HW,2013-07-22 07:39:00,
2013-07-22 03:40:00,73.0,69.9,29.63,SSE,158,0.0,0.0,90,0.00,,,0.03,WUHU216HW,2013-07-22 07:40:00,
2013-07-22 03:41:00,82.7,71.5,29.69,NE,45,0.0,0.0,69,0.00,,,0.00,WUHU216HW,2013-07-22 07:41:00,
2013-07-22 03:42:00,82.5,71.7,29.69,NE,45,0.0,0.0,70,0.00,,,0.00,WUHU216HW,2013-07-22 07:42:00,
2013-07-22 03:43:00,82.5,71.7,29.69,NE,45,0.0,0.0,70,0.00,,,0.00,WUHU216HW,2013-07-22 07:43:00,
2013-07-22 03:44:00,82.5,71.7,29.69,NE,45,0.0,0.0,70,0.00,,,0.00,WUHU216HW,2013-07-22 07:44:00,
2013-07-22 03:45:00,73.0,69.9,29.62,SSE,158,0.0,0.0,91,0.00,,,0.03,WUHU216HW,2013-07-22 07:45:00,
2013-07-22 03:47:00,82.5,71.7,29.69,NE,45,0.0,0.0,70,0.00,,,0.00,WUHU216HW,2013-07-22 07:47:00,
2013-07-22 03:49:00,82.5,71.7,29.69,NE,45,0.0,0.0,70,0.00,,,0.00,WUHU216HW,2013-07-22 07:49:00,
2013-07-22 03:50:00,73.0,69.9,29.62,SSE,158,0.0,0.0,91,0.00,,,0.03,WUHU216HW,2013-07-22 07:50:00,
2013-07-22 03:52:00,82.4,71.6,29.69,NE,45,0.0,0.0,70,0.00,,,0.00,WUHU216HW,2013-07-22 07:52:00,
2013-07-22 03:53:00,82.4,71.6,29.69,NE,45,0.0,0.0,70,0.00,,,0.00,WUHU216HW,2013-07-22 07:53:00,
2013-07-22 03:54:00,82.2,71.4,29.69,NE,45,0.0,0.0,70,0.00,,,0.00,WUHU216HW,2013-07-22 07:54:00,
2013-07-22 03:55:00,73.0,69.9,29.62,SSE,158,0.0,0.0,90,0.00,,,0.03,WUHU216HW,2013-07-22 07:55:00,
2013-07-22 03:56:00,82.2,71.4,29.69,NE,45,0.0,0.0,70,0.00,,,0.00,WUHU216HW,2013-07-22 07:56:00,
2013-07-22 03:57:00,82.2,71.4,29.69,NE,45,0.0,0.0,71,0.00,,,0.00,WUHU216HW,2013-07-22 07:57:00,
2013-07-22 03:58:00,82.2,71.4,29.69,NE,45,0.0,0.0,71,0.00,,,0.00,WUHU216HW,2013-07-22 07:58:00,
2013-07-22 04:00:00,73.0,69.9,29.62,SSE,158,0.0,0.0,91,0.00,,,0.03,WUHU216HW,2013-07-22 08:00:00,
2013-07-22 04:05:00,73.0,69.9,29.62,SSE,158,0.0,0.0,91,0.00,,,0.03,WUHU216HW,2013-07-22 08:05:00,
2013-07-22 04:07:00,82.0,71.6,29.69,NE,45,0.0,0.0,71,0.00,,,0.00,WUHU216HW,2013-07-22 08:07:00,
2013-07-22 04:09:00,81.8,71.9,29.69,NE,45,0.0,0.0,72,0.00,,,0.00,WUHU216HW,2013-07-22 08:09:00,
2013-07-22 04:10:00,73.2,70.4,29.62,SSE,158,0.0,0.0,91,0.00,,,0.03,WUHU216HW,2013-07-22 08:10:00,
2013-07-22 04:12:00,81.6,71.3,29.69,NE,45,0.0,0.0,71,0.00,,,0.00,WUHU216HW,2013-07-22 08:12:00,
2013-07-22 04:13:00,81.6,71.3,29.69,NE,45,0.0,0.0,71,0.00,,,0.00,WUHU216HW,2013-07-22 08:13:00,
2013-07-22 04:14:00,81.6,71.3,29.69,NE,45,0.0,0.0,71,0.00,,,0.00,WUHU216HW,2013-07-22 08:14:00,
2013-07-22 04:15:00,73.2,70.4,29.62,SSE,158,0.0,0.0,91,0.00,,,0.03,WUHU216HW,2013-07-22 08:15:00,
2013-07-22 04:16:00,81.5,71.1,29.69,NE,45,0.0,0.0,71,0.00,,,0.00,WUHU216HW,2013-07-22 08:16:00,
2013-07-22 04:17:00,81.5,71.1,29.69,NE,45,0.0,0.0,71,0.00,,,0.00,WUHU216HW,2013-07-22 08:17:00,
2013-07-22 04:18:00,81.5,71.1,29.69,NE,45,0.0,0.0,71,0.00,,,0.00,WUHU216HW,2013-07-22 08:18:00,
2013-07-22 04:19:00,81.5,71.1,29.69,NE,45,0.0,0.0,71,0.00,,,0.00,WUHU216HW,2013-07-22 08:19:00,
2013-07-22 04:20:00,81.3,71.4,29.69,NE,45,0.0,0.0,72,0.00,,,0.00,WUHU216HW,2013-07-22 08:20:00,
2013-07-22 04:21:00,73.0,70.2,29.62,SSE,158,0.0,0.0,91,0.00,,,0.03,WUHU216HW,2013-07-22 08:21:00,
2013-07-22 04:22:00,81.3,71.4,29.70,NE,45,0.0,0.0,72,0.00,,,0.00,WUHU216HW,2013-07-22 08:22:00,
2013-07-22 04:23:00,81.3,71.4,29.70,NE,45,0.0,0.0,72,0.00,,,0.00,WUHU216HW,2013-07-22 08:23:00,
2013-07-22 04:24:00,81.1,71.6,29.70,NE,45,0.0,0.0,73,0.00,,,0.00,WUHU216HW,2013-07-22 08:24:00,
2013-07-22 04:25:00,81.1,71.6,29.69,NE,45,0.0,0.0,73,0.00,,,0.00,WUHU216HW,2013-07-22 08:25:00,
2013-07-22 04:26:00,73.0,70.2,29.62,SSE,158,0.0,0.0,91,0.00,,,0.03,WUHU216HW,2013-07-22 08:26:00,
2013-07-22 04:27:00,81.1,71.6,29.70,NE,45,0.0,0.0,73,0.00,,,0.00,WUHU216HW,2013-07-22 08:27:00,
2013-07-22 04:28:00,81.1,71.6,29.70,NE,45,0.0,0.0,73,0.00,,,0.00,WUHU216HW,2013-07-22 08:28:00,
2013-07-22 04:29:00,80.9,71.5,29.70,NE,45,0.0,0.0,73,0.00,,,0.00,WUHU216HW,2013-07-22 08:29:00,
2013-07-22 04:30:00,80.9,71.5,29.70,NE,45,0.0,0.0,73,0.00,,,0.00,WUHU216HW,2013-07-22 08:30:00,
2013-07-22 04:31:00,73.2,70.4,29.62,SSE,158,0.0,0.0,91,0.00,,,0.03,WUHU216HW,2013-07-22 08:31:00,
2013-07-22 04:32:00,80.9,71.5,29.70,NE,45,0.0,0.0,73,0.00,,,0.00,WUHU216HW,2013-07-22 08:32:00,
2013-07-22 04:33:00,80.7,71.3,29.70,NE,45,0.0,0.0,73,0.00,,,0.00,WUHU216HW,2013-07-22 08:33:00,
2013-07-22 04:36:00,73.0,70.2,29.62,SSE,158,0.0,0.0,91,0.00,,,0.03,WUHU216HW,2013-07-22 08:36:00,
2013-07-22 04:37:00,80.7,71.3,29.70,NE,45,0.0,0.0,74,0.00,,,0.00,WUHU216HW,2013-07-22 08:37:00,
2013-07-22 04:38:00,80.4,71.3,29.70,NE,45,0.0,0.0,74,0.00,,,0.00,WUHU216HW,2013-07-22 08:38:00,
2013-07-22 04:39:00,80.4,71.3,29.70,NE,45,0.0,0.0,74,0.00,,,0.00,WUHU216HW,2013-07-22 08:39:00,
2013-07-22 04:41:00,73.0,70.2,29.62,SSE,158,0.0,0.0,91,0.00,,,0.03,WUHU216HW,2013-07-22 08:41:00,
2013-07-22 04:46:00,73.0,70.2,29.62,SSE,158,0.0,0.0,91,0.00,,,0.03,WUHU216HW,2013-07-22 08:46:00,
2013-07-22 04:51:00,73.0,70.2,29.63,SSE,158,0.0,0.0,91,0.00,,,0.03,WUHU216HW,2013-07-22 08:51:00,
2013-07-22 04:56:00,73.0,70.2,29.62,SSE,158,0.0,0.0,91,0.00,,,0.03,WUHU216HW,2013-07-22 08:56:00,
2013-07-22 04:57:00,79.8,70.8,29.70,NE,45,0.0,0.0,75,0.00,,,0.00,WUHU216HW,2013-07-22 08:57:00,
2013-07-22 04:58:00,79.8,70.8,29.71,NE,45,0.0,0.0,75,0.00,,,0.00,WUHU216HW,2013-07-22 08:58:00,
2013-07-22 05:00:00,79.8,70.8,29.71,NE,45,0.0,0.0,75,0.00,,,0.00,WUHU216HW,2013-07-22 09:00:00,
2013-07-22 05:01:00,73.0,70.2,29.62,SSE,158,0.0,0.0,91,0.00,,,0.03,WUHU216HW,2013-07-22 09:01:00,
2013-07-22 05:02:00,79.7,71.0,29.71,NE,45,0.0,0.0,75,0.00,,,0.00,WUHU216HW,2013-07-22 09:02:00,
2013-07-22 05:03:00,79.7,71.0,29.71,NE,45,0.0,0.0,75,0.00,,,0.00,WUHU216HW,2013-07-22 09:03:00,
2013-07-22 05:04:00,79.7,71.0,29.71,NE,45,0.0,0.0,75,0.00,,,0.00,WUHU216HW,2013-07-22 09:04:00,
2013-07-22 05:05:00,79.7,71.0,29.71,NE,45,0.0,0.0,75,0.00,,,0.00,WUHU216HW,2013-07-22 09:05:00,
2013-07-22 05:06:00,73.0,70.2,29.62,SSE,158,0.0,0.0,91,0.00,,,0.03,WUHU216HW,2013-07-22 09:06:00,
2013-07-22 05:07:00,79.5,70.8,29.71,NE,45,0.0,0.0,75,0.00,,,0.00,WUHU216HW,2013-07-22 09:07:00,
2013-07-22 05:08:00,79.5,70.8,29.71,NE,45,0.0,0.0,75,0.00,,,0.00,WUHU216HW,2013-07-22 09:08:00,
2013-07-22 05:09:00,79.5,70.8,29.71,NE,45,0.0,0.0,75,0.00,,,0.00,WUHU216HW,2013-07-22 09:09:00,
2013-07-22 05:10:00,79.3,70.7,29.71,NE,45,0.0,0.0,75,0.00,,,0.00,WUHU216HW,2013-07-22 09:10:00,
2013-07-22 05:11:00,73.0,70.2,29.63,SSE,158,0.0,0.0,91,0.00,,,0.03,WUHU216HW,2013-07-22 09:11:00,
2013-07-22 05:12:00,79.3,70.7,29.71,NE,45,0.0,0.0,75,0.00,,,0.00,WUHU216HW,2013-07-22 09:12:00,
2013-07-22 05:13:00,79.3,70.7,29.71,NE,45,0.0,0.0,75,0.00,,,0.00,WUHU216HW,2013-07-22 09:13:00,
2013-07-22 05:14:00,79.3,70.7,29.71,NE,45,0.0,0.0,75,0.00,,,0.00,WUHU216HW,2013-07-22 09:14:00,
2013-07-22 05:15:00,79.3,70.7,29.71,NE,45,0.0,0.0,75,0.00,,,0.00,WUHU216HW,2013-07-22 09:15:00,
2013-07-22 05:16:00,73.0,70.2,29.63,SSE,158,0.0,0.0,91,0.00,,,0.03,WUHU216HW,2013-07-22 09:16:00,
2013-07-22 05:17:00,79.1,70.5,29.71,NE,45,0.0,0.0,75,0.00,,,0.00,WUHU216HW,2013-07-22 09:17:00,
2013-07-22 05:18:00,79.1,70.5,29.71,NE,45,0.0,0.0,75,0.00,,,0.00,WUHU216HW,2013-07-22 09:18:00,
2013-07-22 05:19:00,78.6,69.9,29.71,NE,45,0.0,0.0,75,0.00,,,0.00,WUHU216HW,2013-07-22 09:19:00,
2013-07-22 05:20:00,78.6,69.9,29.71,NE,45,0.0,0.0,76,0.00,,,0.00,WUHU216HW,2013-07-22 09:20:00,
2013-07-22 05:21:00,73.0,70.2,29.63,SSE,158,0.0,0.0,91,0.00,,,0.03,WUHU216HW,2013-07-22 09:21:00,
2013-07-22 05:22:00,78.6,69.9,29.71,NE,45,0.0,0.0,76,0.00,,,0.00,WUHU216HW,2013-07-22 09:22:00,
2013-07-22 05:23:00,78.6,69.9,29.71,NE,45,0.0,0.0,76,0.00,,,0.00,WUHU216HW,2013-07-22 09:23:00,
2013-07-22 05:24:00,78.6,69.9,29.71,NE,45,0.0,0.0,76,0.00,,,0.00,WUHU216HW,2013-07-22 09:24:00,
2013-07-22 05:25:00,78.6,69.9,29.71,NE,45,0.0,0.0,76,0.00,,,0.00,WUHU216HW,2013-07-22 09:25:00,
2013-07-22 05:26:00,73.0,70.2,29.63,SSE,158,0.0,0.0,91,0.00,,,0.03,WUHU216HW,2013-07-22 09:26:00,
2013-07-22 05:27:00,78.4,70.6,29.72,NE,45,0.0,0.0,77,0.00,,,0.00,WUHU216HW,2013-07-22 09:27:00,
2013-07-22 05:28:00,78.4,70.6,29.71,NE,45,0.0,0.0,77,0.00,,,0.00,WUHU216HW,2013-07-22 09:28:00,
2013-07-22 05:29:00,78.4,70.6,29.71,NE,45,0.0,0.0,77,0.00,,,0.00,WUHU216HW,2013-07-22 09:29:00,
2013-07-22 05:30:00,78.4,70.6,29.71,NE,45,0.0,0.0,77,0.00,,,0.00,WUHU216HW,2013-07-22 09:30:00,
2013-07-22 05:31:00,73.0,70.2,29.63,SSE,158,0.0,0.0,91,0.00,,,0.03,WUHU216HW,2013-07-22 09:31:00,
2013-07-22 05:32:00,78.4,70.6,29.71,NE,45,0.0,0.0,76,0.00,,,0.00,WUHU216HW,2013-07-22 09:32:00,
2013-07-22 05:33:00,78.4,70.6,29.71,NE,45,0.0,0.0,76,0.00,,,0.00,WUHU216HW,2013-07-22 09:33:00,
2013-07-22 05:34:00,78.4,70.6,29.71,NE,45,0.0,0.0,76,0.00,,,0.00,WUHU216HW,2013-07-22 09:34:00,
2013-07-22 05:36:00,73.0,70.2,29.64,SSE,158,0.0,0.0,91,0.00,,,0.03,WUHU216HW,2013-07-22 09:36:00,
2013-07-22 05:37:00,78.4,70.6,29.72,NE,45,0.0,0.0,76,0.00,,,0.00,WUHU216HW,2013-07-22 09:37:00,
2013-07-22 05:38:00,78.4,70.6,29.72,NE,45,0.0,0.0,77,0.00,,,0.00,WUHU216HW,2013-07-22 09:38:00,
2013-07-22 05:39:00,78.4,70.6,29.71,NE,45,0.0,0.0,77,0.00,,,0.00,WUHU216HW,2013-07-22 09:39:00,
2013-07-22 05:40:00,78.4,70.6,29.71,NE,45,0.0,0.0,77,0.00,,,0.00,WUHU216HW,2013-07-22 09:40:00,
2013-07-22 05:41:00,73.0,70.2,29.63,SSE,158,0.0,0.0,91,0.00,,,0.03,WUHU216HW,2013-07-22 09:41:00,
2013-07-22 05:42:00,78.2,70.4,29.72,NE,45,0.0,0.0,77,0.00,,,0.00,WUHU216HW,2013-07-22 09:42:00,
2013-07-22 05:43:00,78.2,70.4,29.72,NE,45,0.0,0.0,77,0.00,,,0.00,WUHU216HW,2013-07-22 09:43:00,
2013-07-22 05:44:00,78.0,70.2,29.72,NE,45,0.0,0.0,77,0.00,,,0.00,WUHU216HW,2013-07-22 09:44:00,
2013-07-22 05:45:00,78.0,70.2,29.72,NE,45,0.0,0.0,77,0.00,,,0.00,WUHU216HW,2013-07-22 09:45:00,
2013-07-22 05:46:00,72.6,69.9,29.63,SSE,158,0.0,0.0,91,0.00,,,0.03,WUHU216HW,2013-07-22 09:46:00,
2013-07-22 05:47:00,77.9,70.0,29.72,NE,45,0.0,0.0,77,0.00,,,0.00,WUHU216HW,2013-07-22 09:47:00,
2013-07-22 05:48:00,77.9,70.0,29.72,NE,45,0.0,0.0,78,0.00,,,0.00,WUHU216HW,2013-07-22 09:48:00,
2013-07-22 05:49:00,77.9,70.0,29.71,NE,45,0.0,0.0,78,0.00,,,0.00,WUHU216HW,2013-07-22 09:49:00,
2013-07-22 05:50:00,77.7,70.2,29.71,NE,45,0.0,0.0,78,0.00,,,0.00,WUHU216HW,2013-07-22 09:50:00,
2013-07-22 05:51:00,72.6,69.9,29.63,SSE,158,0.0,0.0,91,0.00,,,0.03,WUHU216HW,2013-07-22 09:51:00,
2013-07-22 05:54:00,77.7,70.2,29.71,NE,45,0.0,0.0,78,0.00,,,0.00,WUHU216HW,2013-07-22 09:54:00,
2013-07-22 05:56:00,72.6,69.9,29.64,SSE,158,0.0,0.0,91,0.00,,,0.03,WUHU216HW,2013-07-22 09:56:00,
2013-07-22 05:57:00,77.7,70.2,29.72,NE,45,0.0,0.0,78,0.00,,,0.00,WUHU216HW,2013-07-22 09:57:00,
2013-07-22 05:58:00,77.7,70.2,29.72,NE,45,0.0,0.0,78,0.00,,,0.00,WUHU216HW,2013-07-22 09:58:00,
2013-07-22 05:59:00,77.7,70.2,29.71,NE,45,0.0,0.0,78,0.00,,,0.00,WUHU216HW,2013-07-22 09:59:00,
2013-07-22 06:00:00,77.7,70.2,29.72,NE,45,0.0,0.0,78,0.00,,,0.00,WUHU216HW,2013-07-22 10:00:00,
2013-07-22 06:01:00,72.5,69.7,29.64,SSE,158,0.0,0.0,91,0.00,,,0.03,WUHU216HW,2013-07-22 10:01:00,
2013-07-22 06:03:00,77.7,70.2,29.72,NE,45,0.0,0.0,78,0.00,,,0.00,WUHU216HW,2013-07-22 10:03:00,
2013-07-22 06:04:00,77.5,70.4,29.71,NE,45,0.0,0.0,79,0.00,,,0.00,WUHU216HW,2013-07-22 10:04:00,
2013-07-22 06:05:00,77.5,70.4,29.71,NE,45,0.0,0.0,79,0.00,,,0.00,WUHU216HW,2013-07-22 10:05:00,
2013-07-22 06:06:00,72.5,69.7,29.64,SSE,158,0.0,0.0,91,0.00,,,0.03,WUHU216HW,2013-07-22 10:06:00,
2013-07-22 06:07:00,77.5,70.4,29.71,NE,45,0.0,0.0,79,0.00,,,0.00,WUHU216HW,2013-07-22 10:07:00,
2013-07-22 06:08:00,77.5,70.4,29.72,NE,45,0.0,0.0,79,0.00,,,0.00,WUHU216HW,2013-07-22 10:08:00,
2013-07-22 06:09:00,77.5,70.4,29.72,NE,45,0.0,0.0,79,0.00,,,0.00,WUHU216HW,2013-07-22 10:09:00,
2013-07-22 06:10:00,77.5,70.4,29.72,NE,45,0.0,0.0,79,0.00,,,0.00,WUHU216HW,2013-07-22 10:10:00,
2013-07-22 06:11:00,72.5,69.7,29.64,SSE,158,0.0,0.0,91,0.00,,,0.03,WUHU216HW,2013-07-22 10:11:00,
2013-07-22 06:12:00,77.3,70.7,29.72,NE,45,0.0,0.0,80,0.00,,,0.00,WUHU216HW,2013-07-22 10:12:00,
2013-07-22 06:13:00,77.3,70.7,29.71,NE,45,0.0,0.0,80,0.00,,,0.00,WUHU216HW,2013-07-22 10:13:00,
2013-07-22 06:14:00,77.3,70.7,29.71,NE,45,0.0,0.0,80,0.00,,,0.00,WUHU216HW,2013-07-22 10:14:00,
2013-07-22 06:15:00,77.3,70.7,29.72,NE,45,0.0,0.0,80,0.00,,,0.00,WUHU216HW,2013-07-22 10:15:00,
2013-07-22 06:16:00,72.3,69.5,29.64,SSE,158,0.0,0.0,91,0.00,,,0.03,WUHU216HW,2013-07-22 10:16:00,
2013-07-22 06:17:00,77.1,70.5,29.72,NE,45,0.0,0.0,80,0.00,,,0.00,WUHU216HW,2013-07-22 10:17:00,
2013-07-22 06:20:00,77.1,70.5,29.72,NE,45,0.0,0.0,80,0.00,,,0.00,WUHU216HW,2013-07-22 10:20:00,
2013-07-22 06:21:00,72.3,69.5,29.64,SSE,158,0.0,0.0,91,0.00,,,0.03,WUHU216HW,2013-07-22 10:21:00,
2013-07-22 06:22:00,77.1,70.5,29.72,NE,45,0.0,0.0,80,0.00,,,0.00,WUHU216HW,2013-07-22 10:22:00,
2013-07-22 06:24:00,77.1,70.5,29.72,NE,45,0.0,0.0,80,0.00,,,0.00,WUHU216HW,2013-07-22 10:24:00,
2013-07-22 06:25:00,77.1,70.5,29.72,NE,45,0.0,0.0,80,0.00,,,0.00,WUHU216HW,2013-07-22 10:25:00,
2013-07-22 06:26:00,72.3,69.5,29.65,SSE,158,0.0,0.0,91,0.00,,,0.03,WUHU216HW,2013-07-22 10:26:00,
2013-07-22 06:27:00,77.1,70.5,29.72,NE,45,0.0,0.0,80,0.00,,,0.00,WUHU216HW,2013-07-22 10:27:00,
2013-07-22 06:29:00,76.8,70.5,29.73,NE,45,0.0,0.0,81,0.00,,,0.00,WUHU216HW,2013-07-22 10:29:00,
2013-07-22 06:30:00,76.8,70.5,29.72,NE,45,0.0,0.0,81,0.00,,,0.00,WUHU216HW,2013-07-22 10:30:00,
2013-07-22 06:31:00,72.3,69.5,29.65,SSE,158,0.0,0.0,91,0.00,,,0.03,WUHU216HW,2013-07-22 10:31:00,
2013-07-22 06:32:00,76.6,70.7,29.73,NE,45,0.0,0.0,82,0.00,,,0.00,WUHU216HW,2013-07-22 10:32:00,
2013-07-22 06:33:00,76.6,70.7,29.73,NE,45,0.0,0.0,82,0.00,,,0.00,WUHU216HW,2013-07-22 10:33:00,
2013-07-22 06:34:00,76.6,70.7,29.73,NE,45,0.0,0.0,82,0.00,,,0.00,WUHU216HW,2013-07-22 10:34:00,
2013-07-22 06:36:00,72.3,69.5,29.65,SSE,158,0.0,0.0,91,0.00,,,0.03,WUHU216HW,2013-07-22 10:36:00,
2013-07-22 06:41:00,72.3,69.5,29.65,SSE,158,0.0,0.0,91,0.00,,,0.03,WUHU216HW,2013-07-22 10:41:00,
2013-07-22 06:42:00,76.2,70.3,29.73,NE,45,0.0,0.0,82,0.00,,,0.00,WUHU216HW,2013-07-22 10:42:00,
2013-07-22 06:45:00,76.2,70.3,29.73,NE,45,0.0,0.0,82,0.00,,,0.00,WUHU216HW,2013-07-22 10:45:00,
2013-07-22 06:46:00,72.3,69.5,29.65,SSE,158,0.0,0.0,91,0.00,,,0.03,WUHU216HW,2013-07-22 10:46:00,
2013-07-22 06:47:00,76.2,70.3,29.73,NE,45,0.0,0.0,82,0.00,,,0.00,WUHU216HW,2013-07-22 10:47:00,
2013-07-22 06:48:00,76.2,70.3,29.73,NE,45,0.0,0.0,82,0.00,,,0.00,WUHU216HW,2013-07-22 10:48:00,
2013-07-22 06:49:00,76.2,70.3,29.73,NE,45,0.0,0.0,82,0.00,,,0.00,WUHU216HW,2013-07-22 10:49:00,
2013-07-22 06:50:00,76.2,70.3,29.73,NE,45,0.0,0.0,82,0.00,,,0.00,WUHU216HW,2013-07-22 10:50:00,
2013-07-22 06:51:00,72.5,69.7,29.65,SSE,158,0.0,0.0,91,0.00,,,0.03,WUHU216HW,2013-07-22 10:51:00,
2013-07-22 06:52:00,76.2,70.3,29.73,NE,45,0.0,0.0,82,0.00,,,0.00,WUHU216HW,2013-07-22 10:52:00,
2013-07-22 06:53:00,76.2,70.3,29.73,NE,45,0.0,0.0,82,0.00,,,0.00,WUHU216HW,2013-07-22 10:53:00,
2013-07-22 06:54:00,76.2,70.3,29.73,NE,45,0.0,0.0,82,0.00,,,0.00,WUHU216HW,2013-07-22 10:54:00,
2013-07-22 06:55:00,76.2,70.3,29.73,NE,45,0.0,0.0,82,0.00,,,0.00,WUHU216HW,2013-07-22 10:55:00,
2013-07-22 06:56:00,72.5,69.7,29.65,SSE,158,0.0,0.0,91,0.00,,,0.03,WUHU216HW,2013-07-22 10:56:00,
2013-07-22 06:57:00,76.2,70.3,29.73,NE,45,0.0,0.0,82,0.00,,,0.00,WUHU216HW,2013-07-22 10:57:00,
2013-07-22 06:58:00,76.2,70.3,29.73,NE,45,0.0,0.0,82,0.00,,,0.00,WUHU216HW,2013-07-22 10:58:00,
2013-07-22 06:59:00,76.2,70.3,29.73,NE,45,0.0,0.0,82,0.00,,,0.00,WUHU216HW,2013-07-22 10:59:00,
2013-07-22 07:00:00,76.2,70.3,29.73,NE,45,0.0,0.0,82,0.00,,,0.00,WUHU216HW,2013-07-22 11:00:00,
2013-07-22 07:01:00,72.5,69.7,29.66,SSE,158,0.0,0.0,91,0.00,,,0.03,WUHU216HW,2013-07-22 11:01:00,
2013-07-22 07:02:00,76.1,70.2,29.73,NE,45,0.0,0.0,82,0.00,,,0.00,WUHU216HW,2013-07-22 11:02:00,
2013-07-22 07:03:00,76.1,70.2,29.73,NE,45,0.0,0.0,82,0.00,,,0.00,WUHU216HW,2013-07-22 11:03:00,
2013-07-22 07:04:00,76.1,70.2,29.73,NE,45,0.0,0.0,82,0.00,,,0.00,WUHU216HW,2013-07-22 11:04:00,
2013-07-22 07:05:00,76.1,70.2,29.73,NE,45,0.0,0.0,82,0.00,,,0.00,WUHU216HW,2013-07-22 11:05:00,
2013-07-22 07:06:00,72.6,69.9,29.65,SSE,158,0.0,0.0,91,0.00,,,0.03,WUHU216HW,2013-07-22 11:06:00,
2013-07-22 07:07:00,76.1,70.2,29.73,NE,45,0.0,0.0,82,0.00,,,0.00,WUHU216HW,2013-07-22 11:07:00,
2013-07-22 07:08:00,76.1,70.2,29.73,NE,45,0.0,0.0,82,0.00,,,0.00,WUHU216HW,2013-07-22 11:08:00,
2013-07-22 07:09:00,76.1,70.2,29.73,NE,45,0.0,0.0,82,0.00,,,0.00,WUHU216HW,2013-07-22 11:09:00,
2013-07-22 07:10:00,76.1,70.2,29.73,NE,45,0.0,0.0,83,0.00,,,0.00,WUHU216HW,2013-07-22 11:10:00,
2013-07-22 07:11:00,72.6,69.9,29.65,SSE,158,0.0,0.0,91,0.00,,,0.03,WUHU216HW,2013-07-22 11:11:00,
2013-07-22 07:12:00,76.1,70.2,29.73,NE,45,0.0,0.0,82,0.00,,,0.00,WUHU216HW,2013-07-22 11:12:00,
2013-07-22 07:13:00,76.1,70.2,29.73,NE,45,0.0,0.0,82,0.00,,,0.00,WUHU216HW,2013-07-22 11:13:00,
2013-07-22 07:14:00,76.1,70.2,29.73,NE,45,0.0,0.0,82,0.00,,,0.00,WUHU216HW,2013-07-22 11:14:00,
2013-07-22 07:15:00,75.9,70.0,29.73,NE,45,0.0,0.0,82,0.00,,,0.00,WUHU216HW,2013-07-22 11:15:00,
2013-07-22 07:16:00,72.6,69.9,29.65,SSE,158,0.0,0.0,91,0.00,,,0.03,WUHU216HW,2013-07-22 11:16:00,
2013-07-22 07:17:00,75.9,70.0,29.73,NE,45,0.0,0.0,83,0.00,,,0.00,WUHU216HW,2013-07-22 11:17:00,
2013-07-22 07:18:00,75.9,70.0,29.73,NE,45,0.0,0.0,83,0.00,,,0.00,WUHU216HW,2013-07-22 11:18:00,
2013-07-22 07:19:00,75.9,70.0,29.73,NE,45,0.0,0.0,83,0.00,,,0.00,WUHU216HW,2013-07-22 11:19:00,
2013-07-22 07:20:00,75.9,70.0,29.73,NE,45,0.0,0.0,83,0.00,,,0.00,WUHU216HW,2013-07-22 11:20:00,
2013-07-22 07:21:00,73.0,70.2,29.65,SSE,158,0.0,0.0,91,0.00,,,0.03,WUHU216HW,2013-07-22 11:21:00,
2013-07-22 07:22:00,75.9,70.0,29.73,NE,45,0.0,0.0,83,0.00,,,0.00,WUHU216HW,2013-07-22 11:22:00,
2013-07-22 07:23:00,75.9,70.0,29.73,NE,45,0.0,0.0,83,0.00,,,0.00,WUHU216HW,2013-07-22 11:23:00,
2013-07-22 07:25:00,75.9,70.0,29.73,NE,45,0.0,0.0,83,0.00,,,0.00,WUHU216HW,2013-07-22 11:25:00,
2013-07-22 07:26:00,73.0,70.2,29.65,SSE,158,0.0,0.0,91,0.00,,,0.03,WUHU216HW,2013-07-22 11:26:00,
2013-07-22 07:27:00,75.7,70.5,29.73,NE,45,0.0,0.0,84,0.00,,,0.00,WUHU216HW,2013-07-22 11:27:00,
2013-07-22 07:28:00,75.7,70.5,29.73,NE,45,0.0,0.0,84,0.00,,,0.00,WUHU216HW,2013-07-22 11:28:00,
2013-07-22 07:30:00,75.7,70.5,29.73,NE,45,0.0,0.0,84,0.00,,,0.00,WUHU216HW,2013-07-22 11:30:00,
2013-07-22 07:31:00,73.0,70.2,29.65,SSE,158,0.0,0.0,91,0.00,,,0.03,WUHU216HW,2013-07-22 11:31:00,
2013-07-22 07:32:00,75.7,70.5,29.72,NE,45,0.0,0.0,84,0.00,,,0.00,WUHU216HW,2013-07-22 11:32:00,
2013-07-22 07:33:00,75.5,70.4,29.73,NE,45,0.0,0.0,84,0.00,,,0.00,WUHU216HW,2013-07-22 11:33:00,
2013-07-22 07:34:00,75.5,70.4,29.73,NE,45,0.0,0.0,84,0.00,,,0.00,WUHU216HW,2013-07-22 11:34:00,
2013-07-22 07:35:00,75.5,70.4,29.73,NE,45,0.0,0.0,84,0.00,,,0.00,WUHU216HW,2013-07-22 11:35:00,
2013-07-22 07:36:00,75.5,70.4,29.72,NE,45,0.0,0.0,84,0.00,,,0.00,WUHU216HW,2013-07-22 11:36:00,
2013-07-22 07:37:00,73.0,70.2,29.65,SSE,158,0.0,0.0,91,0.00,,,0.03,WUHU216HW,2013-07-22 11:37:00,
2013-07-22 07:39:00,75.5,70.4,29.72,NE,45,0.0,0.0,84,0.00,,,0.00,WUHU216HW,2013-07-22 11:39:00,
2013-07-22 07:40:00,75.3,70.2,29.73,NE,45,0.0,0.0,84,0.00,,,0.00,WUHU216HW,2013-07-22 11:40:00,
2013-07-22 07:41:00,75.3,70.2,29.73,NE,45,0.0,0.0,84,0.00,,,0.00,WUHU216HW,2013-07-22 11:41:00,
2013-07-22 07:42:00,73.2,70.4,29.65,SSE,158,0.0,0.0,91,0.00,,,0.03,WUHU216HW,2013-07-22 11:42:00,
2013-07-22 07:43:00,75.3,70.2,29.73,NE,45,0.0,0.0,84,0.00,,,0.00,WUHU216HW,2013-07-22 11:43:00,
2013-07-22 07:44:00,75.3,70.2,29.73,NE,45,0.0,0.0,84,0.00,,,0.00,WUHU216HW,2013-07-22 11:44:00,
2013-07-22 07:45:00,75.3,70.2,29.73,NE,45,0.0,0.0,84,0.00,,,0.00,WUHU216HW,2013-07-22 11:45:00,
2013-07-22 07:46:00,75.3,70.2,29.73,NE,45,0.0,0.0,84,0.00,,,0.00,WUHU216HW,2013-07-22 11:46:00,
2013-07-22 07:47:00,73.4,70.6,29.65,SSE,158,0.0,0.0,91,0.00,,,0.03,WUHU216HW,2013-07-22 11:47:00,
2013-07-22 07:48:00,75.3,70.2,29.73,NE,45,0.0,0.0,84,0.00,,,0.00,WUHU216HW,2013-07-22 11:48:00,
2013-07-22 07:49:00,75.3,70.2,29.73,NE,45,0.0,0.0,84,0.00,,,0.00,WUHU216HW,2013-07-22 11:49:00,
2013-07-22 07:50:00,75.3,70.2,29.73,NE,45,0.0,0.0,84,0.00,,,0.00,WUHU216HW,2013-07-22 11:50:00,
2013-07-22 07:51:00,75.3,70.2,29.73,NE,45,0.0,0.0,84,0.00,,,0.00,WUHU216HW,2013-07-22 11:51:00,
2013-07-22 07:52:00,73.5,71.1,29.65,SSE,158,0.0,0.0,92,0.00,,,0.03,WUHU216HW,2013-07-22 11:52:00,
2013-07-22 07:53:00,75.3,70.2,29.73,NE,45,0.0,0.0,84,0.00,,,0.00,WUHU216HW,2013-07-22 11:53:00,
2013-07-22 07:54:00,75.3,70.2,29.73,NE,45,0.0,0.0,84,0.00,,,0.00,WUHU216HW,2013-07-22 11:54:00,
2013-07-22 07:55:00,75.3,70.2,29.73,NE,45,0.0,0.0,84,0.00,,,0.00,WUHU216HW,2013-07-22 11:55:00,
2013-07-22 07:56:00,75.3,70.2,29.73,NE,45,0.0,0.0,84,0.00,,,0.00,WUHU216HW,2013-07-22 11:56:00,
2013-07-22 07:57:00,73.7,71.3,29.65,SSE,158,0.0,0.0,92,0.00,,,0.03,WUHU216HW,2013-07-22 11:57:00,
2013-07-22 07:58:00,75.3,70.2,29.73,NE,45,0.0,0.0,84,0.00,,,0.00,WUHU216HW,2013-07-22 11:58:00,
2013-07-22 08:00:00,75.2,70.0,29.73,NE,45,0.0,0.0,84,0.00,,,0.00,WUHU216HW,2013-07-22 12:00:00,
2013-07-22 08:01:00,75.2,70.0,29.73,NE,45,0.0,0.0,84,0.00,,,0.00,WUHU216HW,2013-07-22 12:01:00,
2013-07-22 08:02:00,73.9,71.4,29.66,SSE,158,0.0,0.0,91,0.00,,,0.03,WUHU216HW,2013-07-22 12:02:00,
2013-07-22 08:03:00,75.2,70.0,29.73,NE,45,0.0,0.0,84,0.00,,,0.00,WUHU216HW,2013-07-22 12:03:00,
2013-07-22 08:04:00,75.2,70.0,29.73,NE,45,0.0,0.0,84,0.00,,,0.00,WUHU216HW,2013-07-22 12:04:00,
2013-07-22 08:05:00,75.2,70.0,29.73,NE,45,0.0,0.0,84,0.00,,,0.00,WUHU216HW,2013-07-22 12:05:00,
2013-07-22 08:06:00,75.0,69.9,29.73,NE,45,0.0,0.0,84,0.00,,,0.00,WUHU216HW,2013-07-22 12:06:00,
2013-07-22 08:07:00,74.1,71.3,29.66,SSE,158,0.0,0.0,91,0.00,,,0.03,WUHU216HW,2013-07-22 12:07:00,
2013-07-22 08:08:00,75.0,69.9,29.73,NE,45,0.0,0.0,84,0.00,,,0.00,WUHU216HW,2013-07-22 12:08:00,
2013-07-22 08:09:00,75.0,69.9,29.73,NE,45,0.0,0.0,84,0.00,,,0.00,WUHU216HW,2013-07-22 12:09:00,
2013-07-22 08:10:00,75.0,69.9,29.73,NE,45,0.0,0.0,84,0.00,,,0.00,WUHU216HW,2013-07-22 12:10:00,
2013-07-22 08:11:00,75.0,69.9,29.73,NE,45,0.0,0.0,84,0.00,,,0.00,WUHU216HW,2013-07-22 12:11:00,
2013-07-22 08:12:00,74.3,71.5,29.66,SSE,158,0.0,0.0,91,0.00,,,0.03,WUHU216HW,2013-07-22 12:12:00,
2013-07-22 08:13:00,75.0,69.9,29.73,NE,45,0.0,0.0,85,0.00,,,0.00,WUHU216HW,2013-07-22 12:13:00,
2013-07-22 08:14:00,75.0,69.9,29.73,NE,45,0.0,0.0,85,0.00,,,0.00,WUHU216HW,2013-07-22 12:14:00,
2013-07-22 08:15:00,75.0,69.9,29.73,NE,45,0.0,0.0,85,0.00,,,0.00,WUHU216HW,2013-07-22 12:15:00,
2013-07-22 08:16:00,75.0,69.9,29.73,NE,45,0.0,0.0,85,0.00,,,0.00,WUHU216HW,2013-07-22 12:16:00,
2013-07-22 08:17:00,74.3,71.5,29.66,SE,135,0.0,0.0,91,0.00,,,0.03,WUHU216HW,2013-07-22 12:17:00,
2013-07-22 08:18:00,75.0,69.9,29.73,NE,45,0.0,0.0,85,0.00,,,0.00,WUHU216HW,2013-07-22 12:18:00,
2013-07-22 08:19:00,75.0,69.9,29.72,NE,45,0.0,0.0,85,0.00,,,0.00,WUHU216HW,2013-07-22 12:19:00,
2013-07-22 08:20:00,75.0,69.9,29.73,NE,45,0.0,0.0,85,0.00,,,0.00,WUHU216HW,2013-07-22 12:20:00,
2013-07-22 08:21:00,75.0,69.9,29.73,NE,45,0.0,0.0,85,0.00,,,0.00,WUHU216HW,2013-07-22 12:21:00,
2013-07-22 08:22:00,74.1,71.3,29.66,SE,135,0.0,0.0,91,0.00,,,0.03,WUHU216HW,2013-07-22 12:22:00,
2013-07-22 08:23:00,75.0,69.9,29.73,NE,45,0.0,0.0,85,0.00,,,0.00,WUHU216HW,2013-07-22 12:23:00,
2013-07-22 08:24:00,75.0,69.9,29.72,NE,45,0.0,0.0,85,0.00,,,0.00,WUHU216HW,2013-07-22 12:24:00,
2013-07-22 08:25:00,75.0,69.9,29.72,NE,45,0.0,0.0,85,0.00,,,0.00,WUHU216HW,2013-07-22 12:25:00,
2013-07-22 08:26:00,75.0,69.9,29.73,NE,45,0.0,0.0,85,0.00,,,0.00,WUHU216HW,2013-07-22 12:26:00,
2013-07-22 08:27:00,74.1,71.3,29.66,SE,135,0.0,0.0,91,0.00,,,0.03,WUHU216HW,2013-07-22 12:27:00,
2013-07-22 08:28:00,74.8,70.0,29.72,NE,45,0.0,0.0,85,0.00,,,0.00,WUHU216HW,2013-07-22 12:28:00,
2013-07-22 08:29:00,74.8,70.0,29.72,NE,45,0.0,0.0,85,0.00,,,0.00,WUHU216HW,2013-07-22 12:29:00,
2013-07-22 08:30:00,74.8,70.0,29.72,NE,45,0.0,0.0,85,0.00,,,0.00,WUHU216HW,2013-07-22 12:30:00,
2013-07-22 08:31:00,74.8,70.0,29.73,NE,45,0.0,0.0,85,0.00,,,0.00,WUHU216HW,2013-07-22 12:31:00,
2013-07-22 08:32:00,74.1,71.3,29.66,SE,135,0.0,0.0,91,0.00,,,0.03,WUHU216HW,2013-07-22 12:32:00,
2013-07-22 08:33:00,74.8,70.0,29.72,NE,45,0.0,0.0,85,0.00,,,0.00,WUHU216HW,2013-07-22 12:33:00,
2013-07-22 08:34:00,74.8,70.0,29.72,NE,45,0.0,0.0,85,0.00,,,0.00,WUHU216HW,2013-07-22 12:34:00,
2013-07-22 08:35:00,74.8,70.0,29.72,NE,45,0.0,0.0,85,0.00,,,0.00,WUHU216HW,2013-07-22 12:35:00,
2013-07-22 08:36:00,74.8,70.0,29.72,NE,45,0.0,0.0,85,0.00,,,0.00,WUHU216HW,2013-07-22 12:36:00,
2013-07-22 08:37:00,74.1,71.0,29.66,SE,135,0.0,0.0,90,0.00,,,0.03,WUHU216HW,2013-07-22 12:37:00,
2013-07-22 08:38:00,74.8,70.0,29.72,NE,45,0.0,0.0,85,0.00,,,0.00,WUHU216HW,2013-07-22 12:38:00,
2013-07-22 08:39:00,74.8,70.0,29.72,NE,45,0.0,0.0,85,0.00,,,0.00,WUHU216HW,2013-07-22 12:39:00,
2013-07-22 08:40:00,74.8,70.0,29.72,NE,45,0.0,0.0,85,0.00,,,0.00,WUHU216HW,2013-07-22 12:40:00,
2013-07-22 08:41:00,74.8,70.0,29.72,NE,45,0.0,0.0,85,0.00,,,0.00,WUHU216HW,2013-07-22 12:41:00,
2013-07-22 08:42:00,74.1,71.0,29.66,SE,135,0.0,0.0,90,0.00,,,0.03,WUHU216HW,2013-07-22 12:42:00,
2013-07-22 08:43:00,74.8,70.0,29.73,NE,45,0.0,0.0,85,0.00,,,0.00,WUHU216HW,2013-07-22 12:43:00,
2013-07-22 08:44:00,74.8,70.0,29.72,NE,45,0.0,0.0,85,0.00,,,0.00,WUHU216HW,2013-07-22 12:44:00,
2013-07-22 08:45:00,74.8,70.0,29.72,NE,45,0.0,0.0,85,0.00,,,0.00,WUHU216HW,2013-07-22 12:45:00,
2013-07-22 08:47:00,74.1,71.0,29.66,SE,135,0.0,0.0,90,0.00,,,0.03,WUHU216HW,2013-07-22 12:47:00,
2013-07-22 08:48:00,74.8,70.0,29.72,NE,45,0.0,0.0,86,0.00,,,0.00,WUHU216HW,2013-07-22 12:48:00,
2013-07-22 08:49:00,75.0,70.5,29.72,NE,45,0.0,0.0,86,0.00,,,0.00,WUHU216HW,2013-07-22 12:49:00,
2013-07-22 08:50:00,75.0,70.5,29.72,NE,45,0.0,0.0,86,0.00,,,0.00,WUHU216HW,2013-07-22 12:50:00,
2013-07-22 08:51:00,75.0,70.5,29.72,NE,45,0.0,0.0,86,0.00,,,0.00,WUHU216HW,2013-07-22 12:51:00,
2013-07-22 08:52:00,74.4,71.7,29.66,SE,135,0.0,0.0,91,0.00,,,0.03,WUHU216HW,2013-07-22 12:52:00,
2013-07-22 08:54:00,75.0,70.5,29.72,NE,45,0.0,0.0,86,0.00,,,0.00,WUHU216HW,2013-07-22 12:54:00,
2013-07-22 08:55:00,75.0,70.5,29.72,NE,45,0.0,0.0,86,0.00,,,0.00,WUHU216HW,2013-07-22 12:55:00,
2013-07-22 08:56:00,75.3,70.9,29.72,NE,45,0.0,0.0,86,0.00,,,0.00,WUHU216HW,2013-07-22 12:56:00,
2013-07-22 08:57:00,74.6,71.6,29.67,SE,135,0.0,0.0,90,0.00,,,0.03,WUHU216HW,2013-07-22 12:57:00,
2013-07-22 08:58:00,75.3,70.9,29.72,NE,45,0.0,0.0,86,0.00,,,0.00,WUHU216HW,2013-07-22 12:58:00,
2013-07-22 08:59:00,75.3,70.9,29.73,NE,45,0.0,0.0,86,0.00,,,0.00,WUHU216HW,2013-07-22 12:59:00,
2013-07-22 09:00:00,75.3,70.9,29.72,NE,45,0.0,0.0,87,0.00,,,0.00,WUHU216HW,2013-07-22 13:00:00,
2013-07-22 09:01:00,75.3,70.9,29.72,NE,45,0.0,0.0,87,0.00,,,0.00,WUHU216HW,2013-07-22 13:01:00,
2013-07-22 09:02:00,74.8,71.7,29.67,SE,135,0.0,0.0,90,0.00,,,0.03,WUHU216HW,2013-07-22 13:02:00,
2013-07-22 09:03:00,75.3,70.9,29.73,NE,45,0.0,0.0,87,0.00,,,0.00,WUHU216HW,2013-07-22 13:03:00,
2013-07-22 09:04:00,75.3,70.9,29.72,NE,45,0.0,0.0,86,0.00,,,0.00,WUHU216HW,2013-07-22 13:04:00,
2013-07-22 09:05:00,75.3,70.9,29.72,NE,45,0.0,0.0,86,0.00,,,0.00,WUHU216HW,2013-07-22 13:05:00,
2013-07-22 09:06:00,75.5,71.1,29.73,NE,45,0.0,0.0,86,0.00,,,0.00,WUHU216HW,2013-07-22 13:06:00,
2013-07-22 09:07:00,75.3,72.3,29.67,SE,135,0.0,0.0,90,0.00,,,0.03,WUHU216HW,2013-07-22 13:07:00,
2013-07-22 09:08:00,75.5,71.1,29.73,NE,45,0.0,0.0,86,0.00,,,0.00,WUHU216HW,2013-07-22 13:08:00,
2013-07-22 09:09:00,75.5,71.1,29.73,NE,45,0.0,0.0,86,0.00,,,0.00,WUHU216HW,2013-07-22 13:09:00,
2013-07-22 09:10:00,75.5,71.1,29.73,NE,45,0.0,0.0,87,0.00,,,0.00,WUHU216HW,2013-07-22 13:10:00,
2013-07-22 09:11:00,75.5,71.1,29.73,NE,45,0.0,0.0,87,0.00,,,0.00,WUHU216HW,2013-07-22 13:11:00,
2013-07-22 09:12:00,75.5,72.5,29.67,SE,135,0.0,0.0,90,0.00,,,0.03,WUHU216HW,2013-07-22 13:12:00,
2013-07-22 09:13:00,75.5,71.1,29.73,NE,45,0.0,0.0,87,0.00,,,0.00,WUHU216HW,2013-07-22 13:13:00,
2013-07-22 09:14:00,75.5,71.1,29.73,NE,45,0.0,0.0,87,0.00,,,0.00,WUHU216HW,2013-07-22 13:14:00,
2013-07-22 09:15:00,75.5,71.1,29.73,NE,45,0.0,0.0,87,0.00,,,0.00,WUHU216HW,2013-07-22 13:15:00,
2013-07-22 09:16:00,75.5,71.1,29.73,NE,45,0.0,0.0,87,0.00,,,0.00,WUHU216HW,2013-07-22 13:16:00,
2013-07-22 09:17:00,75.7,72.6,29.66,SE,135,0.0,0.0,90,0.00,,,0.03,WUHU216HW,2013-07-22 13:17:00,
2013-07-22 09:18:00,75.5,71.1,29.73,NE,45,0.0,0.0,87,0.00,,,0.00,WUHU216HW,2013-07-22 13:18:00,
2013-07-22 09:19:00,75.5,71.1,29.73,NE,45,0.0,0.0,87,0.00,,,0.00,WUHU216HW,2013-07-22 13:19:00,
2013-07-22 09:20:00,75.5,71.1,29.73,NE,45,0.0,0.0,87,0.00,,,0.00,WUHU216HW,2013-07-22 13:20:00,
2013-07-22 09:21:00,75.5,71.1,29.73,NE,45,0.0,0.0,87,0.00,,,0.00,WUHU216HW,2013-07-22 13:21:00,
2013-07-22 09:22:00,75.9,72.8,29.66,SE,135,0.0,0.0,90,0.00,,,0.03,WUHU216HW,2013-07-22 13:22:00,
2013-07-22 09:24:00,75.5,71.1,29.73,NE,45,0.0,0.0,87,0.00,,,0.00,WUHU216HW,2013-07-22 13:24:00,
2013-07-22 09:25:00,75.5,71.1,29.73,NE,45,0.0,0.0,87,0.00,,,0.00,WUHU216HW,2013-07-22 13:25:00,
2013-07-22 09:26:00,75.7,71.6,29.73,NE,45,0.0,0.0,87,0.00,,,0.00,WUHU216HW,2013-07-22 13:26:00,
2013-07-22 09:27:00,75.9,72.8,29.67,SE,135,0.0,0.0,90,0.00,,,0.03,WUHU216HW,2013-07-22 13:27:00,
2013-07-22 09:28:00,75.7,71.6,29.73,NE,45,0.0,0.0,87,0.00,,,0.00,WUHU216HW,2013-07-22 13:28:00,
2013-07-22 09:29:00,75.7,71.6,29.73,NE,45,0.0,0.0,87,0.00,,,0.00,WUHU216HW,2013-07-22 13:29:00,
2013-07-22 09:30:00,75.7,71.6,29.73,NE,45,0.0,0.0,87,0.00,,,0.00,WUHU216HW,2013-07-22 13:30:00,
2013-07-22 09:32:00,75.7,72.6,29.67,SE,135,0.0,0.0,89,0.00,,,0.03,WUHU216HW,2013-07-22 13:32:00,
2013-07-22 09:33:00,75.7,71.6,29.73,NE,45,0.0,0.0,87,0.00,,,0.00,WUHU216HW,2013-07-22 13:33:00,
2013-07-22 09:34:00,75.7,71.6,29.73,NE,45,0.0,0.0,87,0.00,,,0.00,WUHU216HW,2013-07-22 13:34:00,
2013-07-22 09:35:00,75.7,71.6,29.73,NE,45,0.0,0.0,87,0.00,,,0.00,WUHU216HW,2013-07-22 13:35:00,
2013-07-22 09:36:00,75.7,71.6,29.73,NE,45,0.0,0.0,87,0.00,,,0.00,WUHU216HW,2013-07-22 13:36:00,
2013-07-22 09:37:00,75.9,72.5,29.66,SE,135,0.0,0.0,89,0.00,,,0.03,WUHU216HW,2013-07-22 13:37:00,
2013-07-22 09:39:00,75.7,71.6,29.73,NE,45,0.0,0.0,87,0.00,,,0.00,WUHU216HW,2013-07-22 13:39:00,
2013-07-22 09:40:00,75.7,71.6,29.73,NE,45,0.0,0.0,87,0.00,,,0.00,WUHU216HW,2013-07-22 13:40:00,
2013-07-22 09:41:00,75.7,71.6,29.73,NE,45,0.0,0.0,87,0.00,,,0.00,WUHU216HW,2013-07-22 13:41:00,
2013-07-22 09:42:00,76.2,72.8,29.66,SE,135,0.0,0.0,89,0.00,,,0.03,WUHU216HW,2013-07-22 13:42:00,
2013-07-22 09:43:00,75.7,71.6,29.73,NE,45,0.0,0.0,87,0.00,,,0.00,WUHU216HW,2013-07-22 13:43:00,
2013-07-22 09:44:00,75.7,71.6,29.73,NE,45,0.0,0.0,87,0.00,,,0.00,WUHU216HW,2013-07-22 13:44:00,
2013-07-22 09:45:00,75.7,71.6,29.73,NE,45,0.0,0.0,87,0.00,,,0.00,WUHU216HW,2013-07-22 13:45:00,
2013-07-22 09:47:00,76.8,73.4,29.66,SE,135,0.0,0.0,89,0.00,,,0.03,WUHU216HW,2013-07-22 13:47:00,
2013-07-22 09:48:00,75.7,71.6,29.73,NE,45,0.0,0.0,87,0.00,,,0.00,WUHU216HW,2013-07-22 13:48:00,
2013-07-22 09:49:00,75.7,71.6,29.73,NE,45,0.0,0.0,87,0.00,,,0.00,WUHU216HW,2013-07-22 13:49:00,
2013-07-22 09:51:00,75.7,71.6,29.72,NE,45,0.0,0.0,87,0.00,,,0.00,WUHU216HW,2013-07-22 13:51:00,
2013-07-22 09:52:00,77.0,72.8,29.66,SE,135,0.0,0.0,87,0.00,,,0.03,WUHU216HW,2013-07-22 13:52:00,
2013-07-22 09:53:00,75.7,71.6,29.72,NE,45,0.0,0.0,87,0.00,,,0.00,WUHU216HW,2013-07-22 13:53:00,
2013-07-22 09:54:00,75.7,71.6,29.72,NE,45,0.0,0.0,87,0.00,,,0.00,WUHU216HW,2013-07-22 13:54:00,
2013-07-22 09:55:00,75.7,71.6,29.73,NE,45,0.0,0.0,87,0.00,,,0.00,WUHU216HW,2013-07-22 13:55:00,
2013-07-22 09:56:00,75.7,71.6,29.73,NE,45,0.0,0.0,88,0.00,,,0.00,WUHU216HW,2013-07-22 13:56:00,
2013-07-22 09:57:00,77.7,73.5,29.66,SE,135,0.0,0.0,87,0.00,,,0.03,WUHU216HW,2013-07-22 13:57:00,
2013-07-22 09:58:00,75.7,71.6,29.72,NE,45,0.0,0.0,88,0.00,,,0.00,WUHU216HW,2013-07-22 13:58:00,
2013-07-22 09:59:00,75.7,71.6,29.72,NE,45,0.0,0.0,88,0.00,,,0.00,WUHU216HW,2013-07-22 13:59:00,
2013-07-22 10:00:00,75.7,71.6,29.72,NE,45,0.0,0.0,88,0.00,,,0.00,WUHU216HW,2013-07-22 14:00:00,
2013-07-22 10:01:00,75.7,71.6,29.72,NE,45,0.0,0.0,88,0.00,,,0.00,WUHU216HW,2013-07-22 14:01:00,
2013-07-22 10:02:00,75.7,71.6,29.72,NE,45,0.0,0.0,88,0.00,,,0.00,WUHU216HW,2013-07-22 14:02:00,
2013-07-22 10:03:00,77.9,73.4,29.66,SE,135,0.0,0.0,86,0.00,,,0.03,WUHU216HW,2013-07-22 14:03:00,
2013-07-22 10:04:00,75.7,71.6,29.72,NE,45,0.0,0.0,88,0.00,,,0.00,WUHU216HW,2013-07-22 14:04:00,
2013-07-22 10:05:00,75.7,71.6,29.72,NE,45,0.0,0.0,88,0.00,,,0.00,WUHU216HW,2013-07-22 14:05:00,
2013-07-22 10:06:00,75.7,71.6,29.72,NE,45,0.0,0.0,88,0.00,,,0.00,WUHU216HW,2013-07-22 14:06:00,
2013-07-22 10:08:00,78.2,73.7,29.66,SE,135,0.0,0.0,86,0.00,,,0.03,WUHU216HW,2013-07-22 14:08:00,
2013-07-22 10:09:00,75.7,71.6,29.72,NE,45,0.0,0.0,88,0.00,,,0.00,WUHU216HW,2013-07-22 14:09:00,
2013-07-22 10:10:00,75.5,71.8,29.72,NE,45,0.0,0.0,88,0.00,,,0.00,WUHU216HW,2013-07-22 14:10:00,
2013-07-22 10:11:00,75.5,71.8,29.72,NE,45,0.0,0.0,88,0.00,,,0.00,WUHU216HW,2013-07-22 14:11:00,
2013-07-22 10:13:00,78.4,73.9,29.66,SE,135,0.0,0.0,86,0.00,,,0.03,WUHU216HW,2013-07-22 14:13:00,
2013-07-22 10:14:00,75.5,71.8,29.73,NE,45,0.0,0.0,88,0.00,,,0.00,WUHU216HW,2013-07-22 14:14:00,
2013-07-22 10:15:00,75.5,71.8,29.73,NE,45,0.0,0.0,88,0.00,,,0.00,WUHU216HW,2013-07-22 14:15:00,
2013-07-22 10:16:00,75.5,71.8,29.72,ESE,113,0.0,0.0,88,0.00,,,0.00,WUHU216HW,2013-07-22 14:16:00,
2013-07-22 10:18:00,78.4,73.9,29.66,SE,135,0.0,0.0,85,0.00,,,0.03,WUHU216HW,2013-07-22 14:18:00,
2013-07-22 10:19:00,75.5,71.8,29.72,ESE,113,0.0,0.0,88,0.00,,,0.00,WUHU216HW,2013-07-22 14:19:00,
2013-07-22 10:20:00,75.5,71.8,29.72,ESE,113,0.0,0.0,88,0.00,,,0.00,WUHU216HW,2013-07-22 14:20:00,
2013-07-22 10:22:00,75.5,71.8,29.72,ESE,113,0.0,0.0,88,0.00,,,0.00,WUHU216HW,2013-07-22 14:22:00,
2013-07-22 10:23:00,78.6,73.7,29.66,SE,135,0.0,0.0,85,0.00,,,0.03,WUHU216HW,2013-07-22 14:23:00,
2013-07-22 10:24:00,75.5,71.8,29.72,ESE,113,0.0,0.0,88,0.00,,,0.00,WUHU216HW,2013-07-22 14:24:00,
2013-07-22 10:25:00,75.5,71.8,29.72,ESE,113,0.0,0.0,88,0.00,,,0.00,WUHU216HW,2013-07-22 14:25:00,
2013-07-22 10:26:00,75.5,71.8,29.72,ESE,113,0.0,0.0,88,0.00,,,0.00,WUHU216HW,2013-07-22 14:26:00,
2013-07-22 10:27:00,75.5,71.8,29.72,ESE,113,0.0,0.0,88,0.00,,,0.00,WUHU216HW,2013-07-22 14:27:00,
2013-07-22 10:28:00,78.6,73.7,29.66,SE,135,0.0,0.0,84,0.00,,,0.03,WUHU216HW,2013-07-22 14:28:00,
2013-07-22 10:29:00,75.3,71.6,29.72,ESE,113,0.0,0.0,88,0.00,,,0.00,WUHU216HW,2013-07-22 14:29:00,
2013-07-22 10:30:00,75.3,71.6,29.72,ESE,113,0.0,0.0,88,0.00,,,0.00,WUHU216HW,2013-07-22 14:30:00,
2013-07-22 10:31:00,75.3,71.6,29.72,ESE,113,0.0,0.0,88,0.00,,,0.00,WUHU216HW,2013-07-22 14:31:00,
2013-07-22 10:32:00,75.3,71.6,29.72,ESE,113,0.0,0.0,88,0.00,,,0.00,WUHU216HW,2013-07-22 14:32:00,
2013-07-22 10:33:00,79.1,73.9,29.66,SE,135,0.0,0.0,84,0.00,,,0.03,WUHU216HW,2013-07-22 14:33:00,
2013-07-22 10:34:00,75.3,71.6,29.72,ESE,113,0.0,0.0,88,0.00,,,0.00,WUHU216HW,2013-07-22 14:34:00,
2013-07-22 10:35:00,75.3,71.6,29.72,ESE,113,0.0,0.0,88,0.00,,,0.00,WUHU216HW,2013-07-22 14:35:00,
2013-07-22 10:36:00,75.3,71.6,29.72,ESE,113,0.0,0.0,88,0.00,,,0.00,WUHU216HW,2013-07-22 14:36:00,
2013-07-22 10:37:00,75.3,71.6,29.72,ESE,113,0.0,0.0,88,0.00,,,0.00,WUHU216HW,2013-07-22 14:37:00,
2013-07-22 10:38:00,79.3,74.1,29.66,SE,135,0.0,0.0,84,0.00,,,0.03,WUHU216HW,2013-07-22 14:38:00,
2013-07-22 10:39:00,75.3,71.6,29.72,ESE,113,0.0,0.0,88,0.00,,,0.00,WUHU216HW,2013-07-22 14:39:00,
2013-07-22 10:40:00,75.3,71.6,29.72,ESE,113,0.0,0.0,88,0.00,,,0.00,WUHU216HW,2013-07-22 14:40:00,
2013-07-22 10:41:00,75.3,71.6,29.72,ESE,113,0.0,0.0,88,0.00,,,0.00,WUHU216HW,2013-07-22 14:41:00,
2013-07-22 10:42:00,75.3,71.6,29.72,ESE,113,0.0,0.0,88,0.00,,,0.00,WUHU216HW,2013-07-22 14:42:00,
2013-07-22 10:43:00,79.3,74.1,29.66,SE,135,0.0,0.0,84,0.00,,,0.03,WUHU216HW,2013-07-22 14:43:00,
2013-07-22 10:44:00,75.3,71.6,29.72,ESE,113,0.0,0.0,88,0.00,,,0.00,WUHU216HW,2013-07-22 14:44:00,
2013-07-22 10:45:00,75.3,71.6,29.72,ESE,113,0.0,0.0,88,0.00,,,0.00,WUHU216HW,2013-07-22 14:45:00,
2013-07-22 10:46:00,75.3,71.6,29.72,ESE,113,0.0,0.0,88,0.00,,,0.00,WUHU216HW,2013-07-22 14:46:00,
2013-07-22 10:47:00,75.2,71.4,29.72,ESE,113,0.0,0.0,88,0.00,,,0.00,WUHU216HW,2013-07-22 14:47:00,
2013-07-22 10:48:00,79.5,74.2,29.66,SE,135,0.0,0.0,83,0.00,,,0.03,WUHU216HW,2013-07-22 14:48:00,
2013-07-22 10:50:00,75.0,71.2,29.72,ESE,113,0.0,0.0,88,0.00,,,0.00,WUHU216HW,2013-07-22 14:50:00,
2013-07-22 10:52:00,75.0,71.2,29.72,ESE,113,0.0,0.0,88,0.00,,,0.00,WUHU216HW,2013-07-22 14:52:00,
2013-07-22 10:53:00,75.0,71.2,29.72,ESE,113,0.0,0.0,88,0.00,,,0.00,WUHU216HW,2013-07-22 14:53:00,
2013-07-22 10:54:00,79.7,74.0,29.66,SSE,158,0.0,0.0,84,0.00,,,0.03,WUHU216HW,2013-07-22 14:54:00,
2013-07-22 10:55:00,75.0,71.2,29.72,ESE,113,0.0,0.0,88,0.00,,,0.00,WUHU216HW,2013-07-22 14:55:00,
2013-07-22 10:56:00,75.0,71.2,29.72,ESE,113,0.0,0.0,88,0.00,,,0.00,WUHU216HW,2013-07-22 14:56:00,
2013-07-22 10:57:00,75.0,71.2,29.72,ESE,113,0.0,0.0,88,0.00,,,0.00,WUHU216HW,2013-07-22 14:57:00,
2013-07-22 10:58:00,75.0,71.2,29.72,ESE,113,0.0,0.0,88,0.00,,,0.00,WUHU216HW,2013-07-22 14:58:00,
2013-07-22 10:59:00,79.7,74.0,29.66,SSE,158,0.0,0.0,83,0.00,,,0.03,WUHU216HW,2013-07-22 14:59:00,
2013-07-22 11:00:00,75.0,71.2,29.72,ESE,113,0.0,0.0,88,0.00,,,0.00,WUHU216HW,2013-07-22 15:00:00,
2013-07-22 11:02:00,75.0,71.2,29.72,ESE,113,0.0,0.0,88,0.00,,,0.00,WUHU216HW,2013-07-22 15:02:00,
2013-07-22 11:03:00,74.8,71.0,29.72,ESE,113,0.0,0.0,88,0.00,,,0.00,WUHU216HW,2013-07-22 15:03:00,
2013-07-22 11:04:00,79.7,74.0,29.66,SSE,158,0.0,0.0,84,0.00,,,0.03,WUHU216HW,2013-07-22 15:04:00,
2013-07-22 11:05:00,75.0,71.2,29.72,ESE,113,0.0,0.0,88,0.00,,,0.00,WUHU216HW,2013-07-22 15:05:00,
2013-07-22 11:06:00,75.0,71.2,29.72,ESE,113,0.0,0.0,88,0.00,,,0.00,WUHU216HW,2013-07-22 15:06:00,
2013-07-22 11:08:00,74.8,71.0,29.72,ESE,113,0.0,0.0,88,0.00,,,0.00,WUHU216HW,2013-07-22 15:08:00,
2013-07-22 11:09:00,79.5,73.9,29.66,SSE,158,0.0,0.0,83,0.00,,,0.03,WUHU216HW,2013-07-22 15:09:00,
2013-07-22 11:12:00,74.8,71.0,29.71,ESE,113,0.0,0.0,89,0.00,,,0.00,WUHU216HW,2013-07-22 15:12:00,
2013-07-22 11:13:00,74.8,71.0,29.71,ESE,113,0.0,0.0,89,0.00,,,0.00,WUHU216HW,2013-07-22 15:13:00,
2013-07-22 11:14:00,79.5,73.9,29.66,SSE,158,0.0,0.0,84,0.00,,,0.03,WUHU216HW,2013-07-22 15:14:00,
2013-07-22 11:15:00,74.8,71.0,29.72,ESE,113,0.0,0.0,89,0.00,,,0.00,WUHU216HW,2013-07-22 15:15:00,
2013-07-22 11:17:00,74.8,71.0,29.72,ESE,113,0.0,0.0,89,0.00,,,0.00,WUHU216HW,2013-07-22 15:17:00,
2013-07-22 11:18:00,74.8,71.0,29.71,ESE,113,0.0,0.0,89,0.00,,,0.00,WUHU216HW,2013-07-22 15:18:00,
2013-07-22 11:19:00,79.8,74.6,29.66,SE,135,0.0,0.0,84,0.00,,,0.03,WUHU216HW,2013-07-22 15:19:00,
2013-07-22 11:20:00,74.8,71.0,29.72,ESE,113,0.0,0.0,89,0.00,,,0.00,WUHU216HW,2013-07-22 15:20:00,
2013-07-22 11:22:00,74.8,71.0,29.71,ESE,113,0.0,0.0,89,0.00,,,0.00,WUHU216HW,2013-07-22 15:22:00,
2013-07-22 11:23:00,74.8,71.0,29.71,ESE,113,0.0,0.0,89,0.00,,,0.00,WUHU216HW,2013-07-22 15:23:00,
2013-07-22 11:24:00,80.7,75.1,29.66,South,180,0.0,0.0,83,0.00,,,0.03,WUHU216HW,2013-07-22 15:24:00,
2013-07-22 11:25:00,74.8,71.0,29.71,ESE,113,0.0,0.0,89,0.00,,,0.00,WUHU216HW,2013-07-22 15:25:00,
2013-07-22 11:26:00,74.8,71.0,29.71,ESE,113,0.0,0.0,89,0.00,,,0.00,WUHU216HW,2013-07-22 15:26:00,
2013-07-22 11:27:00,74.8,71.0,29.71,ESE,113,0.0,0.0,89,0.00,,,0.00,WUHU216HW,2013-07-22 15:27:00,
2013-07-22 11:29:00,82.0,75.3,29.66,SSE,158,0.0,0.0,80,0.00,,,0.03,WUHU216HW,2013-07-22 15:29:00,
2013-07-22 11:30:00,74.6,71.2,29.71,ESE,113,0.0,0.0,89,0.00,,,0.00,WUHU216HW,2013-07-22 15:30:00,
2013-07-22 11:33:00,74.6,71.2,29.71,ESE,113,0.0,0.0,89,0.00,,,0.00,WUHU216HW,2013-07-22 15:33:00,
2013-07-22 11:34:00,82.2,75.5,29.66,ENE,68,0.0,0.0,78,0.00,,,0.03,WUHU216HW,2013-07-22 15:34:00,
2013-07-22 11:35:00,74.6,71.2,29.71,ESE,113,0.0,0.0,89,0.00,,,0.00,WUHU216HW,2013-07-22 15:35:00,
2013-07-22 11:36:00,74.6,71.2,29.71,ESE,113,0.0,0.0,89,0.00,,,0.00,WUHU216HW,2013-07-22 15:36:00,
2013-07-22 11:37:00,74.6,71.2,29.71,ESE,113,0.0,0.0,89,0.00,,,0.00,WUHU216HW,2013-07-22 15:37:00,
2013-07-22 11:38:00,74.6,71.2,29.71,ESE,113,0.0,0.0,89,0.00,,,0.00,WUHU216HW,2013-07-22 15:38:00,
2013-07-22 11:39:00,82.5,75.0,29.66,SSE,158,0.0,0.0,78,0.00,,,0.03,WUHU216HW,2013-07-22 15:39:00,
2013-07-22 11:40:00,74.6,71.2,29.71,ESE,113,0.0,0.0,89,0.00,,,0.00,WUHU216HW,2013-07-22 15:40:00,
2013-07-22 11:41:00,74.4,71.0,29.71,ESE,113,0.0,0.0,89,0.00,,,0.00,WUHU216HW,2013-07-22 15:41:00,
2013-07-22 11:42:00,74.4,71.0,29.71,ESE,113,0.0,0.0,89,0.00,,,0.00,WUHU216HW,2013-07-22 15:42:00,
2013-07-22 11:43:00,74.4,71.0,29.71,ESE,113,0.0,0.0,89,0.00,,,0.00,WUHU216HW,2013-07-22 15:43:00,
2013-07-22 11:44:00,82.2,75.1,29.66,ESE,113,0.0,0.0,79,0.00,,,0.03,WUHU216HW,2013-07-22 15:44:00,
2013-07-22 11:45:00,74.4,71.0,29.70,ESE,113,0.0,0.0,89,0.00,,,0.00,WUHU216HW,2013-07-22 15:45:00,
2013-07-22 11:46:00,74.4,71.0,29.70,ESE,113,0.0,0.0,89,0.00,,,0.00,WUHU216HW,2013-07-22 15:46:00,
2013-07-22 11:48:00,74.4,71.0,29.70,ESE,113,0.0,0.0,89,0.00,,,0.00,WUHU216HW,2013-07-22 15:48:00,
2013-07-22 11:49:00,82.2,75.1,29.66,SE,135,0.0,0.0,80,0.00,,,0.03,WUHU216HW,2013-07-22 15:49:00,
2013-07-22 11:50:00,74.4,71.0,29.70,ESE,113,0.0,0.0,89,0.00,,,0.00,WUHU216HW,2013-07-22 15:50:00,
2013-07-22 11:54:00,81.5,74.8,29.66,SE,135,0.0,0.0,80,0.00,,,0.03,WUHU216HW,2013-07-22 15:54:00,
2013-07-22 11:59:00,81.1,74.4,29.66,SE,135,0.0,0.0,80,0.00,,,0.03,WUHU216HW,2013-07-22 15:59:00,
2013-07-22 12:03:00,74.4,71.0,29.70,ESE,113,0.0,0.0,89,0.00,,,0.00,WUHU216HW,2013-07-22 16:03:00,
2013-07-22 12:04:00,80.9,74.3,29.66,SE,135,0.0,0.0,81,0.00,,,0.03,WUHU216HW,2013-07-22 16:04:00,
2013-07-22 12:05:00,74.3,70.9,29.70,ESE,113,0.0,0.0,89,0.00,,,0.00,WUHU216HW,2013-07-22 16:05:00,
2013-07-22 12:06:00,74.3,70.9,29.70,ESE,113,0.0,0.0,89,0.00,,,0.00,WUHU216HW,2013-07-22 16:06:00,
2013-07-22 12:07:00,74.3,70.9,29.70,ESE,113,0.0,0.0,89,0.00,,,0.00,WUHU216HW,2013-07-22 16:07:00,
2013-07-22 12:08:00,74.3,70.9,29.70,ESE,113,0.0,0.0,89,0.00,,,0.00,WUHU216HW,2013-07-22 16:08:00,
2013-07-22 12:09:00,81.8,75.5,29.66,SE,135,0.0,0.0,81,0.00,,,0.03,WUHU216HW,2013-07-22 16:09:00,
2013-07-22 12:10:00,74.3,70.9,29.70,ESE,113,0.0,0.0,89,0.00,,,0.00,WUHU216HW,2013-07-22 16:10:00,
2013-07-22 12:12:00,74.3,70.9,29.70,ESE,113,0.0,0.0,89,0.00,,,0.00,WUHU216HW,2013-07-22 16:12:00,
2013-07-22 12:13:00,74.3,70.9,29.71,ESE,113,0.0,0.0,89,0.00,,,0.00,WUHU216HW,2013-07-22 16:13:00,
2013-07-22 12:14:00,81.8,75.2,29.66,SE,135,0.0,0.0,80,0.00,,,0.03,WUHU216HW,2013-07-22 16:14:00,
2013-07-22 12:15:00,74.3,70.9,29.71,ESE,113,0.0,0.0,89,0.00,,,0.00,WUHU216HW,2013-07-22 16:15:00,
2013-07-22 12:16:00,74.3,70.9,29.71,ESE,113,0.0,0.0,89,0.00,,,0.00,WUHU216HW,2013-07-22 16:16:00,
2013-07-22 12:17:00,74.3,70.9,29.71,ESE,113,0.0,0.0,89,0.00,,,0.00,WUHU216HW,2013-07-22 16:17:00,
2013-07-22 12:18:00,74.3,70.9,29.71,ESE,113,0.0,0.0,89,0.00,,,0.00,WUHU216HW,2013-07-22 16:18:00,
2013-07-22 12:19:00,82.0,75.7,29.66,SE,135,0.0,0.0,80,0.00,,,0.03,WUHU216HW,2013-07-22 16:19:00,
2013-07-22 12:20:00,74.1,70.7,29.70,ESE,113,0.0,0.0,89,0.00,,,0.00,WUHU216HW,2013-07-22 16:20:00,
2013-07-22 12:21:00,74.1,70.7,29.70,ESE,113,0.0,0.0,89,0.00,,,0.00,WUHU216HW,2013-07-22 16:21:00,
2013-07-22 12:22:00,74.1,70.7,29.70,ESE,113,0.0,0.0,89,0.00,,,0.00,WUHU216HW,2013-07-22 16:22:00,
2013-07-22 12:23:00,74.1,70.7,29.70,ESE,113,0.0,0.0,89,0.00,,,0.00,WUHU216HW,2013-07-22 16:23:00,
2013-07-22 12:24:00,82.0,75.7,29.66,SE,135,0.0,0.0,79,0.00,,,0.03,WUHU216HW,2013-07-22 16:24:00,
2013-07-22 12:25:00,74.1,70.7,29.70,ESE,113,0.0,0.0,89,0.00,,,0.00,WUHU216HW,2013-07-22 16:25:00,
2013-07-22 12:26:00,74.1,70.7,29.70,ESE,113,0.0,0.0,89,0.00,,,0.00,WUHU216HW,2013-07-22 16:26:00,
2013-07-22 12:27:00,74.3,70.9,29.70,ESE,113,0.0,0.0,89,0.00,,,0.00,WUHU216HW,2013-07-22 16:27:00,
2013-07-22 12:28:00,74.3,70.9,29.70,ESE,113,0.0,0.0,89,0.00,,,0.00,WUHU216HW,2013-07-22 16:28:00,
2013-07-22 12:29:00,80.9,74.3,29.66,SSE,158,0.0,0.0,80,0.00,,,0.03,WUHU216HW,2013-07-22 16:29:00,
2013-07-22 12:30:00,74.1,70.7,29.70,ESE,113,0.0,0.0,89,0.00,,,0.00,WUHU216HW,2013-07-22 16:30:00,
2013-07-22 12:31:00,74.1,70.7,29.70,ESE,113,0.0,0.0,90,0.00,,,0.00,WUHU216HW,2013-07-22 16:31:00,
2013-07-22 12:33:00,74.3,71.2,29.70,ESE,113,0.0,0.0,90,0.00,,,0.00,WUHU216HW,2013-07-22 16:33:00,
2013-07-22 12:34:00,80.9,74.9,29.66,SSE,158,0.0,0.0,82,0.00,,,0.03,WUHU216HW,2013-07-22 16:34:00,
2013-07-22 12:35:00,74.3,71.2,29.70,ESE,113,0.0,0.0,90,0.00,,,0.00,WUHU216HW,2013-07-22 16:35:00,
2013-07-22 12:37:00,74.1,71.0,29.69,ESE,113,0.0,0.0,90,0.00,,,0.00,WUHU216HW,2013-07-22 16:37:00,
2013-07-22 12:39:00,80.7,74.4,29.66,SSE,158,0.0,0.0,81,0.00,,,0.03,WUHU216HW,2013-07-22 16:39:00,
2013-07-22 12:40:00,74.1,71.0,29.69,ESE,113,0.0,0.0,90,0.00,,,0.00,WUHU216HW,2013-07-22 16:40:00,
2013-07-22 12:41:00,74.1,71.0,29.70,ESE,113,0.0,0.0,90,0.00,,,0.00,WUHU216HW,2013-07-22 16:41:00,
2013-07-22 12:43:00,74.1,71.0,29.69,ESE,113,0.0,0.0,90,0.00,,,0.00,WUHU216HW,2013-07-22 16:43:00,
2013-07-22 12:44:00,80.2,73.9,29.66,SE,135,0.0,4.4,81,0.00,,,0.03,WUHU216HW,2013-07-22 16:44:00,
2013-07-22 12:45:00,74.1,71.0,29.70,ESE,113,0.0,0.0,90,0.00,,,0.00,WUHU216HW,2013-07-22 16:45:00,
2013-07-22 12:46:00,74.1,71.0,29.70,ESE,113,0.0,0.0,90,0.00,,,0.00,WUHU216HW,2013-07-22 16:46:00,
2013-07-22 12:47:00,74.1,71.0,29.70,ESE,113,0.0,0.0,90,0.00,,,0.00,WUHU216HW,2013-07-22 16:47:00,
2013-07-22 12:48:00,74.1,71.0,29.70,ESE,113,0.0,0.0,90,0.00,,,0.00,WUHU216HW,2013-07-22 16:48:00,
2013-07-22 12:49:00,80.2,73.9,29.66,ESE,113,2.2,4.4,82,0.00,,,0.03,WUHU216HW,2013-07-22 16:49:00,
2013-07-22 12:50:00,74.1,71.0,29.70,ESE,113,0.0,0.0,90,0.00,,,0.00,WUHU216HW,2013-07-22 16:50:00,
2013-07-22 12:51:00,74.1,71.0,29.70,ESE,113,0.0,0.0,90,0.00,,,0.00,WUHU216HW,2013-07-22 16:51:00,
2013-07-22 12:52:00,74.1,71.0,29.70,ESE,113,0.0,0.0,90,0.00,,,0.00,WUHU216HW,2013-07-22 16:52:00,
2013-07-22 12:53:00,74.1,71.0,29.70,ESE,113,0.0,0.0,90,0.00,,,0.00,WUHU216HW,2013-07-22 16:53:00,
2013-07-22 12:54:00,74.1,71.0,29.70,ESE,113,0.0,0.0,90,0.00,,,0.00,WUHU216HW,2013-07-22 16:54:00,
2013-07-22 12:55:00,79.7,73.7,29.66,SE,135,0.0,2.2,82,0.00,,,0.03,WUHU216HW,2013-07-22 16:55:00,
2013-07-22 12:56:00,74.1,71.0,29.69,ESE,113,0.0,0.0,90,0.00,,,0.00,WUHU216HW,2013-07-22 16:56:00,
2013-07-22 12:57:00,74.1,71.0,29.69,ESE,113,0.0,0.0,90,0.00,,,0.00,WUHU216HW,2013-07-22 16:57:00,
2013-07-22 12:58:00,74.1,71.0,29.69,ESE,113,0.0,0.0,90,0.00,,,0.00,WUHU216HW,2013-07-22 16:58:00,
2013-07-22 12:59:00,74.1,71.0,29.69,ESE,113,0.0,0.0,90,0.00,,,0.00,WUHU216HW,2013-07-22 16:59:00,
2013-07-22 13:00:00,79.7,74.0,29.66,SE,135,0.0,2.2,83,0.00,,,0.03,WUHU216HW,2013-07-22 17:00:00,
2013-07-22 13:01:00,74.1,71.0,29.69,ESE,113,0.0,0.0,90,0.00,,,0.00,WUHU216HW,2013-07-22 17:01:00,
2013-07-22 13:02:00,74.1,71.0,29.69,ESE,113,0.0,0.0,90,0.00,,,0.00,WUHU216HW,2013-07-22 17:02:00,
2013-07-22 13:03:00,74.1,71.0,29.69,ESE,113,0.0,0.0,90,0.00,,,0.00,WUHU216HW,2013-07-22 17:03:00,
2013-07-22 13:04:00,74.1,71.0,29.69,ESE,113,0.0,0.0,90,0.00,,,0.00,WUHU216HW,2013-07-22 17:04:00,
2013-07-22 13:05:00,79.8,74.2,29.66,SE,135,0.0,0.0,83,0.00,,,0.03,WUHU216HW,2013-07-22 17:05:00,
2013-07-22 13:06:00,74.1,71.0,29.69,ESE,113,0.0,0.0,90,0.00,,,0.00,WUHU216HW,2013-07-22 17:06:00,
2013-07-22 13:07:00,74.3,71.2,29.70,ESE,113,0.0,0.0,90,0.00,,,0.00,WUHU216HW,2013-07-22 17:07:00,
2013-07-22 13:08:00,74.3,71.2,29.70,ESE,113,0.0,0.0,90,0.00,,,0.00,WUHU216HW,2013-07-22 17:08:00,
2013-07-22 13:09:00,74.3,71.2,29.70,ESE,113,0.0,0.0,90,0.00,,,0.00,WUHU216HW,2013-07-22 17:09:00,
2013-07-22 13:10:00,80.2,74.6,29.65,SE,135,0.0,0.0,82,0.00,,,0.03,WUHU216HW,2013-07-22 17:10:00,
2013-07-22 13:11:00,74.3,71.2,29.70,ESE,113,0.0,0.0,90,0.00,,,0.00,WUHU216HW,2013-07-22 17:11:00,
2013-07-22 13:12:00,74.3,71.2,29.70,ESE,113,0.0,0.0,90,0.00,,,0.00,WUHU216HW,2013-07-22 17:12:00,
2013-07-22 13:13:00,74.3,71.2,29.70,ESE,113,0.0,0.0,90,0.00,,,0.00,WUHU216HW,2013-07-22 17:13:00,
2013-07-22 13:14:00,74.3,71.2,29.70,ESE,113,0.0,0.0,90,0.00,,,0.00,WUHU216HW,2013-07-22 17:14:00,
2013-07-22 13:15:00,80.4,74.7,29.65,SE,135,0.0,0.0,83,0.00,,,0.03,WUHU216HW,2013-07-22 17:15:00,
2013-07-22 13:17:00,74.3,71.2,29.70,ESE,113,0.0,0.0,90,0.00,,,0.00,WUHU216HW,2013-07-22 17:17:00,
2013-07-22 13:18:00,74.3,71.2,29.70,ESE,113,0.0,0.0,90,0.00,,,0.00,WUHU216HW,2013-07-22 17:18:00,
2013-07-22 13:19:00,74.3,71.2,29.70,ESE,113,0.0,0.0,90,0.00,,,0.00,WUHU216HW,2013-07-22 17:19:00,
2013-07-22 13:20:00,80.9,75.3,29.65,SE,135,0.0,0.0,83,0.00,,,0.03,WUHU216HW,2013-07-22 17:20:00,
2013-07-22 13:22:00,74.3,71.2,29.70,ESE,113,0.0,0.0,90,0.00,,,0.00,WUHU216HW,2013-07-22 17:22:00,
2013-07-22 13:24:00,74.3,71.2,29.70,ESE,113,0.0,0.0,90,0.00,,,0.00,WUHU216HW,2013-07-22 17:24:00,
2013-07-22 13:25:00,81.3,75.3,29.65,SE,135,0.0,1.1,81,0.00,,,0.03,WUHU216HW,2013-07-22 17:25:00,
2013-07-22 13:27:00,74.4,71.7,29.70,ESE,113,0.0,0.0,91,0.00,,,0.00,WUHU216HW,2013-07-22 17:27:00,
2013-07-22 13:30:00,81.8,75.5,29.64,SE,135,0.0,1.1,81,0.00,,,0.03,WUHU216HW,2013-07-22 17:30:00,
2013-07-22 13:35:00,81.6,75.0,29.64,SE,135,0.0,0.0,80,0.00,,,0.03,WUHU216HW,2013-07-22 17:35:00,
2013-07-22 13:37:00,74.4,71.7,29.70,ESE,113,0.0,0.0,91,0.00,,,0.00,WUHU216HW,2013-07-22 17:37:00,
2013-07-22 13:39:00,74.4,71.7,29.71,ESE,113,0.0,0.0,91,0.00,,,0.00,WUHU216HW,2013-07-22 17:39:00,
2013-07-22 13:40:00,82.0,75.3,29.64,ESE,113,0.0,0.0,80,0.00,,,0.03,WUHU216HW,2013-07-22 17:40:00,
2013-07-22 13:41:00,74.4,71.7,29.71,ESE,113,0.0,0.0,91,0.00,,,0.00,WUHU216HW,2013-07-22 17:41:00,
2013-07-22 13:42:00,74.4,71.7,29.71,ESE,113,0.0,0.0,91,0.00,,,0.00,WUHU216HW,2013-07-22 17:42:00,
2013-07-22 13:43:00,74.4,71.7,29.71,ESE,113,0.0,0.0,91,0.00,,,0.00,WUHU216HW,2013-07-22 17:43:00,
2013-07-22 13:45:00,82.2,75.5,29.64,WSW,248,0.6,0.6,80,0.00,,,0.03,WUHU216HW,2013-07-22 17:45:00,
2013-07-22 13:46:00,74.4,71.7,29.71,ESE,113,0.0,0.0,91,0.00,,,0.00,WUHU216HW,2013-07-22 17:46:00,
2013-07-22 13:47:00,74.4,71.7,29.71,ESE,113,0.0,0.0,91,0.00,,,0.00,WUHU216HW,2013-07-22 17:47:00,
2013-07-22 13:48:00,74.4,71.7,29.71,ESE,113,0.0,0.0,91,0.00,,,0.00,WUHU216HW,2013-07-22 17:48:00,
2013-07-22 13:49:00,74.4,71.7,29.71,ESE,113,0.0,0.0,91,0.00,,,0.00,WUHU216HW,2013-07-22 17:49:00,
2013-07-22 13:50:00,82.9,75.8,29.63,WSW,248,0.0,0.6,79,0.00,,,0.03,WUHU216HW,2013-07-22 17:50:00,
2013-07-22 13:51:00,74.4,71.7,29.71,ESE,113,0.0,0.0,91,0.00,,,0.00,WUHU216HW,2013-07-22 17:51:00,
2013-07-22 13:52:00,74.4,71.7,29.70,ESE,113,0.0,0.0,91,0.00,,,0.00,WUHU216HW,2013-07-22 17:52:00,
2013-07-22 13:55:00,84.0,76.0,29.63,West,270,0.0,0.6,77,0.00,,,0.03,WUHU216HW,2013-07-22 17:55:00,
2013-07-22 14:05:00,85.6,77.2,29.63,South,180,0.0,2.6,76,0.00,,,0.03,WUHU216HW,2013-07-22 18:05:00,
2013-07-22 14:17:00,74.8,72.0,29.72,ESE,113,0.0,0.0,91,0.00,,,0.00,WUHU216HW,2013-07-22 18:17:00,
2013-07-22 14:19:00,74.8,72.0,29.72,ESE,113,0.0,0.0,91,0.00,,,0.00,WUHU216HW,2013-07-22 18:19:00,
2013-07-22 14:21:00,74.8,72.0,29.72,ESE,113,0.0,0.0,91,0.00,,,0.00,WUHU216HW,2013-07-22 18:21:00,
2013-07-22 14:25:00,74.8,72.0,29.72,ESE,113,0.0,0.0,91,0.00,,,0.00,WUHU216HW,2013-07-22 18:25:00,
2013-07-22 14:26:00,74.8,72.0,29.72,ESE,113,0.0,0.0,91,0.00,,,0.00,WUHU216HW,2013-07-22 18:26:00,
2013-07-22 14:27:00,74.8,72.0,29.72,ESE,113,0.0,0.0,91,0.00,,,0.00,WUHU216HW,2013-07-22 18:27:00,
2013-07-22 14:28:00,74.8,72.0,29.72,ESE,113,0.0,0.0,91,0.00,,,0.00,WUHU216HW,2013-07-22 18:28:00,
2013-07-22 14:29:00,74.8,72.0,29.72,ESE,113,0.0,0.0,91,0.00,,,0.00,WUHU216HW,2013-07-22 18:29:00,
2013-07-22 14:30:00,74.8,72.0,29.72,ESE,113,0.0,0.0,91,0.00,,,0.00,WUHU216HW,2013-07-22 18:30:00,
2013-07-22 14:31:00,74.8,72.0,29.72,ESE,113,0.0,0.0,91,0.00,,,0.00,WUHU216HW,2013-07-22 18:31:00,
2013-07-22 14:32:00,74.8,72.0,29.72,ESE,113,0.0,0.0,91,0.00,,,0.00,WUHU216HW,2013-07-22 18:32:00,
2013-07-22 14:35:00,74.8,72.0,29.72,ESE,113,0.0,0.0,91,0.00,,,0.00,WUHU216HW,2013-07-22 18:35:00,
2013-07-22 14:37:00,74.8,72.0,29.72,ESE,113,0.0,0.0,91,0.00,,,0.00,WUHU216HW,2013-07-22 18:37:00,
2013-07-22 14:38:00,74.8,72.0,29.72,ESE,113,0.0,0.0,91,0.00,,,0.00,WUHU216HW,2013-07-22 18:38:00,
2013-07-22 14:39:00,74.8,72.0,29.73,ESE,113,0.0,0.0,91,0.00,,,0.00,WUHU216HW,2013-07-22 18:39:00,
2013-07-22 14:40:00,75.0,72.2,29.72,ESE,113,0.0,0.0,91,0.00,,,0.00,WUHU216HW,2013-07-22 18:40:00,
2013-07-22 14:41:00,75.0,72.2,29.72,ESE,113,0.0,0.0,91,0.00,,,0.00,WUHU216HW,2013-07-22 18:41:00,
2013-07-22 14:42:00,75.0,72.2,29.72,ESE,113,0.0,0.0,91,0.00,,,0.00,WUHU216HW,2013-07-22 18:42:00,
2013-07-22 14:43:00,75.0,72.2,29.72,ESE,113,0.0,0.0,91,0.00,,,0.00,WUHU216HW,2013-07-22 18:43:00,
2013-07-22 14:44:00,74.8,72.0,29.72,ESE,113,0.0,0.0,91,0.00,,,0.00,WUHU216HW,2013-07-22 18:44:00,
2013-07-22 14:45:00,74.8,72.0,29.72,ESE,113,0.0,0.0,91,0.00,,,0.00,WUHU216HW,2013-07-22 18:45:00,
2013-07-22 14:46:00,75.0,72.2,29.72,ESE,113,0.0,0.0,91,0.00,,,0.00,WUHU216HW,2013-07-22 18:46:00,
2013-07-22 14:47:00,75.0,72.2,29.72,ESE,113,0.0,0.0,91,0.00,,,0.00,WUHU216HW,2013-07-22 18:47:00,
2013-07-22 14:48:00,75.0,72.2,29.72,ESE,113,0.0,0.0,91,0.00,,,0.00,WUHU216HW,2013-07-22 18:48:00,
2013-07-22 14:49:00,75.0,72.2,29.72,ESE,113,0.0,0.0,91,0.00,,,0.00,WUHU216HW,2013-07-22 18:49:00,
2013-07-22 14:50:00,75.0,72.2,29.72,ESE,113,0.0,0.0,91,0.00,,,0.00,WUHU216HW,2013-07-22 18:50:00,
2013-07-22 14:52:00,75.0,72.2,29.72,ESE,113,0.0,0.0,92,0.00,,,0.00,WUHU216HW,2013-07-22 18:52:00,
2013-07-22 14:53:00,75.0,72.2,29.72,ESE,113,0.0,0.0,92,0.00,,,0.00,WUHU216HW,2013-07-22 18:53:00,
2013-07-22 15:15:00,75.2,72.4,29.73,ESE,113,0.0,0.0,91,0.00,,,0.00,WUHU216HW,2013-07-22 19:15:00,
2013-07-22 15:17:00,75.2,72.4,29.73,ESE,113,0.0,0.0,91,0.00,,,0.00,WUHU216HW,2013-07-22 19:17:00,
2013-07-22 15:18:00,75.0,72.2,29.73,ESE,113,0.0,0.0,91,0.00,,,0.00,WUHU216HW,2013-07-22 19:18:00,
2013-07-22 15:19:00,75.0,72.2,29.73,ESE,113,0.0,0.0,91,0.00,,,0.00,WUHU216HW,2013-07-22 19:19:00,
2013-07-22 15:20:00,75.2,72.4,29.73,ESE,113,0.0,0.0,91,0.00,,,0.00,WUHU216HW,2013-07-22 19:20:00,
2013-07-22 15:21:00,75.2,72.4,29.73,ESE,113,0.0,0.0,91,0.00,,,0.00,WUHU216HW,2013-07-22 19:21:00,
2013-07-22 15:22:00,75.2,72.4,29.73,ESE,113,0.0,0.0,91,0.00,,,0.00,WUHU216HW,2013-07-22 19:22:00,
2013-07-22 15:23:00,75.2,72.4,29.72,ESE,113,0.0,0.0,91,0.00,,,0.00,WUHU216HW,2013-07-22 19:23:00,
2013-07-22 15:24:00,75.2,72.4,29.72,ESE,113,0.0,0.0,91,0.00,,,0.00,WUHU216HW,2013-07-22 19:24:00,
2013-07-22 15:25:00,75.2,72.4,29.72,ESE,113,0.0,0.0,91,0.00,,,0.00,WUHU216HW,2013-07-22 19:25:00,
2013-07-22 15:26:00,75.2,72.4,29.73,ESE,113,0.0,0.0,91,0.00,,,0.00,WUHU216HW,2013-07-22 19:26:00,
2013-07-22 15:27:00,75.2,72.4,29.73,ESE,113,0.0,0.0,91,0.00,,,0.00,WUHU216HW,2013-07-22 19:27:00,
2013-07-22 15:28:00,75.2,72.4,29.73,ESE,113,0.0,0.0,91,0.00,,,0.00,WUHU216HW,2013-07-22 19:28:00,
2013-07-22 15:29:00,75.2,72.4,29.73,ESE,113,0.0,0.0,91,0.00,,,0.00,WUHU216HW,2013-07-22 19:29:00,
2013-07-22 15:30:00,75.2,72.4,29.73,ESE,113,0.0,0.0,91,0.00,,,0.00,WUHU216HW,2013-07-22 19:30:00,
2013-07-22 15:31:00,75.2,72.4,29.73,ESE,113,0.0,0.0,91,0.00,,,0.00,WUHU216HW,2013-07-22 19:31:00,
2013-07-22 15:32:00,75.3,72.6,29.73,ESE,113,0.0,0.0,91,0.00,,,0.00,WUHU216HW,2013-07-22 19:32:00,
2013-07-22 15:33:00,75.3,72.6,29.73,ESE,113,0.0,0.0,91,0.00,,,0.00,WUHU216HW,2013-07-22 19:33:00,
2013-07-22 15:34:00,75.3,72.6,29.73,ESE,113,0.0,0.0,91,0.00,,,0.00,WUHU216HW,2013-07-22 19:34:00,
2013-07-22 15:35:00,75.2,72.4,29.73,ESE,113,0.0,0.0,91,0.00,,,0.00,WUHU216HW,2013-07-22 19:35:00,
2013-07-22 15:36:00,75.2,72.4,29.73,ESE,113,0.0,0.0,91,0.00,,,0.00,WUHU216HW,2013-07-22 19:36:00,
2013-07-22 15:37:00,75.2,72.4,29.73,ESE,113,0.0,0.0,91,0.00,,,0.00,WUHU216HW,2013-07-22 19:37:00,
2013-07-22 15:38:00,75.3,72.6,29.73,ESE,113,0.0,0.0,91,0.00,,,0.00,WUHU216HW,2013-07-22 19:38:00,
2013-07-22 15:39:00,75.3,72.6,29.73,ESE,113,0.0,0.0,91,0.00,,,0.00,WUHU216HW,2013-07-22 19:39:00,
2013-07-22 15:40:00,75.3,72.6,29.73,ESE,113,0.0,0.0,91,0.00,,,0.00,WUHU216HW,2013-07-22 19:40:00,
2013-07-22 15:41:00,75.3,72.6,29.72,ESE,113,0.0,0.0,91,0.00,,,0.00,WUHU216HW,2013-07-22 19:41:00,
2013-07-22 15:42:00,75.3,72.6,29.72,ESE,113,0.0,0.0,91,0.00,,,0.00,WUHU216HW,2013-07-22 19:42:00,
2013-07-22 15:43:00,75.3,72.6,29.73,ESE,113,0.0,0.0,91,0.00,,,0.00,WUHU216HW,2013-07-22 19:43:00,
2013-07-22 15:44:00,75.3,72.6,29.72,ESE,113,0.0,0.0,91,0.00,,,0.00,WUHU216HW,2013-07-22 19:44:00,
2013-07-22 15:45:00,75.3,72.6,29.72,ESE,113,0.0,0.0,91,0.00,,,0.00,WUHU216HW,2013-07-22 19:45:00,
2013-07-22 15:46:00,75.3,72.6,29.73,ESE,113,0.0,0.0,91,0.00,,,0.00,WUHU216HW,2013-07-22 19:46:00,
2013-07-22 15:47:00,75.3,72.6,29.73,ESE,113,0.0,0.0,91,0.00,,,0.00,WUHU216HW,2013-07-22 19:47:00,
2013-07-22 15:48:00,75.3,72.6,29.73,ESE,113,0.0,0.0,91,0.00,,,0.00,WUHU216HW,2013-07-22 19:48:00,
2013-07-22 15:49:00,75.3,72.6,29.73,ESE,113,0.0,0.0,91,0.00,,,0.00,WUHU216HW,2013-07-22 19:49:00,
2013-07-22 15:50:00,75.3,72.6,29.73,ESE,113,0.0,0.0,91,0.00,,,0.00,WUHU216HW,2013-07-22 19:50:00,
2013-07-22 15:51:00,75.5,72.8,29.73,ESE,113,0.0,0.0,91,0.00,,,0.00,WUHU216HW,2013-07-22 19:51:00,
2013-07-22 15:52:00,75.5,72.8,29.73,ESE,113,0.0,0.0,91,0.00,,,0.00,WUHU216HW,2013-07-22 19:52:00,
2013-07-22 15:53:00,75.5,72.8,29.73,ESE,113,0.0,0.0,91,0.00,,,0.00,WUHU216HW,2013-07-22 19:53:00,
2013-07-22 15:54:00,75.5,72.8,29.73,ESE,113,0.0,0.0,91,0.00,,,0.00,WUHU216HW,2013-07-22 19:54:00,
2013-07-22 15:55:00,75.5,72.8,29.73,ESE,113,0.0,0.0,91,0.00,,,0.00,WUHU216HW,2013-07-22 19:55:00,
2013-07-22 15:56:00,75.5,72.8,29.72,ESE,113,0.0,0.0,91,0.00,,,0.00,WUHU216HW,2013-07-22 19:56:00,
2013-07-22 15:57:00,75.5,72.8,29.72,ESE,113,0.0,0.0,91,0.00,,,0.00,WUHU216HW,2013-07-22 19:57:00,
2013-07-22 15:58:00,75.5,72.8,29.72,ESE,113,0.0,0.0,91,0.00,,,0.00,WUHU216HW,2013-07-22 19:58:00,
2013-07-22 15:59:00,75.5,72.8,29.72,ESE,113,0.0,0.0,91,0.00,,,0.00,WUHU216HW,2013-07-22 19:59:00,
2013-07-22 16:00:00,75.5,72.8,29.72,ESE,113,0.0,0.0,91,0.00,,,0.00,WUHU216HW,2013-07-22 20:00:00,
2013-07-22 16:01:00,75.5,72.8,29.72,ESE,113,0.0,0.0,91,0.00,,,0.00,WUHU216HW,2013-07-22 20:01:00,
2013-07-22 16:02:00,75.5,72.8,29.72,ESE,113,0.0,0.0,91,0.00,,,0.00,WUHU216HW,2013-07-22 20:02:00,
2013-07-22 16:03:00,75.5,72.8,29.72,ESE,113,0.0,0.0,91,0.00,,,0.00,WUHU216HW,2013-07-22 20:03:00,
2013-07-22 16:04:00,75.7,72.9,29.73,ESE,113,0.0,0.0,91,0.00,,,0.00,WUHU216HW,2013-07-22 20:04:00,
2013-07-22 16:05:00,75.7,72.9,29.73,ESE,113,0.0,0.0,91,0.00,,,0.00,WUHU216HW,2013-07-22 20:05:00,
2013-07-22 16:06:00,75.7,72.9,29.72,ESE,113,0.0,0.0,91,0.00,,,0.00,WUHU216HW,2013-07-22 20:06:00,
2013-07-22 16:07:00,75.7,72.9,29.73,ESE,113,0.0,0.0,91,0.00,,,0.00,WUHU216HW,2013-07-22 20:07:00,
2013-07-22 16:08:00,75.7,72.9,29.73,ESE,113,0.0,0.0,91,0.00,,,0.00,WUHU216HW,2013-07-22 20:08:00,
2013-07-22 16:09:00,75.7,72.9,29.73,ESE,113,0.0,0.0,91,0.00,,,0.00,WUHU216HW,2013-07-22 20:09:00,
2013-07-22 16:10:00,75.7,72.9,29.73,ESE,113,0.0,0.0,91,0.00,,,0.00,WUHU216HW,2013-07-22 20:10:00,
2013-07-22 16:11:00,75.7,72.9,29.73,ESE,113,0.0,0.0,91,0.00,,,0.00,WUHU216HW,2013-07-22 20:11:00,
2013-07-22 16:12:00,75.7,72.9,29.73,ESE,113,0.0,0.0,91,0.00,,,0.00,WUHU216HW,2013-07-22 20:12:00,
2013-07-22 16:13:00,75.7,72.9,29.73,ESE,113,0.0,0.0,91,0.00,,,0.00,WUHU216HW,2013-07-22 20:13:00,
2013-07-22 16:14:00,75.7,72.9,29.73,ESE,113,0.0,0.0,91,0.00,,,0.00,WUHU216HW,2013-07-22 20:14:00,
2013-07-22 16:15:00,75.7,72.9,29.73,ESE,113,0.0,0.0,91,0.00,,,0.00,WUHU216HW,2013-07-22 20:15:00,
2013-07-22 16:16:00,75.7,72.9,29.73,ESE,113,0.0,0.0,91,0.00,,,0.00,WUHU216HW,2013-07-22 20:16:00,
2013-07-22 16:17:00,75.7,72.9,29.73,ESE,113,0.0,0.0,91,0.00,,,0.00,WUHU216HW,2013-07-22 20:17:00,
2013-07-22 16:18:00,75.7,72.9,29.73,ESE,113,0.0,0.0,91,0.00,,,0.00,WUHU216HW,2013-07-22 20:18:00,
2013-07-22 16:19:00,75.7,72.9,29.73,ESE,113,0.0,0.0,91,0.00,,,0.00,WUHU216HW,2013-07-22 20:19:00,
2013-07-22 16:20:00,75.7,72.9,29.73,ESE,113,0.0,0.0,91,0.00,,,0.00,WUHU216HW,2013-07-22 20:20:00,
2013-07-22 16:21:00,75.9,73.1,29.73,ESE,113,0.0,0.0,91,0.00,,,0.00,WUHU216HW,2013-07-22 20:21:00,
2013-07-22 16:22:00,75.9,73.1,29.73,ESE,113,0.0,0.0,91,0.00,,,0.00,WUHU216HW,2013-07-22 20:22:00,
2013-07-22 16:23:00,75.7,72.9,29.73,ESE,113,0.0,0.0,91,0.00,,,0.00,WUHU216HW,2013-07-22 20:23:00,
2013-07-22 16:24:00,75.7,72.9,29.73,ESE,113,0.0,0.0,91,0.00,,,0.00,WUHU216HW,2013-07-22 20:24:00,
2013-07-22 16:25:00,75.7,72.9,29.73,ESE,113,0.0,0.0,91,0.00,,,0.00,WUHU216HW,2013-07-22 20:25:00,
2013-07-22 16:26:00,75.9,73.1,29.72,ESE,113,0.0,0.0,91,0.00,,,0.00,WUHU216HW,2013-07-22 20:26:00,
2013-07-22 16:27:00,75.9,73.1,29.72,ESE,113,0.0,0.0,91,0.00,,,0.00,WUHU216HW,2013-07-22 20:27:00,
2013-07-22 16:28:00,75.9,73.1,29.73,ESE,113,0.0,0.0,91,0.00,,,0.00,WUHU216HW,2013-07-22 20:28:00,
2013-07-22 16:29:00,85.6,76.4,29.58,NE,45,0.0,2.2,72,0.00,,,0.00,WUHU216HW,2013-07-22 20:29:00,
2013-07-22 16:30:00,76.1,73.3,29.73,ESE,113,0.0,0.0,91,0.00,,,0.00,WUHU216HW,2013-07-22 20:30:00,
2013-07-22 16:31:00,76.1,73.3,29.73,ESE,113,0.0,0.0,91,0.00,,,0.00,WUHU216HW,2013-07-22 20:31:00,
2013-07-22 16:32:00,76.1,73.3,29.73,ESE,113,0.0,0.0,91,0.00,,,0.00,WUHU216HW,2013-07-22 20:32:00,
2013-07-22 16:33:00,76.1,73.3,29.73,ESE,113,0.0,0.0,91,0.00,,,0.00,WUHU216HW,2013-07-22 20:33:00,
2013-07-22 16:34:00,85.6,76.4,29.58,SE,135,0.0,0.0,72,0.00,,,0.00,WUHU216HW,2013-07-22 20:34:00,
2013-07-22 16:35:00,76.2,73.5,29.73,ESE,113,0.0,0.0,91,0.00,,,0.00,WUHU216HW,2013-07-22 20:35:00,
2013-07-22 16:36:00,76.1,73.3,29.73,ESE,113,0.0,0.0,91,0.00,,,0.00,WUHU216HW,2013-07-22 20:36:00,
2013-07-22 16:37:00,76.1,73.3,29.73,ESE,113,0.0,0.0,91,0.00,,,0.00,WUHU216HW,2013-07-22 20:37:00,
2013-07-22 16:38:00,76.1,73.3,29.73,ESE,113,0.0,0.0,91,0.00,,,0.00,WUHU216HW,2013-07-22 20:38:00,
2013-07-22 16:39:00,85.6,76.4,29.58,SE,135,0.0,0.0,73,0.00,,,0.00,WUHU216HW,2013-07-22 20:39:00,
2013-07-22 16:40:00,76.2,73.5,29.73,ESE,113,0.0,0.0,91,0.00,,,0.00,WUHU216HW,2013-07-22 20:40:00,
2013-07-22 16:41:00,76.2,73.5,29.73,ESE,113,0.0,0.0,91,0.00,,,0.00,WUHU216HW,2013-07-22 20:41:00,
2013-07-22 16:42:00,76.2,73.5,29.73,ESE,113,0.0,0.0,91,0.00,,,0.00,WUHU216HW,2013-07-22 20:42:00,
2013-07-22 16:43:00,76.2,73.5,29.73,ESE,113,0.0,0.0,91,0.00,,,0.00,WUHU216HW,2013-07-22 20:43:00,
2013-07-22 16:44:00,85.8,75.8,29.57,SE,135,0.0,0.0,72,0.00,,,0.00,WUHU216HW,2013-07-22 20:44:00,
2013-07-22 16:45:00,76.4,73.7,29.73,ESE,113,0.0,0.0,91,0.00,,,0.00,WUHU216HW,2013-07-22 20:45:00,
2013-07-22 16:46:00,76.4,73.7,29.73,ESE,113,0.0,0.0,91,0.00,,,0.00,WUHU216HW,2013-07-22 20:46:00,
2013-07-22 16:47:00,76.6,73.8,29.73,ESE,113,0.0,0.0,91,0.00,,,0.00,WUHU216HW,2013-07-22 20:47:00,
2013-07-22 16:48:00,76.6,73.8,29.73,ESE,113,0.0,0.0,91,0.00,,,0.00,WUHU216HW,2013-07-22 20:48:00,
2013-07-22 16:49:00,85.6,75.2,29.57,North,0,0.0,0.0,71,0.00,,,0.00,WUHU216HW,2013-07-22 20:49:00,
2013-07-22 16:50:00,76.6,73.8,29.73,ESE,113,0.0,0.0,91,0.00,,,0.00,WUHU216HW,2013-07-22 20:50:00,
2013-07-22 16:51:00,76.8,73.7,29.73,ESE,113,0.0,0.0,90,0.00,,,0.00,WUHU216HW,2013-07-22 20:51:00,
2013-07-22 16:52:00,76.8,73.7,29.73,ESE,113,0.0,0.0,90,0.00,,,0.00,WUHU216HW,2013-07-22 20:52:00,
2013-07-22 16:53:00,76.8,73.7,29.73,ESE,113,0.0,0.0,90,0.00,,,0.00,WUHU216HW,2013-07-22 20:53:00,
2013-07-22 16:54:00,85.6,75.2,29.57,WNW,293,0.0,0.0,71,0.00,,,0.00,WUHU216HW,2013-07-22 20:54:00,
2013-07-22 16:55:00,76.8,73.7,29.73,ESE,113,0.0,0.0,90,0.00,,,0.00,WUHU216HW,2013-07-22 20:55:00,
2013-07-22 16:58:00,76.8,73.7,29.73,East,90,0.0,0.0,90,0.00,,,0.00,WUHU216HW,2013-07-22 20:58:00,
2013-07-22 16:59:00,85.6,75.2,29.57,ENE,68,1.7,1.7,70,0.00,,,0.00,WUHU216HW,2013-07-22 20:59:00,
2013-07-22 17:00:00,76.8,73.7,29.73,East,90,0.0,0.0,90,0.00,,,0.00,WUHU216HW,2013-07-22 21:00:00,
2013-07-22 17:01:00,76.8,73.7,29.73,East,90,0.0,0.0,90,0.00,,,0.00,WUHU216HW,2013-07-22 21:01:00,
2013-07-22 17:02:00,77.0,73.9,29.73,East,90,0.0,0.0,90,0.00,,,0.00,WUHU216HW,2013-07-22 21:02:00,
2013-07-22 17:03:00,77.0,73.9,29.73,East,90,0.0,0.0,90,0.00,,,0.00,WUHU216HW,2013-07-22 21:03:00,
2013-07-22 17:04:00,85.6,75.2,29.56,ENE,68,0.0,1.7,70,0.00,,,0.00,WUHU216HW,2013-07-22 21:04:00,
2013-07-22 17:05:00,76.8,73.7,29.73,East,90,0.0,0.0,90,0.00,,,0.00,WUHU216HW,2013-07-22 21:05:00,
2013-07-22 17:06:00,77.1,74.1,29.73,East,90,0.0,0.0,90,0.00,,,0.00,WUHU216HW,2013-07-22 21:06:00,
2013-07-22 17:07:00,77.1,74.1,29.73,East,90,0.0,0.0,90,0.00,,,0.00,WUHU216HW,2013-07-22 21:07:00,
2013-07-22 17:08:00,77.1,74.1,29.73,East,90,0.0,0.0,90,0.00,,,0.00,WUHU216HW,2013-07-22 21:08:00,
2013-07-22 17:09:00,85.2,74.8,29.56,SW,225,0.0,1.7,71,0.00,,,0.00,WUHU216HW,2013-07-22 21:09:00,
2013-07-22 17:10:00,77.1,74.1,29.73,East,90,0.0,0.0,90,0.00,,,0.00,WUHU216HW,2013-07-22 21:10:00,
2013-07-22 17:11:00,77.1,74.1,29.73,East,90,0.0,0.0,90,0.00,,,0.00,WUHU216HW,2013-07-22 21:11:00,
2013-07-22 17:12:00,77.1,74.1,29.73,East,90,0.0,0.0,90,0.00,,,0.00,WUHU216HW,2013-07-22 21:12:00,
2013-07-22 17:13:00,77.1,74.1,29.73,East,90,0.0,0.0,90,0.00,,,0.00,WUHU216HW,2013-07-22 21:13:00,
2013-07-22 17:14:00,85.2,74.8,29.56,WSW,248,0.0,0.0,71,0.00,,,0.00,WUHU216HW,2013-07-22 21:14:00,
2013-07-22 17:15:00,77.1,74.1,29.73,East,90,0.0,0.0,90,0.00,,,0.00,WUHU216HW,2013-07-22 21:15:00,
2013-07-22 17:16:00,77.1,74.1,29.73,East,90,0.0,0.0,90,0.00,,,0.00,WUHU216HW,2013-07-22 21:16:00,
2013-07-22 17:18:00,77.1,74.1,29.73,East,90,0.0,0.0,90,0.00,,,0.00,WUHU216HW,2013-07-22 21:18:00,
2013-07-22 17:19:00,85.2,74.8,29.56,SE,135,0.0,0.0,69,0.00,,,0.00,WUHU216HW,2013-07-22 21:19:00,
2013-07-22 17:20:00,77.1,74.1,29.73,ESE,113,0.0,0.0,90,0.00,,,0.00,WUHU216HW,2013-07-22 21:20:00,
2013-07-22 17:24:00,85.1,74.3,29.56,SE,135,0.0,0.0,71,0.00,,,0.00,WUHU216HW,2013-07-22 21:24:00,
2013-07-22 17:29:00,85.1,74.3,29.56,West,270,0.0,0.0,71,0.00,,,0.00,WUHU216HW,2013-07-22 21:29:00,
2013-07-22 17:30:00,77.3,74.3,29.73,East,90,0.0,0.0,89,0.00,,,0.00,WUHU216HW,2013-07-22 21:30:00,
2013-07-22 17:31:00,77.3,74.3,29.73,East,90,0.0,0.0,89,0.00,,,0.00,WUHU216HW,2013-07-22 21:31:00,
2013-07-22 17:32:00,77.3,74.3,29.73,East,90,0.0,0.0,89,0.00,,,0.00,WUHU216HW,2013-07-22 21:32:00,
2013-07-22 17:33:00,77.3,74.3,29.73,East,90,0.0,0.0,89,0.00,,,0.00,WUHU216HW,2013-07-22 21:33:00,
2013-07-22 17:34:00,85.1,74.3,29.56,West,270,0.0,0.0,71,0.00,,,0.00,WUHU216HW,2013-07-22 21:34:00,
2013-07-22 17:35:00,77.5,74.1,29.73,East,90,0.0,0.0,89,0.00,,,0.00,WUHU216HW,2013-07-22 21:35:00,
2013-07-22 17:37:00,77.5,74.1,29.73,East,90,0.0,0.0,89,0.00,,,0.00,WUHU216HW,2013-07-22 21:37:00,
2013-07-22 17:39:00,85.2,74.8,29.56,NW,315,2.6,2.6,71,0.00,,,0.00,WUHU216HW,2013-07-22 21:39:00,
2013-07-22 17:40:00,77.5,74.1,29.73,East,90,0.0,0.0,89,0.00,,,0.00,WUHU216HW,2013-07-22 21:40:00,
2013-07-22 17:41:00,77.7,74.3,29.73,East,90,0.0,0.0,89,0.00,,,0.00,WUHU216HW,2013-07-22 21:41:00,
2013-07-22 17:43:00,77.7,74.3,29.73,East,90,0.0,0.0,89,0.00,,,0.00,WUHU216HW,2013-07-22 21:43:00,
2013-07-22 17:44:00,85.1,74.6,29.56,NW,315,0.0,2.6,71,0.00,,,0.00,WUHU216HW,2013-07-22 21:44:00,
2013-07-22 17:46:00,77.7,74.3,29.73,East,90,0.0,0.0,89,0.00,,,0.00,WUHU216HW,2013-07-22 21:46:00,
2013-07-22 17:48:00,77.7,74.3,29.73,East,90,0.0,0.0,89,0.00,,,0.00,WUHU216HW,2013-07-22 21:48:00,
2013-07-22 17:49:00,84.9,74.9,29.56,NW,315,0.0,2.6,72,0.00,,,0.00,WUHU216HW,2013-07-22 21:49:00,
2013-07-22 17:50:00,77.7,74.3,29.73,East,90,0.0,0.0,89,0.00,,,0.00,WUHU216HW,2013-07-22 21:50:00,
2013-07-22 17:51:00,77.7,74.3,29.73,East,90,0.0,0.0,89,0.00,,,0.00,WUHU216HW,2013-07-22 21:51:00,
2013-07-22 17:52:00,77.7,74.3,29.73,East,90,0.0,0.0,89,0.00,,,0.00,WUHU216HW,2013-07-22 21:52:00,
2013-07-22 17:54:00,77.9,74.4,29.73,East,90,0.0,0.0,89,0.00,,,0.00,WUHU216HW,2013-07-22 21:54:00,
2013-07-22 17:55:00,84.9,74.9,29.55,NW,315,0.0,0.0,71,0.00,,,0.00,WUHU216HW,2013-07-22 21:55:00,
2013-07-22 18:00:00,84.7,74.3,29.55,NW,315,0.0,0.0,71,0.00,,,0.00,WUHU216HW,2013-07-22 22:00:00,
2013-07-22 18:05:00,84.7,74.3,29.55,South,180,0.0,0.0,71,0.00,,,0.00,WUHU216HW,2013-07-22 22:05:00,
2013-07-22 18:06:00,78.0,74.6,29.73,East,90,0.0,0.0,88,0.00,,,0.00,WUHU216HW,2013-07-22 22:06:00,
2013-07-22 18:07:00,78.0,74.6,29.73,East,90,0.0,0.0,88,0.00,,,0.00,WUHU216HW,2013-07-22 22:07:00,
2013-07-22 18:08:00,78.0,74.6,29.73,East,90,0.0,0.0,88,0.00,,,0.00,WUHU216HW,2013-07-22 22:08:00,
2013-07-22 18:09:00,78.0,74.6,29.73,East,90,0.0,0.0,88,0.00,,,0.00,WUHU216HW,2013-07-22 22:09:00,
2013-07-22 18:10:00,84.7,74.7,29.54,SW,225,0.0,0.0,72,0.00,,,0.00,WUHU216HW,2013-07-22 22:10:00,
2013-07-22 18:12:00,78.0,74.6,29.73,East,90,0.0,0.0,88,0.00,,,0.00,WUHU216HW,2013-07-22 22:12:00,
2013-07-22 18:13:00,78.0,74.6,29.73,East,90,0.0,0.0,88,0.00,,,0.00,WUHU216HW,2013-07-22 22:13:00,
2013-07-22 18:14:00,78.0,74.6,29.73,East,90,0.0,0.0,88,0.00,,,0.00,WUHU216HW,2013-07-22 22:14:00,
2013-07-22 18:15:00,84.5,74.1,29.54,WSW,248,0.0,0.0,72,0.00,,,0.00,WUHU216HW,2013-07-22 22:15:00,
2013-07-22 18:16:00,78.0,74.6,29.74,East,90,0.0,0.0,88,0.00,,,0.00,WUHU216HW,2013-07-22 22:16:00,
2013-07-22 18:17:00,78.0,74.6,29.73,East,90,0.0,0.0,88,0.00,,,0.00,WUHU216HW,2013-07-22 22:17:00,
2013-07-22 18:18:00,78.0,74.6,29.73,East,90,0.0,0.0,88,0.00,,,0.00,WUHU216HW,2013-07-22 22:18:00,
2013-07-22 18:19:00,78.0,74.6,29.74,East,90,0.0,0.0,88,0.00,,,0.00,WUHU216HW,2013-07-22 22:19:00,
2013-07-22 18:20:00,84.3,74.3,29.54,WSW,248,0.0,0.0,72,0.00,,,0.00,WUHU216HW,2013-07-22 22:20:00,
2013-07-22 18:22:00,78.2,74.4,29.73,East,90,0.0,0.0,88,0.00,,,0.00,WUHU216HW,2013-07-22 22:22:00,
2013-07-22 18:23:00,78.2,74.4,29.73,East,90,0.0,0.0,88,0.00,,,0.00,WUHU216HW,2013-07-22 22:23:00,
2013-07-22 18:24:00,78.4,74.6,29.73,East,90,0.0,0.0,88,0.00,,,0.00,WUHU216HW,2013-07-22 22:24:00,
2013-07-22 18:25:00,84.3,74.3,29.54,WSW,248,0.0,0.0,72,0.00,,,0.00,WUHU216HW,2013-07-22 22:25:00,
2013-07-22 18:26:00,78.4,74.6,29.73,East,90,0.0,0.0,88,0.00,,,0.00,WUHU216HW,2013-07-22 22:26:00,
2013-07-22 18:27:00,78.4,74.6,29.73,East,90,0.0,0.0,88,0.00,,,0.00,WUHU216HW,2013-07-22 22:27:00,
2013-07-22 18:28:00,78.4,74.6,29.73,East,90,0.0,0.0,88,0.00,,,0.00,WUHU216HW,2013-07-22 22:28:00,
2013-07-22 18:29:00,78.4,74.6,29.73,East,90,0.0,0.0,88,0.00,,,0.00,WUHU216HW,2013-07-22 22:29:00,
2013-07-22 18:30:00,84.3,74.3,29.54,WSW,248,0.0,0.0,73,0.00,,,0.00,WUHU216HW,2013-07-22 22:30:00,
2013-07-22 18:31:00,78.6,74.8,29.73,East,90,0.0,0.0,88,0.00,,,0.00,WUHU216HW,2013-07-22 22:31:00,
2013-07-22 18:32:00,78.6,74.8,29.73,East,90,0.0,0.0,88,0.00,,,0.00,WUHU216HW,2013-07-22 22:32:00,
2013-07-22 18:33:00,78.6,74.8,29.73,East,90,0.0,0.0,88,0.00,,,0.00,WUHU216HW,2013-07-22 22:33:00,
2013-07-22 18:35:00,84.3,74.3,29.54,WSW,248,0.0,0.0,73,0.00,,,0.00,WUHU216HW,2013-07-22 22:35:00,
2013-07-22 18:36:00,78.6,74.8,29.73,East,90,0.0,0.0,88,0.00,,,0.00,WUHU216HW,2013-07-22 22:36:00,
2013-07-22 18:38:00,78.6,74.8,29.74,East,90,0.0,0.0,88,0.00,,,0.00,WUHU216HW,2013-07-22 22:38:00,
2013-07-22 18:39:00,78.6,74.8,29.74,East,90,0.0,0.0,88,0.00,,,0.00,WUHU216HW,2013-07-22 22:39:00,
2013-07-22 18:40:00,84.2,74.5,29.54,SSW,203,0.0,0.0,73,0.00,,,0.00,WUHU216HW,2013-07-22 22:40:00,
2013-07-22 18:41:00,78.6,74.8,29.74,East,90,0.0,0.0,88,0.00,,,0.00,WUHU216HW,2013-07-22 22:41:00,
2013-07-22 18:42:00,78.6,74.8,29.74,East,90,0.0,0.0,88,0.00,,,0.00,WUHU216HW,2013-07-22 22:42:00,
2013-07-22 18:43:00,78.6,74.8,29.74,East,90,0.0,0.0,88,0.00,,,0.00,WUHU216HW,2013-07-22 22:43:00,
2013-07-22 18:44:00,78.6,74.8,29.74,East,90,0.0,0.0,88,0.00,,,0.00,WUHU216HW,2013-07-22 22:44:00,
2013-07-22 18:45:00,84.0,74.4,29.54,SW,225,0.0,0.0,73,0.00,,,0.00,WUHU216HW,2013-07-22 22:45:00,
2013-07-22 18:46:00,78.6,74.8,29.73,East,90,0.0,0.0,88,0.00,,,0.00,WUHU216HW,2013-07-22 22:46:00,
2013-07-22 18:47:00,78.6,74.8,29.73,East,90,0.0,0.0,88,0.00,,,0.00,WUHU216HW,2013-07-22 22:47:00,
2013-07-22 18:49:00,78.6,74.8,29.73,East,90,0.0,0.0,88,0.00,,,0.00,WUHU216HW,2013-07-22 22:49:00,
2013-07-22 18:50:00,84.2,74.9,29.55,SSE,158,0.0,0.0,74,0.00,,,0.00,WUHU216HW,2013-07-22 22:50:00,
2013-07-22 18:51:00,78.6,74.8,29.73,East,90,0.0,0.0,87,0.00,,,0.00,WUHU216HW,2013-07-22 22:51:00,
2013-07-22 18:52:00,78.6,74.8,29.73,East,90,0.0,0.0,87,0.00,,,0.00,WUHU216HW,2013-07-22 22:52:00,
2013-07-22 18:53:00,78.6,74.8,29.73,East,90,0.0,0.0,88,0.00,,,0.00,WUHU216HW,2013-07-22 22:53:00,
2013-07-22 18:54:00,78.6,74.8,29.73,East,90,0.0,0.0,88,0.00,,,0.00,WUHU216HW,2013-07-22 22:54:00,
2013-07-22 18:55:00,84.0,74.8,29.55,WNW,293,0.0,0.0,74,0.00,,,0.00,WUHU216HW,2013-07-22 22:55:00,
2013-07-22 18:56:00,78.6,74.8,29.73,East,90,0.0,0.0,88,0.00,,,0.00,WUHU216HW,2013-07-22 22:56:00,
2013-07-22 18:57:00,78.6,74.8,29.73,East,90,0.0,0.0,88,0.00,,,0.00,WUHU216HW,2013-07-22 22:57:00,
2013-07-22 18:58:00,78.9,75.1,29.73,East,90,0.0,0.0,88,0.00,,,0.00,WUHU216HW,2013-07-22 22:58:00,
2013-07-22 18:59:00,78.9,75.1,29.73,East,90,0.0,0.0,88,0.00,,,0.00,WUHU216HW,2013-07-22 22:59:00,
2013-07-22 19:00:00,84.0,74.8,29.55,WNW,293,0.0,0.0,74,0.00,,,0.00,WUHU216HW,2013-07-22 23:00:00,
2013-07-22 19:01:00,78.9,75.1,29.72,East,90,0.0,0.0,87,0.00,,,0.00,WUHU216HW,2013-07-22 23:01:00,
2013-07-22 19:02:00,78.9,75.1,29.72,East,90,0.0,0.0,87,0.00,,,0.00,WUHU216HW,2013-07-22 23:02:00,
2013-07-22 19:03:00,78.9,75.1,29.72,East,90,0.0,0.0,87,0.00,,,0.00,WUHU216HW,2013-07-22 23:03:00,
2013-07-22 19:04:00,78.9,75.1,29.72,East,90,0.0,0.0,87,0.00,,,0.00,WUHU216HW,2013-07-22 23:04:00,
2013-07-22 19:05:00,84.0,74.8,29.54,WNW,293,0.0,0.0,74,0.00,,,0.00,WUHU216HW,2013-07-22 23:05:00,
2013-07-22 19:07:00,79.5,75.3,29.72,East,90,0.0,0.0,87,0.00,,,0.00,WUHU216HW,2013-07-22 23:07:00,
2013-07-22 19:08:00,79.5,75.3,29.72,East,90,0.0,0.0,87,0.00,,,0.00,WUHU216HW,2013-07-22 23:08:00,
2013-07-22 19:09:00,79.7,75.4,29.72,East,90,0.0,0.0,87,0.00,,,0.00,WUHU216HW,2013-07-22 23:09:00,
2013-07-22 19:10:00,83.8,75.0,29.54,NE,45,0.0,0.0,75,0.00,,,0.00,WUHU216HW,2013-07-22 23:10:00,
2013-07-22 19:11:00,79.8,75.6,29.72,East,90,0.0,0.0,87,0.00,,,0.00,WUHU216HW,2013-07-22 23:11:00,
2013-07-22 19:13:00,79.8,75.6,29.72,East,90,0.0,0.0,86,0.00,,,0.00,WUHU216HW,2013-07-22 23:13:00,
2013-07-22 19:14:00,79.8,75.6,29.72,East,90,0.0,0.0,86,0.00,,,0.00,WUHU216HW,2013-07-22 23:14:00,
2013-07-22 19:15:00,83.8,75.0,29.54,NW,315,0.0,0.0,75,0.00,,,0.00,WUHU216HW,2013-07-22 23:15:00,
2013-07-22 19:17:00,79.8,75.6,29.72,East,90,0.0,0.0,86,0.00,,,0.00,WUHU216HW,2013-07-22 23:17:00,
2013-07-22 19:19:00,80.2,75.6,29.72,East,90,0.0,0.0,86,0.00,,,0.00,WUHU216HW,2013-07-22 23:19:00,
2013-07-22 19:20:00,83.6,74.8,29.55,NNW,338,0.0,0.0,75,0.00,,,0.00,WUHU216HW,2013-07-22 23:20:00,
2013-07-22 19:21:00,80.4,75.4,29.72,ENE,68,0.0,0.0,85,0.00,,,0.00,WUHU216HW,2013-07-22 23:21:00,
2013-07-22 19:22:00,80.4,75.4,29.72,ENE,68,0.0,0.0,85,0.00,,,0.00,WUHU216HW,2013-07-22 23:22:00,
2013-07-22 19:23:00,80.4,75.4,29.72,ENE,68,0.0,0.0,85,0.00,,,0.00,WUHU216HW,2013-07-22 23:23:00,
2013-07-22 19:24:00,80.7,75.8,29.72,ENE,68,0.0,0.0,85,0.00,,,0.00,WUHU216HW,2013-07-22 23:24:00,
2013-07-22 19:25:00,83.4,75.1,29.55,NNW,338,0.0,0.0,76,0.00,,,0.00,WUHU216HW,2013-07-22 23:25:00,
2013-07-22 19:26:00,81.1,76.1,29.72,ENE,68,0.0,0.0,85,0.00,,,0.00,WUHU216HW,2013-07-22 23:26:00,
2013-07-22 19:27:00,81.1,76.1,29.72,ENE,68,0.0,0.0,85,0.00,,,0.00,WUHU216HW,2013-07-22 23:27:00,
2013-07-22 19:28:00,81.1,76.1,29.72,ENE,68,0.0,0.0,85,0.00,,,0.00,WUHU216HW,2013-07-22 23:28:00,
2013-07-22 19:29:00,81.3,75.6,29.72,ESE,113,0.0,0.0,83,0.00,,,0.00,WUHU216HW,2013-07-22 23:29:00,
2013-07-22 19:30:00,83.3,74.9,29.55,NNW,338,0.0,0.0,76,0.00,,,0.00,WUHU216HW,2013-07-22 23:30:00,
2013-07-22 19:31:00,81.5,75.8,29.72,ESE,113,0.0,0.0,83,0.00,,,0.00,WUHU216HW,2013-07-22 23:31:00,
2013-07-22 19:33:00,81.5,75.8,29.72,ESE,113,0.0,0.0,82,0.00,,,0.00,WUHU216HW,2013-07-22 23:33:00,
2013-07-22 19:34:00,81.5,75.8,29.72,ESE,113,0.0,0.0,82,0.00,,,0.00,WUHU216HW,2013-07-22 23:34:00,
2013-07-22 19:35:00,83.1,74.7,29.55,SE,135,0.0,0.0,76,0.00,,,0.00,WUHU216HW,2013-07-22 23:35:00,
2013-07-22 19:36:00,81.6,75.7,29.72,ESE,113,0.0,0.0,82,0.00,,,0.00,WUHU216HW,2013-07-22 23:36:00,
2013-07-22 19:37:00,82.0,76.4,29.72,East,90,0.0,0.0,83,0.00,,,0.00,WUHU216HW,2013-07-22 23:37:00,
2013-07-22 19:38:00,82.0,76.4,29.72,East,90,0.0,0.0,83,0.00,,,0.00,WUHU216HW,2013-07-22 23:38:00,
2013-07-22 19:39:00,82.0,76.4,29.72,East,90,0.0,0.0,82,0.00,,,0.00,WUHU216HW,2013-07-22 23:39:00,
2013-07-22 19:40:00,82.9,74.5,29.55,SE,135,0.0,0.0,76,0.00,,,0.00,WUHU216HW,2013-07-22 23:40:00,
2013-07-22 19:42:00,82.0,76.4,29.71,East,90,0.0,0.0,82,0.00,,,0.00,WUHU216HW,2013-07-22 23:42:00,
2013-07-22 19:43:00,82.4,76.7,29.72,East,90,0.0,0.0,83,0.00,,,0.00,WUHU216HW,2013-07-22 23:43:00,
2013-07-22 19:44:00,82.4,76.7,29.71,East,90,0.0,0.0,83,0.00,,,0.00,WUHU216HW,2013-07-22 23:44:00,
2013-07-22 19:45:00,82.7,74.4,29.55,SE,135,0.0,0.0,76,0.00,,,0.00,WUHU216HW,2013-07-22 23:45:00,
2013-07-22 19:46:00,82.7,76.4,29.71,ESE,113,0.0,0.0,81,0.00,,,0.00,WUHU216HW,2013-07-22 23:46:00,
2013-07-22 19:47:00,82.7,76.4,29.71,ESE,113,0.0,0.0,81,0.00,,,0.00,WUHU216HW,2013-07-22 23:47:00,
2013-07-22 19:48:00,82.9,76.2,29.71,ESE,113,0.0,0.0,80,0.00,,,0.00,WUHU216HW,2013-07-22 23:48:00,
2013-07-22 19:49:00,82.9,76.2,29.71,ESE,113,0.0,0.0,80,0.00,,,0.00,WUHU216HW,2013-07-22 23:49:00,
2013-07-22 19:50:00,82.5,74.6,29.55,SE,135,0.0,0.0,77,0.00,,,0.00,WUHU216HW,2013-07-22 23:50:00,
2013-07-22 19:51:00,82.9,76.2,29.71,East,90,0.0,0.0,80,0.00,,,0.00,WUHU216HW,2013-07-22 23:51:00,
2013-07-22 19:52:00,82.9,76.2,29.70,East,90,0.0,0.0,80,0.00,,,0.00,WUHU216HW,2013-07-22 23:52:00,
2013-07-22 19:53:00,82.9,76.2,29.70,East,90,0.0,0.0,80,0.00,,,0.00,WUHU216HW,2013-07-22 23:53:00,
2013-07-22 19:54:00,83.1,76.3,29.70,East,90,0.0,0.0,80,0.00,,,0.00,WUHU216HW,2013-07-22 23:54:00,
2013-07-22 19:55:00,82.2,74.3,29.55,SE,135,0.0,0.0,77,0.00,,,0.00,WUHU216HW,2013-07-22 23:55:00,
2013-07-22 19:56:00,83.1,76.3,29.71,East,90,0.0,0.0,80,0.00,,,0.00,WUHU216HW,2013-07-22 23:56:00,
2013-07-22 19:57:00,83.3,76.9,29.71,ESE,113,0.0,0.0,81,0.00,,,0.00,WUHU216HW,2013-07-22 23:57:00,
2013-07-22 19:58:00,83.3,76.9,29.70,ESE,113,0.0,0.0,81,0.00,,,0.00,WUHU216HW,2013-07-22 23:58:00,
2013-07-22 19:59:00,83.6,76.8,29.71,ESE,113,0.0,0.0,80,0.00,,,0.00,WUHU216HW,2013-07-22 23:59:00,
2013-07-22 20:00:00,82.2,74.3,29.55,SE,135,0.0,0.0,78,0.00,,,0.00,WUHU216HW,2013-07-23 00:00:00,
2013-07-22 20:01:00,84.0,76.8,29.70,ESE,113,0.0,0.0,79,0.00,,,0.00,WUHU216HW,2013-07-23 00:01:00,
2013-07-22 20:02:00,84.0,76.8,29.70,ESE,113,0.0,0.0,79,0.00,,,0.00,WUHU216HW,2013-07-23 00:02:00,
2013-07-22 20:03:00,84.0,76.8,29.70,NE,45,0.0,0.0,78,0.00,,,0.00,WUHU216HW,2013-07-23 00:03:00,
2013-07-22 20:04:00,84.0,76.8,29.71,NE,45,0.0,0.0,78,0.00,,,0.00,WUHU216HW,2013-07-23 00:04:00,
2013-07-22 20:05:00,82.0,74.5,29.55,SE,135,0.0,0.0,78,0.00,,,0.00,WUHU216HW,2013-07-23 00:05:00,
2013-07-22 20:06:00,84.0,76.8,29.70,NE,45,0.0,0.0,78,0.00,,,0.00,WUHU216HW,2013-07-23 00:06:00,
2013-07-22 20:07:00,83.8,75.8,29.70,ESE,113,0.0,0.0,77,0.00,,,0.00,WUHU216HW,2013-07-23 00:07:00,
2013-07-22 20:08:00,83.8,75.8,29.70,ESE,113,0.0,0.0,77,0.00,,,0.00,WUHU216HW,2013-07-23 00:08:00,
2013-07-22 20:09:00,83.8,75.8,29.70,ESE,113,0.0,0.0,79,0.00,,,0.00,WUHU216HW,2013-07-23 00:09:00,
2013-07-22 20:10:00,82.0,74.5,29.55,SE,135,0.0,0.0,78,0.00,,,0.00,WUHU216HW,2013-07-23 00:10:00,
2013-07-22 20:11:00,83.8,75.8,29.70,ESE,113,0.0,0.0,78,0.00,,,0.00,WUHU216HW,2013-07-23 00:11:00,
2013-07-22 20:12:00,83.8,75.8,29.70,ESE,113,0.0,0.0,78,0.00,,,0.00,WUHU216HW,2013-07-23 00:12:00,
2013-07-22 20:13:00,83.8,75.8,29.70,ESE,113,0.0,0.0,78,0.00,,,0.00,WUHU216HW,2013-07-23 00:13:00,
2013-07-22 20:14:00,83.8,75.8,29.70,ESE,113,0.0,0.0,78,0.00,,,0.00,WUHU216HW,2013-07-23 00:14:00,
2013-07-22 20:15:00,81.6,74.2,29.55,SE,135,0.0,0.0,78,0.00,,,0.00,WUHU216HW,2013-07-23 00:15:00,
2013-07-22 20:16:00,83.8,75.8,29.70,ESE,113,0.0,0.0,79,0.00,,,0.00,WUHU216HW,2013-07-23 00:16:00,
2013-07-22 20:17:00,83.8,75.8,29.70,ESE,113,0.0,0.0,79,0.00,,,0.00,WUHU216HW,2013-07-23 00:17:00,
2013-07-22 20:18:00,84.0,76.8,29.70,ESE,113,0.0,0.0,79,0.00,,,0.00,WUHU216HW,2013-07-23 00:18:00,
2013-07-22 20:19:00,84.0,76.8,29.70,ESE,113,0.0,0.0,79,0.00,,,0.00,WUHU216HW,2013-07-23 00:19:00,
2013-07-22 20:20:00,81.5,74.0,29.55,SE,135,0.0,0.0,78,0.00,,,0.00,WUHU216HW,2013-07-23 00:20:00,
2013-07-22 20:21:00,84.0,76.8,29.71,ESE,113,0.0,0.0,78,0.00,,,0.00,WUHU216HW,2013-07-23 00:21:00,
2013-07-22 20:22:00,84.0,76.8,29.71,ESE,113,0.0,0.0,78,0.00,,,0.00,WUHU216HW,2013-07-23 00:22:00,
2013-07-22 20:23:00,84.0,76.8,29.71,ESE,113,0.0,0.0,78,0.00,,,0.00,WUHU216HW,2013-07-23 00:23:00,
2013-07-22 20:24:00,84.0,76.8,29.71,ESE,113,0.0,0.0,78,0.00,,,0.00,WUHU216HW,2013-07-23 00:24:00,
2013-07-22 20:25:00,81.3,73.8,29.55,SE,135,0.0,0.0,78,0.00,,,0.00,WUHU216HW,2013-07-23 00:25:00,
2013-07-22 20:26:00,84.0,76.8,29.71,ESE,113,0.0,0.0,78,0.00,,,0.00,WUHU216HW,2013-07-23 00:26:00,
2013-07-22 20:27:00,83.8,76.2,29.71,ESE,113,0.0,0.0,78,0.00,,,0.00,WUHU216HW,2013-07-23 00:27:00,
2013-07-22 20:28:00,83.8,76.2,29.71,ESE,113,0.0,0.0,78,0.00,,,0.00,WUHU216HW,2013-07-23 00:28:00,
2013-07-22 20:29:00,83.8,76.2,29.71,ESE,113,0.0,0.0,78,0.00,,,0.00,WUHU216HW,2013-07-23 00:29:00,
2013-07-22 20:30:00,81.3,73.8,29.55,SE,135,0.0,0.0,79,0.00,,,0.00,WUHU216HW,2013-07-23 00:30:00,
2013-07-22 20:31:00,83.8,76.2,29.71,ESE,113,0.0,0.0,78,0.00,,,0.00,WUHU216HW,2013-07-23 00:31:00,
2013-07-22 20:32:00,83.8,76.2,29.71,ESE,113,0.0,0.0,78,0.00,,,0.00,WUHU216HW,2013-07-23 00:32:00,
2013-07-22 20:34:00,83.8,76.2,29.71,ESE,113,0.0,0.0,78,0.00,,,0.00,WUHU216HW,2013-07-23 00:34:00,
2013-07-22 20:35:00,80.9,73.9,29.55,SE,135,0.0,0.0,79,0.00,,,0.00,WUHU216HW,2013-07-23 00:35:00,
2013-07-22 20:36:00,83.6,76.0,29.71,ESE,113,0.0,0.0,78,0.00,,,0.00,WUHU216HW,2013-07-23 00:36:00,
2013-07-22 20:37:00,83.6,76.0,29.71,ESE,113,0.0,0.0,78,0.00,,,0.00,WUHU216HW,2013-07-23 00:37:00,
2013-07-22 20:38:00,83.4,75.9,29.71,ESE,113,0.0,0.0,78,0.00,,,0.00,WUHU216HW,2013-07-23 00:38:00,
2013-07-22 20:40:00,80.7,74.1,29.54,SE,135,0.0,0.0,80,0.00,,,0.00,WUHU216HW,2013-07-23 00:40:00,
2013-07-22 20:41:00,83.4,75.9,29.71,ESE,113,0.0,0.0,79,0.00,,,0.00,WUHU216HW,2013-07-23 00:41:00,
2013-07-22 20:43:00,83.4,75.9,29.70,ESE,113,0.0,0.0,79,0.00,,,0.00,WUHU216HW,2013-07-23 00:43:00,
2013-07-22 20:45:00,80.7,74.1,29.54,SE,135,0.0,0.0,80,0.00,,,0.00,WUHU216HW,2013-07-23 00:45:00,
2013-07-22 20:47:00,83.4,75.9,29.70,ESE,113,0.0,0.0,79,0.00,,,0.00,WUHU216HW,2013-07-23 00:47:00,
2013-07-22 20:49:00,83.8,76.6,29.71,SE,135,0.0,0.0,79,0.00,,,0.00,WUHU216HW,2013-07-23 00:49:00,
2013-07-22 20:50:00,80.6,73.9,29.54,SE,135,0.0,0.0,80,0.00,,,0.00,WUHU216HW,2013-07-23 00:50:00,
2013-07-22 20:52:00,84.3,76.7,29.70,ESE,113,0.0,0.0,78,0.00,,,0.00,WUHU216HW,2013-07-23 00:52:00,
2013-07-22 20:53:00,84.3,76.7,29.70,ESE,113,0.0,0.0,78,0.00,,,0.00,WUHU216HW,2013-07-23 00:53:00,
2013-07-22 20:54:00,84.3,76.7,29.70,ESE,113,0.0,0.0,78,0.00,,,0.00,WUHU216HW,2013-07-23 00:54:00,
2013-07-22 20:55:00,80.4,73.7,29.55,SE,135,0.0,0.0,80,0.00,,,0.00,WUHU216HW,2013-07-23 00:55:00,
2013-07-22 20:56:00,84.7,77.5,29.70,ESE,113,0.0,0.0,79,0.00,,,0.00,WUHU216HW,2013-07-23 00:56:00,
2013-07-22 20:57:00,85.1,77.0,29.70,WNW,293,0.0,0.0,77,0.00,,,0.00,WUHU216HW,2013-07-23 00:57:00,
2013-07-22 20:58:00,85.1,77.0,29.70,WNW,293,0.0,0.0,77,0.00,,,0.00,WUHU216HW,2013-07-23 00:58:00,
2013-07-22 20:59:00,85.2,77.2,29.70,WNW,293,0.0,0.0,77,0.00,,,0.00,WUHU216HW,2013-07-23 00:59:00,
2013-07-22 21:00:00,80.2,73.5,29.55,SE,135,0.0,0.0,80,0.00,,,0.00,WUHU216HW,2013-07-23 01:00:00,
2013-07-22 21:01:00,85.2,77.2,29.70,SSW,203,0.0,0.0,76,0.00,,,0.00,WUHU216HW,2013-07-23 01:01:00,
2013-07-22 21:02:00,85.2,77.2,29.70,SSW,203,0.0,0.0,76,0.00,,,0.00,WUHU216HW,2013-07-23 01:02:00,
2013-07-22 21:03:00,85.2,77.2,29.70,SSW,203,0.0,0.0,76,0.00,,,0.00,WUHU216HW,2013-07-23 01:03:00,
2013-07-22 21:04:00,85.2,77.2,29.70,SSW,203,0.0,0.0,76,0.00,,,0.00,WUHU216HW,2013-07-23 01:04:00,
2013-07-22 21:05:00,80.2,73.5,29.55,SE,135,0.0,0.0,80,0.00,,,0.00,WUHU216HW,2013-07-23 01:05:00,
2013-07-22 21:07:00,85.2,77.2,29.69,SE,135,0.0,0.0,74,0.00,,,0.00,WUHU216HW,2013-07-23 01:07:00,
2013-07-22 21:08:00,85.2,77.2,29.69,SE,135,0.0,0.0,74,0.00,,,0.00,WUHU216HW,2013-07-23 01:08:00,
2013-07-22 21:10:00,80.2,73.5,29.55,SE,135,0.0,0.0,80,0.00,,,0.00,WUHU216HW,2013-07-23 01:10:00,
2013-07-22 21:15:00,79.8,73.2,29.55,SE,135,0.0,0.0,80,0.00,,,0.00,WUHU216HW,2013-07-23 01:15:00,
2013-07-22 21:17:00,85.2,77.2,29.70,SE,135,0.0,0.0,77,0.00,,,0.00,WUHU216HW,2013-07-23 01:17:00,
2013-07-22 21:19:00,85.6,77.2,29.70,SE,135,0.0,0.0,76,0.00,,,0.00,WUHU216HW,2013-07-23 01:19:00,
2013-07-22 21:20:00,79.8,73.2,29.55,SE,135,0.0,0.0,80,0.00,,,0.00,WUHU216HW,2013-07-23 01:20:00,
2013-07-22 21:22:00,86.0,77.1,29.70,ENE,68,0.0,0.0,75,0.00,,,0.00,WUHU216HW,2013-07-23 01:22:00,
2013-07-22 21:23:00,86.0,77.1,29.70,ENE,68,0.0,0.0,75,0.00,,,0.00,WUHU216HW,2013-07-23 01:23:00,
2013-07-22 21:25:00,79.7,73.0,29.56,SE,135,0.0,0.0,81,0.00,,,0.00,WUHU216HW,2013-07-23 01:25:00,
2013-07-22 21:26:00,85.8,77.0,29.70,East,90,0.0,0.0,75,0.00,,,0.00,WUHU216HW,2013-07-23 01:26:00,
2013-07-22 21:27:00,85.8,77.0,29.70,ESE,113,0.0,0.0,75,0.00,,,0.00,WUHU216HW,2013-07-23 01:27:00,
2013-07-22 21:28:00,85.8,77.0,29.70,ESE,113,0.0,0.0,75,0.00,,,0.00,WUHU216HW,2013-07-23 01:28:00,
2013-07-22 21:29:00,85.8,77.0,29.70,ESE,113,0.0,0.0,75,0.00,,,0.00,WUHU216HW,2013-07-23 01:29:00,
2013-07-22 21:30:00,79.7,73.0,29.56,SE,135,0.0,0.0,81,0.00,,,0.00,WUHU216HW,2013-07-23 01:30:00,
2013-07-22 21:31:00,85.8,77.0,29.70,ESE,113,0.0,0.0,75,0.00,,,0.00,WUHU216HW,2013-07-23 01:31:00,
2013-07-22 21:32:00,85.8,77.0,29.70,ESE,113,0.0,0.0,75,0.00,,,0.00,WUHU216HW,2013-07-23 01:32:00,
2013-07-22 21:33:00,85.8,77.0,29.70,ESE,113,0.0,0.0,75,0.00,,,0.00,WUHU216HW,2013-07-23 01:33:00,
2013-07-22 21:34:00,85.8,77.0,29.70,ESE,113,0.0,0.0,76,0.00,,,0.00,WUHU216HW,2013-07-23 01:34:00,
2013-07-22 21:35:00,79.5,73.2,29.56,SE,135,0.0,0.0,81,0.00,,,0.00,WUHU216HW,2013-07-23 01:35:00,
2013-07-22 21:36:00,85.6,77.2,29.70,SE,135,0.0,0.0,76,0.00,,,0.00,WUHU216HW,2013-07-23 01:36:00,
2013-07-22 21:37:00,85.6,77.2,29.70,SE,135,0.0,0.0,76,0.00,,,0.00,WUHU216HW,2013-07-23 01:37:00,
2013-07-22 21:38:00,85.6,77.2,29.70,ESE,113,0.0,0.0,75,0.00,,,0.00,WUHU216HW,2013-07-23 01:38:00,
2013-07-22 21:39:00,85.6,77.2,29.70,ESE,113,0.0,0.0,75,0.00,,,0.00,WUHU216HW,2013-07-23 01:39:00,
2013-07-22 21:40:00,85.6,77.2,29.70,SE,135,0.0,0.0,75,0.00,,,0.00,WUHU216HW,2013-07-23 01:40:00,
2013-07-22 21:41:00,79.3,73.0,29.56,SE,135,0.0,0.0,81,0.00,,,0.00,WUHU216HW,2013-07-23 01:41:00,
2013-07-22 21:42:00,85.8,76.6,29.70,ESE,113,0.0,0.0,74,0.00,,,0.00,WUHU216HW,2013-07-23 01:42:00,
2013-07-22 21:43:00,85.8,76.6,29.70,ESE,113,0.0,0.0,74,0.00,,,0.00,WUHU216HW,2013-07-23 01:43:00,
2013-07-22 21:44:00,85.6,76.4,29.69,SE,135,0.0,0.0,74,0.00,,,0.00,WUHU216HW,2013-07-23 01:44:00,
2013-07-22 21:45:00,85.6,76.4,29.70,SE,135,0.0,0.0,74,0.00,,,0.00,WUHU216HW,2013-07-23 01:45:00,
2013-07-22 21:46:00,79.3,73.0,29.56,SE,135,0.0,0.0,81,0.00,,,0.00,WUHU216HW,2013-07-23 01:46:00,
2013-07-22 21:47:00,86.1,76.9,29.70,ENE,68,3.8,3.8,74,0.00,,,0.00,WUHU216HW,2013-07-23 01:47:00,
2013-07-22 21:48:00,86.1,76.9,29.70,ENE,68,3.8,3.8,74,0.00,,,0.00,WUHU216HW,2013-07-23 01:48:00,
2013-07-22 21:49:00,86.7,77.4,29.69,ENE,68,0.0,3.8,74,0.00,,,0.00,WUHU216HW,2013-07-23 01:49:00,
2013-07-22 21:50:00,86.7,77.4,29.69,ENE,68,0.0,3.8,74,0.00,,,0.00,WUHU216HW,2013-07-23 01:50:00,
2013-07-22 21:51:00,79.3,73.0,29.56,SE,135,0.0,0.0,81,0.00,,,0.00,WUHU216HW,2013-07-23 01:51:00,
2013-07-22 21:52:00,87.0,77.8,29.69,ENE,68,0.0,3.8,74,0.00,,,0.00,WUHU216HW,2013-07-23 01:52:00,
2013-07-22 21:54:00,86.9,76.4,29.69,East,90,0.0,3.8,71,0.00,,,0.00,WUHU216HW,2013-07-23 01:54:00,
2013-07-22 21:55:00,86.9,76.4,29.69,East,90,0.0,3.8,71,0.00,,,0.00,WUHU216HW,2013-07-23 01:55:00,
2013-07-22 21:56:00,79.1,73.2,29.56,SE,135,0.0,0.0,82,0.00,,,0.00,WUHU216HW,2013-07-23 01:56:00,
2013-07-22 21:57:00,86.9,76.4,29.69,SE,135,0.0,3.8,72,0.00,,,0.00,WUHU216HW,2013-07-23 01:57:00,
2013-07-22 21:58:00,86.9,76.4,29.69,SE,135,0.0,3.8,72,0.00,,,0.00,WUHU216HW,2013-07-23 01:58:00,
2013-07-22 21:59:00,87.0,76.9,29.69,SE,135,0.0,0.0,72,0.00,,,0.00,WUHU216HW,2013-07-23 01:59:00,
2013-07-22 22:00:00,87.0,76.9,29.69,SE,135,0.0,0.0,72,0.00,,,0.00,WUHU216HW,2013-07-23 02:00:00,
2013-07-22 22:01:00,78.9,73.0,29.56,SE,135,0.0,0.0,82,0.00,,,0.00,WUHU216HW,2013-07-23 02:01:00,
2013-07-22 22:02:00,87.0,76.9,29.69,SE,135,0.0,0.0,71,0.00,,,0.00,WUHU216HW,2013-07-23 02:02:00,
2013-07-22 22:03:00,87.0,76.9,29.69,SE,135,0.0,0.0,71,0.00,,,0.00,WUHU216HW,2013-07-23 02:03:00,
2013-07-22 22:05:00,86.7,76.6,29.69,SE,135,0.0,0.0,72,0.00,,,0.00,WUHU216HW,2013-07-23 02:05:00,
2013-07-22 22:06:00,78.9,73.0,29.57,SE,135,0.0,0.0,82,0.00,,,0.00,WUHU216HW,2013-07-23 02:06:00,
2013-07-22 22:07:00,86.7,76.6,29.69,SE,135,0.0,0.0,72,0.00,,,0.00,WUHU216HW,2013-07-23 02:07:00,
2013-07-22 22:08:00,87.0,77.3,29.69,SE,135,0.0,0.0,73,0.00,,,0.00,WUHU216HW,2013-07-23 02:08:00,
2013-07-22 22:09:00,87.0,77.3,29.69,SE,135,0.0,0.0,73,0.00,,,0.00,WUHU216HW,2013-07-23 02:09:00,
2013-07-22 22:10:00,87.0,77.3,29.69,SE,135,0.0,0.0,70,0.00,,,0.00,WUHU216HW,2013-07-23 02:10:00,
2013-07-22 22:11:00,78.9,73.0,29.56,SE,135,0.0,0.0,82,0.00,,,0.00,WUHU216HW,2013-07-23 02:11:00,
2013-07-22 22:12:00,86.9,76.4,29.69,SE,135,0.0,0.0,71,0.00,,,0.00,WUHU216HW,2013-07-23 02:12:00,
2013-07-22 22:13:00,86.9,76.4,29.69,SE,135,0.0,0.0,71,0.00,,,0.00,WUHU216HW,2013-07-23 02:13:00,
2013-07-22 22:14:00,86.9,76.4,29.68,SE,135,0.0,0.0,71,0.00,,,0.00,WUHU216HW,2013-07-23 02:14:00,
2013-07-22 22:15:00,87.0,76.9,29.68,SE,135,0.0,0.0,72,0.00,,,0.00,WUHU216HW,2013-07-23 02:15:00,
2013-07-22 22:16:00,78.9,73.0,29.57,SE,135,0.0,0.0,82,0.00,,,0.00,WUHU216HW,2013-07-23 02:16:00,
2013-07-22 22:17:00,87.2,77.1,29.68,SE,135,0.0,0.0,72,0.00,,,0.00,WUHU216HW,2013-07-23 02:17:00,
2013-07-22 22:18:00,87.2,77.1,29.68,SE,135,0.0,0.0,72,0.00,,,0.00,WUHU216HW,2013-07-23 02:18:00,
2013-07-22 22:19:00,87.6,77.4,29.68,WSW,248,0.0,0.0,72,0.00,,,0.00,WUHU216HW,2013-07-23 02:19:00,
2013-07-22 22:20:00,87.6,77.4,29.68,WSW,248,0.0,0.0,72,0.00,,,0.00,WUHU216HW,2013-07-23 02:20:00,
2013-07-22 22:21:00,78.9,73.0,29.57,SE,135,0.0,0.0,82,0.00,,,0.00,WUHU216HW,2013-07-23 02:21:00,
2013-07-22 22:22:00,87.9,77.0,29.68,SSE,158,0.0,0.0,70,0.00,,,0.00,WUHU216HW,2013-07-23 02:22:00,
2013-07-22 22:23:00,87.9,77.0,29.68,SSE,158,0.0,0.0,70,0.00,,,0.00,WUHU216HW,2013-07-23 02:23:00,
2013-07-22 22:24:00,87.9,77.0,29.68,SSE,158,0.0,0.0,70,0.00,,,0.00,WUHU216HW,2013-07-23 02:24:00,
2013-07-22 22:25:00,87.6,76.6,29.68,SSE,158,0.0,0.0,70,0.00,,,0.00,WUHU216HW,2013-07-23 02:25:00,
2013-07-22 22:26:00,78.6,72.6,29.57,SE,135,0.0,0.0,82,0.00,,,0.00,WUHU216HW,2013-07-23 02:26:00,
2013-07-22 22:27:00,87.4,76.0,29.68,South,180,0.0,0.0,69,0.00,,,0.00,WUHU216HW,2013-07-23 02:27:00,
2013-07-22 22:28:00,87.4,76.0,29.68,South,180,0.0,0.0,69,0.00,,,0.00,WUHU216HW,2013-07-23 02:28:00,
2013-07-22 22:29:00,87.4,76.0,29.68,South,180,0.0,0.0,69,0.00,,,0.00,WUHU216HW,2013-07-23 02:29:00,
2013-07-22 22:30:00,87.0,76.1,29.68,SSE,158,0.0,0.0,70,0.00,,,0.00,WUHU216HW,2013-07-23 02:30:00,
2013-07-22 22:31:00,78.6,72.6,29.57,SE,135,0.0,0.0,82,0.00,,,0.00,WUHU216HW,2013-07-23 02:31:00,
2013-07-22 22:32:00,87.4,77.3,29.68,SSE,158,0.0,0.0,72,0.00,,,0.00,WUHU216HW,2013-07-23 02:32:00,
2013-07-22 22:33:00,87.4,77.3,29.67,SSE,158,0.0,0.0,72,0.00,,,0.00,WUHU216HW,2013-07-23 02:33:00,
2013-07-22 22:34:00,87.8,77.2,29.67,SSE,158,5.1,5.1,71,0.00,,,0.00,WUHU216HW,2013-07-23 02:34:00,
2013-07-22 22:35:00,87.8,77.2,29.67,SSE,158,5.1,5.1,71,0.00,,,0.00,WUHU216HW,2013-07-23 02:35:00,
2013-07-22 22:36:00,78.6,72.6,29.58,SE,135,0.0,0.0,83,0.00,,,0.00,WUHU216HW,2013-07-23 02:36:00,
2013-07-22 22:37:00,87.6,75.7,29.67,SE,135,0.0,5.1,68,0.00,,,0.00,WUHU216HW,2013-07-23 02:37:00,
2013-07-22 22:38:00,87.6,75.7,29.67,SE,135,0.0,5.1,69,0.00,,,0.00,WUHU216HW,2013-07-23 02:38:00,
2013-07-22 22:39:00,87.6,75.7,29.67,SE,135,0.0,5.1,69,0.00,,,0.00,WUHU216HW,2013-07-23 02:39:00,
2013-07-22 22:40:00,87.8,76.3,29.67,SE,135,0.0,5.1,69,0.00,,,0.00,WUHU216HW,2013-07-23 02:40:00,
2013-07-22 22:41:00,78.6,72.6,29.58,SE,135,0.0,0.0,83,0.00,,,0.00,WUHU216HW,2013-07-23 02:41:00,
2013-07-22 22:42:00,87.8,76.3,29.67,SE,135,0.0,5.1,69,0.00,,,0.00,WUHU216HW,2013-07-23 02:42:00,
2013-07-22 22:43:00,87.9,77.4,29.67,ESE,113,0.0,5.1,71,0.00,,,0.00,WUHU216HW,2013-07-23 02:43:00,
2013-07-22 22:44:00,87.9,77.4,29.67,ESE,113,0.0,5.1,71,0.00,,,0.00,WUHU216HW,2013-07-23 02:44:00,
2013-07-22 22:45:00,88.3,76.4,29.67,ESE,113,0.0,0.0,68,0.00,,,0.00,WUHU216HW,2013-07-23 02:45:00,
2013-07-22 22:46:00,78.6,72.6,29.57,SE,135,0.0,0.0,83,0.00,,,0.00,WUHU216HW,2013-07-23 02:46:00,
2013-07-22 22:47:00,88.3,76.4,29.67,SE,135,0.0,0.0,68,0.00,,,0.00,WUHU216HW,2013-07-23 02:47:00,
2013-07-22 22:48:00,88.3,76.4,29.67,SE,135,0.0,0.0,68,0.00,,,0.00,WUHU216HW,2013-07-23 02:48:00,
2013-07-22 22:49:00,88.1,76.2,29.67,SE,135,0.0,0.0,68,0.00,,,0.00,WUHU216HW,2013-07-23 02:49:00,
2013-07-22 22:50:00,88.1,76.2,29.66,SE,135,0.0,0.0,68,0.00,,,0.00,WUHU216HW,2013-07-23 02:50:00,
2013-07-22 22:51:00,78.4,72.8,29.57,SE,135,0.0,0.0,83,0.00,,,0.00,WUHU216HW,2013-07-23 02:51:00,
2013-07-22 22:52:00,87.4,74.2,29.66,SSE,158,0.0,0.0,65,0.00,,,0.00,WUHU216HW,2013-07-23 02:52:00,
2013-07-22 22:53:00,87.0,74.8,29.66,SSE,158,0.0,0.0,67,0.00,,,0.00,WUHU216HW,2013-07-23 02:53:00,
2013-07-22 22:54:00,87.0,74.8,29.66,SSE,158,0.0,0.0,67,0.00,,,0.00,WUHU216HW,2013-07-23 02:54:00,
2013-07-22 22:55:00,86.9,75.0,29.66,SSE,158,0.0,0.0,68,0.00,,,0.00,WUHU216HW,2013-07-23 02:55:00,
2013-07-22 22:56:00,78.6,73.0,29.57,SE,135,0.0,0.0,83,0.00,,,0.00,WUHU216HW,2013-07-23 02:56:00,
2013-07-22 22:57:00,86.9,75.0,29.66,SSE,158,0.0,0.0,68,0.00,,,0.00,WUHU216HW,2013-07-23 02:57:00,
2013-07-22 22:59:00,86.5,74.7,29.67,South,180,0.0,0.0,68,0.00,,,0.00,WUHU216HW,2013-07-23 02:59:00,
2013-07-22 23:01:00,78.4,72.8,29.57,SE,135,0.0,0.0,83,0.00,,,0.00,WUHU216HW,2013-07-23 03:01:00,
2013-07-22 23:02:00,86.3,75.0,29.66,South,180,0.0,0.0,69,0.00,,,0.00,WUHU216HW,2013-07-23 03:02:00,
2013-07-22 23:03:00,86.3,75.0,29.66,South,180,0.0,0.0,69,0.00,,,0.00,WUHU216HW,2013-07-23 03:03:00,
2013-07-22 23:05:00,86.1,74.8,29.66,South,180,0.0,0.0,69,0.00,,,0.00,WUHU216HW,2013-07-23 03:05:00,
2013-07-22 23:06:00,78.4,72.8,29.57,SE,135,0.0,0.0,83,0.00,,,0.00,WUHU216HW,2013-07-23 03:06:00,
2013-07-22 23:07:00,85.8,75.0,29.66,South,180,0.0,0.0,70,0.00,,,0.00,WUHU216HW,2013-07-23 03:07:00,
2013-07-22 23:08:00,85.6,74.3,29.66,South,180,0.0,0.0,69,0.00,,,0.00,WUHU216HW,2013-07-23 03:08:00,
2013-07-22 23:09:00,85.6,74.3,29.66,South,180,0.0,0.0,69,0.00,,,0.00,WUHU216HW,2013-07-23 03:09:00,
2013-07-22 23:10:00,85.6,74.3,29.66,South,180,0.0,0.0,69,0.00,,,0.00,WUHU216HW,2013-07-23 03:10:00,
2013-07-22 23:11:00,78.4,72.8,29.57,SE,135,0.0,0.0,83,0.00,,,0.00,WUHU216HW,2013-07-23 03:11:00,
2013-07-22 23:12:00,85.6,74.3,29.66,South,180,0.0,0.0,71,0.00,,,0.00,WUHU216HW,2013-07-23 03:12:00,
2013-07-22 23:13:00,85.6,74.3,29.66,SSE,158,0.0,0.0,71,0.00,,,0.00,WUHU216HW,2013-07-23 03:13:00,
2013-07-22 23:14:00,85.6,74.3,29.66,SSE,158,0.0,0.0,71,0.00,,,0.00,WUHU216HW,2013-07-23 03:14:00,
2013-07-22 23:15:00,85.4,74.6,29.66,SSE,158,0.0,0.0,70,0.00,,,0.00,WUHU216HW,2013-07-23 03:15:00,
2013-07-22 23:16:00,78.4,72.8,29.57,SE,135,0.0,0.0,83,0.00,,,0.00,WUHU216HW,2013-07-23 03:16:00,
2013-07-22 23:17:00,85.2,74.8,29.66,SSE,158,0.0,0.0,71,0.00,,,0.00,WUHU216HW,2013-07-23 03:17:00,
2013-07-22 23:18:00,85.2,74.8,29.66,SSE,158,0.0,0.0,71,0.00,,,0.00,WUHU216HW,2013-07-23 03:18:00,
2013-07-22 23:19:00,85.1,74.6,29.66,SSE,158,0.0,0.0,71,0.00,,,0.00,WUHU216HW,2013-07-23 03:19:00,
2013-07-22 23:20:00,85.1,74.6,29.67,SSE,158,0.0,0.0,71,0.00,,,0.00,WUHU216HW,2013-07-23 03:20:00,
2013-07-22 23:21:00,78.4,72.8,29.57,SE,135,0.0,0.0,83,0.00,,,0.00,WUHU216HW,2013-07-23 03:21:00,
2013-07-22 23:22:00,85.2,75.2,29.66,SSE,158,0.0,0.0,72,0.00,,,0.00,WUHU216HW,2013-07-23 03:22:00,
2013-07-22 23:23:00,85.6,75.6,29.66,SSE,158,0.0,0.0,72,0.00,,,0.00,WUHU216HW,2013-07-23 03:23:00,
2013-07-22 23:24:00,85.6,75.6,29.66,SSE,158,0.0,0.0,72,0.00,,,0.00,WUHU216HW,2013-07-23 03:24:00,
2013-07-22 23:25:00,85.6,75.6,29.66,SSE,158,0.0,0.0,72,0.00,,,0.00,WUHU216HW,2013-07-23 03:25:00,
2013-07-22 23:26:00,78.2,72.6,29.57,SE,135,0.0,0.0,83,0.00,,,0.00,WUHU216HW,2013-07-23 03:26:00,
2013-07-22 23:27:00,86.3,75.5,29.66,ESE,113,0.0,0.0,70,0.00,,,0.00,WUHU216HW,2013-07-23 03:27:00,
2013-07-22 23:28:00,86.3,75.5,29.66,ESE,113,0.0,0.0,70,0.00,,,0.00,WUHU216HW,2013-07-23 03:28:00,
2013-07-22 23:29:00,86.3,75.5,29.66,ESE,113,0.0,0.0,70,0.00,,,0.00,WUHU216HW,2013-07-23 03:29:00,
2013-07-22 23:30:00,86.5,76.0,29.66,ESE,113,0.0,0.0,71,0.00,,,0.00,WUHU216HW,2013-07-23 03:30:00,
2013-07-22 23:31:00,78.4,72.8,29.57,SE,135,0.0,0.0,83,0.00,,,0.00,WUHU216HW,2013-07-23 03:31:00,
2013-07-22 23:32:00,86.7,75.3,29.66,ESE,113,0.0,0.0,69,0.00,,,0.00,WUHU216HW,2013-07-23 03:32:00,
2013-07-22 23:33:00,86.7,75.3,29.66,ESE,113,0.0,0.0,69,0.00,,,0.00,WUHU216HW,2013-07-23 03:33:00,
2013-07-22 23:34:00,86.7,75.3,29.66,ESE,113,0.0,0.0,69,0.00,,,0.00,WUHU216HW,2013-07-23 03:34:00,
2013-07-22 23:36:00,78.2,72.6,29.57,SE,135,0.0,0.0,83,0.00,,,0.00,WUHU216HW,2013-07-23 03:36:00,
2013-07-22 23:37:00,86.7,75.3,29.66,SE,135,0.0,0.0,69,0.00,,,0.00,WUHU216HW,2013-07-23 03:37:00,
2013-07-22 23:38:00,86.7,75.3,29.66,SE,135,0.0,0.0,69,0.00,,,0.00,WUHU216HW,2013-07-23 03:38:00,
2013-07-22 23:39:00,86.5,75.2,29.66,SE,135,0.0,0.0,69,0.00,,,0.00,WUHU216HW,2013-07-23 03:39:00,
2013-07-22 23:40:00,86.5,75.2,29.66,SE,135,0.0,0.0,69,0.00,,,0.00,WUHU216HW,2013-07-23 03:40:00,
2013-07-22 23:41:00,78.2,72.6,29.57,SE,135,0.0,0.0,83,0.00,,,0.00,WUHU216HW,2013-07-23 03:41:00,
2013-07-22 23:42:00,86.5,75.2,29.66,SE,135,0.0,0.0,69,0.00,,,0.00,WUHU216HW,2013-07-23 03:42:00,
2013-07-22 23:43:00,86.5,75.2,29.66,SE,135,0.0,0.0,69,0.00,,,0.00,WUHU216HW,2013-07-23 03:43:00,
2013-07-22 23:44:00,86.5,75.2,29.66,SE,135,0.0,0.0,69,0.00,,,0.00,WUHU216HW,2013-07-23 03:44:00,
2013-07-22 23:45:00,86.7,75.8,29.66,West,270,0.0,0.0,70,0.00,,,0.00,WUHU216HW,2013-07-23 03:45:00,
2013-07-22 23:46:00,78.0,72.5,29.57,SE,135,0.0,0.0,83,0.00,,,0.00,WUHU216HW,2013-07-23 03:46:00,
2013-07-22 23:47:00,86.5,75.2,29.66,SE,135,0.0,0.0,69,0.00,,,0.00,WUHU216HW,2013-07-23 03:47:00,
2013-07-22 23:48:00,86.5,75.2,29.66,SE,135,0.0,0.0,69,0.00,,,0.00,WUHU216HW,2013-07-23 03:48:00,
2013-07-22 23:49:00,86.3,75.0,29.65,SSE,158,0.0,0.0,69,0.00,,,0.00,WUHU216HW,2013-07-23 03:49:00,
2013-07-22 23:50:00,86.3,75.0,29.65,SSE,158,0.0,0.0,69,0.00,,,0.00,WUHU216HW,2013-07-23 03:50:00,
2013-07-22 23:51:00,78.0,72.5,29.57,SE,135,0.0,0.0,83,0.00,,,0.00,WUHU216HW,2013-07-23 03:51:00,
2013-07-22 23:52:00,86.1,74.8,29.65,SSE,158,0.0,0.0,69,0.00,,,0.00,WUHU216HW,2013-07-23 03:52:00,
2013-07-22 23:56:00,77.9,72.3,29.57,SE,135,0.0,0.0,83,0.00,,,0.00,WUHU216HW,2013-07-23 03:56:00,
2013-07-22 23:57:00,86.5,75.2,29.65,ESE,113,0.0,0.0,69,0.00,,,0.00,WUHU216HW,2013-07-23 03:57:00,
2013-07-22 23:59:00,86.5,75.2,29.65,ESE,113,0.0,0.0,69,0.00,,,0.00,WUHU216HW,2013-07-23 03:59:00,